     2              OBSERVATION DATA    GPS                 RINEX VERSION / TYPE
teqc 2000Jul20 Karen Wendt 20030408 21:33:09UTC             PGM / RUN BY / DATE
                                                            COMMENT
L2: 1 -> 1; 150 -> 5; 250 -> 9                              COMMENT
L2: 1 -> 1; 150 -> 5; 250 -> 9                              COMMENT
L2: 1 -> 1; 150 -> 5; 250 -> 9                              COMMENT
L2: 1 -> 1; 150 -> 5; 250 -> 9                              COMMENT
L2: 1 -> 1; 150 -> 5; 250 -> 9                              COMMENT
L2: 1 -> 1; 150 -> 5; 250 -> 9                              COMMENT
L2: 1 -> 1; 150 -> 5; 250 -> 9                              COMMENT
L2: 1 -> 1; 150 -> 5; 250 -> 9                              COMMENT
L2: 1 -> 1; 150 -> 5; 250 -> 9                              COMMENT
L2: 1 -> 1; 150 -> 5; 250 -> 9                              COMMENT
L2: 1 -> 1; 150 -> 5; 250 -> 9                              COMMENT
L2: 1 -> 1; 150 -> 5; 250 -> 9                              COMMENT
L2: 1 -> 1; 150 -> 5; 250 -> 9                              COMMENT
L2: 1 -> 1; 150 -> 5; 250 -> 9                              COMMENT
Original Marker Name: maso Mason_1942_USC&GS                COMMENT
Campaign Name: USGS 2003                                    COMMENT
4-Character Station Name: MASO                              COMMENT
6-Character Antenna Code: DMRCHT                            COMMENT
Vertical Measurement Point: BCR                             COMMENT
Vertical Offset to Rinex Ref. Point: 0.0348                 COMMENT
Radial Measurement Point: ECF                               COMMENT
Radial Offset to Rinex Ref. Point: 0.1897                   COMMENT
Antenna Height from Field Measurement: 1.2480 m             COMMENT
Additional Antenna Identification Info.:                    COMMENT
Turborogue and Ashtech Choke Ring                           COMMENT
Original XYZ: -2623315.7965 -4463705.1052 3713579.7883      COMMENT
New XYZ position is based on association with SCEC monument COMMENT
E1F1E6M3+0011. Position of that monument is believed to be  COMMENT
valid to within 1 m horizontally; vertical accuracy         COMMENT
should be no worse than 3-times this value.                 COMMENT
                                                            COMMENT
Revised Rinex header created by UCSD GPS archive for        COMMENT
GSAC on 11-Jul-2003 (2003:192) 16:20:04 GMT                 COMMENT
For assistance contact dagnew@ucsd.edu                      COMMENT
or anderson@python.ucsd.edu                                 COMMENT
                                                            COMMENT
MASON 1942                                                  MARKER NAME
CHS US GEOLOGICAL SURVEY                                    OBSERVER / AGENCY
LP019992804 ASHTECH Z-XII3 CD00                             REC # / TYPE / VERS
CR14341 DORNE-MARGOL. TYPE T                                ANT # / TYPE
 -2623325.1705 -4463673.9001  3713565.1247                  APPROX POSITION XYZ
        1.1987        0.0000        0.0000                  ANTENNA: DELTA H/E/N
     1     1     0                                          WAVELENGTH FACT L1/2
     5    C1    L1    L2    P1    P2                        # / TYPES OF OBSERV
    30                                                      INTERVAL
  2003     4     2     0     1    0.000000                  TIME OF FIRST OBS
  2003     4     2    23    59   30.000000                  TIME OF LAST OBS
                                                            END OF HEADER
 03  4  2  0  1  0.0000000  0  9G14G31G17G 3G15G18G23G 9G26
  22489611.737   -16847755.00049 -13079218.54446  22489611.066    22489618.297
  23986425.215    -3534624.07049  -2742227.02745  23986424.474    23986432.930
  21412581.367    -3359384.29449  -2610927.27747  21412580.569    21412586.524
  22070221.745   -16601796.22349 -12919443.92547  22070221.294    22070227.375
  20255250.283   -23139764.57549 -18016270.64848  20255249.373    20255254.224
  20576722.887   -21763021.23349 -16941051.15548  20576722.262    20576725.805
  21230523.279   -14382187.72849 -11190603.11247  21230522.525    21230527.381
  24174311.704    -7964350.73749  -5986175.12445  24174311.213    24174321.138
  24327143.359     1358973.08049   1070365.27645  24327143.229    24327151.449
 03  4  2  0  1 30.0000000  0  9G14G31G17G 3G15G18G23G 9G26
  22470544.965   -16947951.06149 -13157293.13846  22470544.246    22470551.379
  23969724.813    -3622384.31949  -2810611.44645  23969724.106    23969732.529
  21420772.682    -3316338.61049  -2577385.20547  21420771.888    21420777.884
  22061112.712   -16649664.46749 -12956743.79947  22061112.220    22061118.235
  20253822.759   -23147266.12849 -18022115.98948  20253821.861    20253826.730
  20581830.055   -21736182.85649 -16920138.12148  20581829.416    20581832.949
  21238302.218   -14341308.92949 -11158749.49947  21238301.480    21238306.359
  24163382.442    -8021783.83549  -6030927.93545  24163381.930    24163391.982
  24347685.967     1466925.32749   1154483.86245  24347685.888    24347693.971
 03  4  2  0  2  0.0000000  0  9G14G31G17G 3G15G18G23G 9G26
  22451529.230   -17047878.79149 -13235158.64746  22451528.421    22451535.460
  23953086.927    -3709815.95049  -2878739.80645  23953086.194    23953094.750
  21429020.806    -3272994.57449  -2543610.65347  21429019.978    21429025.980
  22052099.222   -16697030.37649 -12993652.24247  22052098.730    22052104.772
  20252456.655   -23154444.90749 -18027709.81948  20252455.737    20252460.616
  20586990.065   -21709066.85349 -16899008.75548  20586989.424    20586992.959
  21246114.698   -14300254.08449 -11126758.71147  21246113.971    21246118.850
  24152515.826    -8078887.19549  -6075423.81445  24152515.332    24152525.257
  24368270.942     1575100.75649   1238776.35745  24368270.827    24368278.991
 03  4  2  0  2 30.0000000  0  9G14G31G17G 3G15G18G23G 9G26
  22432565.070   -17147534.55649 -13312812.24546  22432564.329    22432571.315
  23936512.291    -3796915.22149  -2946609.18445  23936511.509    23936520.108
  21437325.839    -3229350.99549  -2509602.68347  21437325.029    21437331.099
  22043181.811   -16743891.11949 -13030167.05047  22043181.373    22043187.401
  20251152.391   -23161298.73549 -18033050.43748  20251151.480    20251156.343
  20592202.878   -21681673.31149 -16877663.12248  20592202.245    20592205.739
  21253960.613   -14259023.40249 -11094630.89847  21253959.870    21253964.765
  24141712.549    -8135656.67649  -6119659.53645  24141712.122    24141722.145
  24388898.049     1683497.46549   1323241.28245  24388897.857    24388906.287
 03  4  2  0  3  0.0000000  0  9G14G31G17G 3G15G18G23G 9G26
  22413653.136   -17246915.75949 -13390251.91646  22413652.492    22413659.426
  23920001.315    -3883679.78849  -3014217.76545  23920000.569    23920009.188
  21445687.968    -3185407.72149  -2475361.19047  21445687.209    21445693.260
  22034360.875   -16790245.17649 -13066287.04547  22034360.440    22034366.464
  20249910.119   -23167826.70849 -18038137.14748  20249909.210    20249914.072
  20597468.181   -21654003.88549 -16856102.51348  20597467.540    20597471.029
  21261839.681   -14217618.55649 -11062367.37847  21261838.955    21261843.837
  24130973.524    -8192089.70249  -6163633.01845  24130972.985    24130982.910
  24409566.807     1792112.34949   1407876.18745  24409566.548    24409574.983
 03  4  2  0  3 30.0000000  0  8G14G31G17G 3G15G18G23G 9
  22394793.898   -17346020.74449 -13467476.35146  22394793.238    22394800.129
  23903554.383    -3970108.16849  -3081564.38445  23903553.654    23903562.325
  21454106.988    -3141165.71149  -2440886.92247  21454106.201    21454112.266
  22025636.444   -16836092.22049 -13102011.96147  22025635.990    22025641.976
  20248729.906   -23174028.64649 -18042969.80348  20248728.997    20248733.864
  20602785.520   -21626060.97849 -16834328.81048  20602784.869    20602788.348
  21269751.413   -14176042.13149 -11029970.16247  21269750.678    21269755.544
  24120299.074    -8248184.18649  -6207342.77845  24120298.295    24120308.217
 03  4  2  0  4  0.0000000  0  8G14G31G17G 3G15G18G23G 9
  22375987.855   -17444846.50849 -13544483.21846  22375987.167    22375993.998
  23887172.152    -4056197.06349  -3148646.48045  23887171.445    23887180.099
  21462583.219    -3096623.11949  -2406178.41947  21462582.423    21462588.434
  22017008.887   -16881430.10249 -13137340.12047  22017008.413    22017014.419
  20247612.078   -23179902.76349 -18047547.01348  20247611.191    20247616.041
  20608154.776   -21597845.19849 -16812342.47248  20608154.142    20608157.625
  21277695.647   -14134294.90149 -10997439.84247  21277694.918    21277699.780
  24109689.503    -8303936.53849  -6250785.91745  24109688.880    24109698.883
 03  4  2  0  4 30.0000000  0  8G14G31G17G 3G15G18G23G 9
  22357235.322   -17543391.06149 -13621270.97846  22357234.579    22357241.402
  23870854.828    -4141944.70349  -3215462.67345  23870854.171    23870862.776
  21471116.433    -3051780.79349  -2371236.37247  21471115.656    21471121.620
  22008478.448   -16926257.85349 -13172270.79247  22008477.928    22008483.891
  20246556.697   -23185448.97149 -18051868.71348  20246555.781    20246560.610
  20613575.601   -21569358.62049 -16790145.12648  20613574.949    20613578.448
  21285671.983   -14092378.91649 -10964778.03047  21285671.256    21285676.114
  24099145.639    -8359344.39049  -6293960.63145  24099145.089    24099154.894
 03  4  2  0  5  0.0000000  0  8G14G31G17G 3G15G18G23G 9
  22338537.159   -17641649.85249 -13697836.07846  22338536.374    22338543.149
  23854603.316    -4227346.38949  -3282009.29445  23854602.722    23854611.264
  21479707.241    -3006636.13449  -2336058.74347  21479706.458    21479712.356
  22000045.719   -16970571.93949 -13206801.19647  22000045.196    22000051.133
  20245564.278   -23190664.02349 -18055932.36648  20245563.368    20245568.185
  20619048.106   -21540600.38649 -16767736.10248  20619047.460    20619050.927
  21293680.585   -14050293.44449 -10931984.15047  21293679.852    21293684.735
  24088668.220    -8414402.44749  -6336862.77645  24088667.693    24088677.400
 03  4  2  0  5 30.0000000  0  8G14G31G17G 3G15G18G23G 9
  22319893.446   -17739622.03049 -13774177.84046  22319892.720    22319899.405
  23838417.768    -4312401.48349  -3348285.84245  23838417.117    23838425.628
  21488355.302    -2961190.57549  -2300646.64547  21488354.502    21488360.318
  21991710.623   -17014372.77249 -13240931.66347  21991710.116    21991716.056
  20244634.743   -23195548.75149 -18059738.62648  20244633.812    20244638.634
  20624571.701   -21511573.67749 -16745117.87648  20624571.047    20624574.514
  21301720.801   -14008041.75549 -10899060.75247  21301720.066    21301724.976
  24078257.579    -8469109.81449  -6379491.66645  24078257.100    24078266.677
 03  4  2  0  6  0.0000000  0  8G14G31G17G 3G15G18G23G 9
  22301304.820   -17837305.09449 -13850294.33646  22301304.059    22301310.678
  23822298.570    -4397107.59149  -3414290.45545  23822297.926    23822306.475
  21497060.688    -2915443.67649  -2264999.73347  21497059.885    21497065.646
  21983473.463   -17057658.91949 -13274661.07647  21983472.978    21983478.926
  20243768.228   -23200102.14449 -18063286.70448  20243767.322    20243772.145
  20630146.065   -21482279.97749 -16722291.61048  20630145.398    20630148.897
  21309792.359   -13965625.38949 -10866009.03247  21309791.608    21309796.523
  24067914.259    -8523463.65949  -6421845.08745  24067913.720    24067923.305
 03  4  2  0  6 30.0000000  0  8G14G31G17G 3G15G18G23G 9
  22282771.995   -17934694.68849 -13926182.14946  22282771.289    22282777.802
  23806246.654    -4481460.39049  -3480019.75745  23806245.969    23806254.487
  21505823.673    -2869393.87549  -2229116.79147  21505822.898    21505828.613
  21975334.910   -17100427.15349 -13307986.92147  21975334.413    21975340.339
  20242965.319   -23204321.23449 -18066574.28048  20242964.417    20242969.221
  20635771.336   -21452718.94649 -16699257.03048  20635770.673    20635774.176
  21317895.323   -13923043.99849 -10832828.71847  21317894.599    21317899.503
  24057638.928    -8577459.43449  -6463919.49445  24057638.524    24057648.136
 03  4  2  0  7  0.0000000  0  8G14G31G17G 3G15G18G23G 9
  22264295.206   -18031789.94549 -14001840.62246  22264294.510    22264300.989
  23790262.119    -4565458.89249  -3545472.98345  23790261.505    23790270.057
  21514644.083    -2823042.33349  -2192998.72447  21514643.283    21514648.989
  21967294.846   -17142677.59049 -13340909.28447  21967294.359    21967300.280
  20242225.946   -23208206.57849 -18069601.79848  20242225.039    20242229.870
  20641446.850   -21422893.61249 -16676016.50248  20641446.204    20641449.727
  21326029.146   -13880300.55349 -10799522.13647  21326028.418    21326033.299
  24047432.123    -8631095.65349  -6505713.74445  24047431.710    24047441.380
 03  4  2  0  7 30.0000000  0  8G14G31G17G 3G15G18G23G 9
  22245875.249   -18128586.58549 -14077266.39846  22245874.572    22245881.022
  23774345.777    -4649099.02049  -3610646.96345  23774345.164    23774353.590
  21523522.420    -2776386.43349  -2156643.50047  21523521.636    21523527.346
  21959353.916   -17184407.15949 -13373425.77947  21959353.426    21959359.363
  20241550.602   -23211755.56349 -18072367.21748  20241549.707    20241554.503
  20647172.799   -21392803.52749 -16652569.67748  20647172.140    20647175.655
  21334193.850   -13837394.82649 -10766089.09547  21334193.125    21334197.974
  24037294.865    -8684367.69549  -6547224.21945  24037294.338    24037304.007
 03  4  2  0  8  0.0000000  0  8G14G31G17G 3G15G18G23G 9
  22227512.144   -18225084.58649 -14152459.46846  22227511.465    22227517.920
  23758497.695    -4732380.67649  -3675541.60945  23758497.075    23758505.423
  21532458.096    -2729428.87749  -2120053.21647  21532457.320    21532463.145
  21951511.949   -17225616.75649 -13405537.10847  21951511.485    21951517.385
  20240938.958   -23214969.65449 -18074871.67348  20240938.060    20240942.842
  20652948.429   -21362452.38149 -16628919.42148  20652947.772    20652951.290
  21342388.739   -13794330.43149 -10732532.41847  21342388.002    21342392.839
  24027226.668    -8737275.20049  -6588450.62345  24027226.328    24027235.779
 03  4  2  0  8 30.0000000  0  8G14G31G17G 3G15G18G23G 9
  22209206.545   -18321280.40349 -14227417.07546  22209205.877    22209212.273
  23742718.516    -4815300.34149  -3740154.18745  23742717.889    23742726.175
  21541451.526    -2682168.20449  -2083226.74147  21541450.744    21541456.569
  21943769.321   -17266304.33949 -13437241.67247  21943768.855    21943774.700
  20240391.502   -23217846.54949 -18077113.38848  20240390.609    20240395.355
  20658773.605   -21331840.69149 -16605066.15048  20658772.959    20658776.490
  21350613.699   -13751107.79749 -10698852.44547  21350612.948    21350617.812
  24017228.736    -8789814.10549  -6629389.84445  24017228.320    24017237.803
 03  4  2  0  9  0.0000000  0  8G14G31G17G 3G15G18G23G 9
  22190959.424   -18417169.27149 -14302135.49946  22190958.730    22190965.074
  23727009.021    -4897853.39549  -3804481.08745  23727008.474    23727016.745
  21550503.030    -2634601.85149  -2046162.06747  21550502.278    21550508.227
  21936126.767   -17306466.20349 -13468536.58647  21936126.256    21936132.066
  20239908.763   -23220383.25549 -18079090.01248  20239907.853    20239912.610
  20664648.583   -21300967.50749 -16581009.11848  20664647.952    20664651.478
  21358868.976   -13707726.04349 -10665048.47647  21358868.223    21358873.103
  24007301.683    -8841979.71849  -6670038.18245  24007301.391    24007310.886
 03  4  2  0  9 30.0000000  0  8G14G31G17G 3G15G18G23G 9
  22172770.587   -18512751.38949 -14376614.89046  22172769.931    22172776.216
  23711369.325    -4980039.89849  -3868522.37245  23711368.771    23711376.979
  21559612.299    -2586732.09949  -2008860.98247  21559611.581    21559617.595
  21928584.002   -17346103.54249 -13499422.77247  21928583.517    21928589.316
  20239490.457   -23222581.19849 -18080802.67148  20239489.563    20239494.322
  20670572.565   -21269836.66449 -16556751.31248  20670571.931    20670575.472
  21367153.727   -13664189.30749 -10631123.74847  21367152.988    21367157.870
  23997445.937    -8893771.45149  -6710395.18545  23997445.675    23997455.163
 03  4  2  0 10  0.0000000  0  8G14G31G17G 3G15G18G23G 9
  22154640.654   -18608023.74849 -14450852.91946  22154640.062    22154646.291
  23695799.803    -5061857.11849  -3932275.90445  23695799.339    23695807.464
  21568779.485    -2538558.36349  -1971323.02847  21568778.725    21568784.797
  21921141.230   -17385214.85149 -13529899.07447  21921140.800    21921146.603
  20239136.857   -23224439.32949 -18082250.54748  20239135.958    20239140.723
  20676545.443   -21238449.11949 -16532293.48248  20676544.796    20676548.321
  21375467.745   -13620498.59449 -10597079.03647  21375467.012    21375471.915
  23987661.776    -8945186.10449  -6750458.38745  23987661.518    23987671.156
 03  4  2  0 10 30.0000000  0  8G14G31G17G 3G15G18G23G 9
  22136570.435   -18702982.53349 -14524846.59846  22136569.852    22136576.036
  23680301.260    -5143301.13549  -3995738.63345  23680300.939    23680308.964
  21578004.929    -2490078.51149  -1933546.53947  21578004.149    21578010.287
  21913799.231   -17423797.22549 -13559963.21247  21913798.813    21913804.600
  20238848.387   -23225955.22749 -18083431.74648  20238847.478    20238852.223
  20682567.128   -21206804.95249 -16507635.68048  20682566.487    20682569.989
  21383811.118   -13576653.83849 -10562914.28747  21383810.386    21383815.332
  23977950.428    -8996219.47049  -6790224.47945  23977950.061    23977959.529
 03  4  2  0 11  0.0000000  0  8G14G31G17G 3G15G18G23G 9
  22118560.259   -18797626.46749 -14598594.95046  22118559.610    22118565.755
  23664874.287    -5224370.48349  -4058909.41145  23664873.829    23664881.841
  21587288.404    -2441293.43149  -1895532.20947  21587287.641    21587293.824
  21906557.947   -17461850.57649 -13589615.12847  21906557.456    21906563.262
  20238625.070   -23227128.70449 -18084346.12548  20238624.162    20238628.907
  20688637.187   -21174906.39649 -16482779.65548  20688636.545    20688640.064
  21392183.344   -13532657.54449 -10528631.46147  21392182.630    21392187.539
  23968311.831    -9046869.93749  -6829692.20245  23968311.464    23968320.877
 03  4  2  0 11 30.0000000  0  8G14G31G17G 3G15G18G23G 9
  22100610.448   -18891952.51549 -14672095.58946  22100609.797    22100615.901
  23649519.071    -5305062.55349  -4121786.21145  23649518.499    23649526.482
  21596629.917    -2392203.48249  -1857280.32347  21596629.145    21596635.383
  21899417.612   -17499373.28649 -13618853.55647  21899417.109    21899422.878
  20238467.176   -23227958.53149 -18084992.72448  20238466.271    20238470.979
  20694755.500   -21142754.71549 -16457726.38948  20694754.859    20694758.326
  21400584.245   -13488510.71449 -10494231.33947  21400583.524    21400588.416
  23958746.750    -9097134.41749  -6868859.15945  23958746.425    23958755.669
 03  4  2  0 12  0.0000000  0  8G14G31G17G 3G15G18G23G 9
  22082721.134   -18985960.30049 -14745348.25046  22082720.551    22082726.650
  23634235.763    -5385376.77049  -4184368.56745  23634235.180    23634243.034
  21606029.307    -2342809.47649  -1818791.50647  21606028.538    21606034.777
  21892378.007   -17536366.09949 -13647679.08147  21892377.562    21892383.302
  20238374.482   -23228445.57149 -18085372.21748  20238373.566    20238378.290
  20700921.313   -21110353.11749 -16432478.38848  20700920.681    20700924.115
  21409013.152   -13444216.67049 -10459716.50247  21409012.429    21409017.267
  23949255.358    -9147012.02149  -6907724.64745  23949254.876    23949264.255
 03  4  2  0 12 30.0000000  0  8G14G31G17G 3G15G18G23G 9
  22064893.899   -19079642.45449 -14818347.18346  22064893.292    22064899.366
  23619025.634    -5465305.95549  -4246650.92045  23619025.120    23619032.861
  21615487.553    -2293106.14949  -1780061.67847  21615486.790    21615493.035
  21885440.478   -17572823.02249 -13676087.03747  21885440.025    21885445.772
  20238348.095   -23228584.09949 -18085480.15948  20238347.184    20238351.902
  20707135.402   -21077698.01149 -16407032.85748  20707134.769    20707138.179
  21417470.773   -13399771.72049 -10425084.08547  21417470.054    21417474.871
  23939838.862    -9196495.18149  -6946282.79645  23939838.385    23939847.814
 03  4  2  0 13  0.0000000  0  8G14G31G17G 3G15G18G23G 9
  22047128.119   -19173001.77149 -14891094.54646  22047127.471    22047133.490
  23603888.404    -5544852.69049  -4308635.27145  23603887.819    23603895.467
  21625003.765    -2243098.68349  -1741094.84947  21625002.952    21625009.199
  21878604.095   -17608748.23949 -13704080.67447  21878603.638    21878609.354
  20238387.234   -23228378.40349 -18085319.86648  20238386.307    20238391.033
  20713396.434   -21044795.99049 -16381394.91548  20713395.804    20713399.187
  21425955.837   -13355182.27149 -10390339.05947  21425955.110    21425959.938
  23930496.985    -9245586.09649  -6984535.30045  23930496.522    23930505.985
 03  4  2  0 13 30.0000000  0  8G14G31G17G 3G15G18G23G 9
  22029424.955   -19266032.17549 -14963585.62346  22029424.297    22029430.244
  23588824.983    -5624011.09149  -4370316.99745  23588824.337    23588831.885
  21634578.429    -2192783.80049  -1701888.47247  21634577.624    21634583.826
  21871869.890   -17644136.63449 -13731656.00547  21871869.460    21871875.172
  20238492.760   -23227823.77649 -18084887.67948  20238491.834    20238496.582
  20719704.936   -21011644.75849 -16355562.78148  20719704.297    20719707.669
  21434468.831   -13310446.14549 -10355479.73847  21434468.107    21434472.958
  23921231.174    -9294278.21249  -7022477.05645  23921230.647    23921239.959
 03  4  2  0 14  0.0000000  0  8G14G31G17G 3G15G18G23G 9
  22011784.349   -19358733.45249 -15035820.23247  22011783.710    22011789.587
  23573835.543    -5702780.81749  -4431695.88645  23573834.824    23573842.249
  21644211.360    -2142162.65549  -1662443.44847  21644210.555    21644216.699
  21865237.621   -17678989.11949 -13758813.74647  21865237.171    21865242.944
  20238664.441   -23226921.39749 -18084184.51648  20238663.535    20238668.276
  20726060.156   -20978247.71049 -16329539.10648  20726059.527    20726062.921
  21443008.996   -13265566.93449 -10320508.92047  21443008.274    21443013.155
  23912041.203    -9342571.19249  -7060107.81045  23912040.619    23912050.102
 03  4  2  0 14 30.0000000  0  8G14G31G17G 3G15G18G23G 9
  21994207.025   -19451102.29149 -15107795.80847  21994206.398    21994212.195
  23558920.629    -5781158.81649  -4492769.52445  23558919.890    23558927.290
  21653902.749    -2091234.45149  -1622759.16747  21653901.926    21653908.007
  21858707.772   -17713303.76149 -13785552.38947  21858707.292    21858713.035
  20238902.680   -23225669.40949 -18083208.93048  20238901.760    20238906.481
  20732462.101   -20944605.37349 -16303324.29348  20732461.446    20732464.836
  21451576.365   -13220545.19849 -10285427.05047  21451575.623    21451580.489
  23902927.902    -9390461.57349  -7097424.85445  23902927.348    23902936.770
 03  4  2  0 15  0.0000000  0  8G14G31G17G 3G15G18G23G 9
  21976693.741   -19543134.91749 -15179509.39247  21976693.052    21976698.819
  23544080.904    -5859141.26549  -4553534.92145  23544080.182    23544087.682
  21663652.755    -2039998.06849  -1582834.73547  21663651.916    21663657.981
  21852280.645   -17747078.26649 -13811870.14647  21852280.171    21852285.864
  20239207.873   -23224065.46349 -18081959.08148  20239206.959    20239211.700
  20738910.652   -20910717.90349 -16276918.46548  20738910.011    20738913.395
  21460170.843   -13175380.87449 -10250234.06747  21460170.103    21460174.946
  23893892.010    -9437945.46049  -7134425.15445  23893891.523    23893900.769
 03  4  2  0 15 30.0000000  0  8G14G31G17G 3G15G18G23G 9
  21959244.533   -19634830.56249 -15250960.39147  21959243.822    21959249.540
  23529316.606    -5936727.28349  -4613991.41345  23529316.004    23529323.546
  21673461.218    -1988454.31449  -1542670.79647  21673460.386    21673466.462
  21845956.184   -17780313.17749 -13837767.43047  21845955.740    21845961.453
  20239579.916   -23222110.31249 -18080435.56948  20239579.011    20239583.756
  20745405.419   -20876587.80149 -16250323.57848  20745404.775    20745408.162
  21468791.978   -13130076.75349 -10214932.15147  21468791.225    21468796.033
  23884933.756    -9485021.45049  -7171107.59645  23884933.216    23884942.095
 03  4  2  0 16  0.0000000  0  8G14G31G17G 3G15G18G23G 9
  21941860.473   -19726183.59649 -15322144.41847  21941859.777    21941865.486
  23514628.859    -6013911.41649  -4674134.74845  23514628.292    23514635.698
  21683328.806    -1936599.64649  -1502264.58947  21683328.004    21683334.053
  21839735.224   -17813004.22749 -13863240.92847  21839734.806    21839740.510
  20240019.564   -23219799.84849 -18078635.18748  20240018.677    20240023.392
  20751946.607   -20842213.54349 -16223538.42948  20751945.967    20751949.342
  21477440.015   -13084630.97049 -10179519.84447  21477439.248    21477444.064
  23876054.009    -9531683.65849  -7207467.61745  23876053.463    23876062.295
 03  4  2  0 16 30.0000000  0  8G14G31G17G 3G15G18G23G 9
  21924541.761   -19817193.55849 -15393061.13747  21924541.076    21924546.710
  23500017.757    -6090693.25149  -4733964.60945  23500017.197    23500024.535
  21693255.146    -1884436.49049  -1461618.00647  21693254.342    21693260.401
  21833617.676   -17845152.31449 -13888291.34247  21833617.201    21833622.915
  20240526.671   -23217134.91149 -18076558.59448  20240525.766    20240530.495
  20758533.668   -20807598.40549 -16196565.59248  20758533.027    20758536.393
  21486114.374   -13039046.86449 -10143999.76247  21486113.633    21486118.451
  23867253.157    -9577931.34149  -7243504.63045  23867252.635    23867261.456
 03  4  2  0 17  0.0000000  0  7G14G31G 3G15G18G23G 9
  21907288.039   -19907862.22649 -15463711.90147  21907287.281    21907292.908
  23485482.914    -6167074.31549  -4793482.19245  23485482.259    23485489.595
  21827602.815   -17876760.37649 -13912920.94847  21827602.355    21827608.077
  20241100.684   -23214118.41249 -18074208.05448  20241099.788    20241104.524
  20765165.605   -20772747.32049 -16169408.89448  20765164.955    20765168.326
  21494814.019   -12993329.58749 -10108375.90947  21494813.310    21494818.153
  23858531.065    -9623765.92549  -7279219.77345  23858530.663    23858539.359
 03  4  2  0 17 30.0000000  0  8G14G31G17G 3G15G18G23G 9
  21890098.033   -19998195.67149 -15534101.46247  21890097.311    21890102.823
  23471023.004    -6243061.03649  -4852692.48445  23471022.390    23471029.676
                   -369394.43859   -296888.28246                  21713285.530
  21821689.234   -17907836.04849 -13937135.71147  21821688.789    21821694.523
  20241740.031   -23210758.52849 -18071589.94448  20241739.135    20241743.865
  20771840.485   -20737670.62249 -16142076.39448  20771839.834    20771843.204
  21503537.206   -12947488.99549 -10072655.95547  21503536.481    21503541.348
  23849886.500    -9669193.37049  -7314617.62845  23849885.978    23849894.643
 03  4  2  0 18  0.0000000  0  8G14G31G17G 3G15G18G23G 9
  21872976.319   -20088170.26249 -15604211.39747  21872975.644    21872981.076
  23456642.749    -6318629.61749  -4911576.96445  23456642.025    23456649.414
  21723382.110     -316311.65049   -255525.09146  21723381.076    21723386.969
  21815881.286   -17938356.92649 -13960918.17047  21815880.860    21815886.524
  20242449.041   -23207032.79649 -18068686.75248  20242448.125    20242452.850
  20778562.163   -20702347.93949 -16114552.21548  20778561.511    20778564.847
  21512287.770   -12901504.79049 -10036824.10247  21512287.034    21512291.868
  23841323.685    -9714189.41149  -7349679.34445  23841323.156    23841331.993
 03  4  2  0 18 30.0000000  0  8G14G31G17G 3G15G18G23G 9
  21855921.218   -20177794.89149 -15674048.63947  21855920.551    21855925.896
  23442340.198    -6393789.08949  -4970142.66046  23442339.516    23442346.874
  21733541.326     -262922.07149   -213922.85447  21733540.733    21733546.663
  21810176.948   -17968333.42249 -13984276.43247  21810176.469    21810182.149
  20243225.680   -23202951.45249 -18065506.46748  20243224.767    20243229.449
  20785328.232   -20666792.19049 -16086846.42848  20785327.577    20785330.911
  21521063.202   -12855389.73949 -10000890.29047  21521062.468    21521067.276
  23832841.390    -9758763.06949  -7384411.92945  23832840.907    23832849.660
 03  4  2  0 19  0.0000000  0  8G14G31G17G 3G15G18G23G 9
  21838934.199   -20267062.23449 -15743607.48047  21838933.451    21838938.770
  23428116.914    -6468532.29449  -5028383.99346  23428116.303    23428123.636
  21743760.299     -209220.29449   -172077.34547  21743759.778    21743765.778
  21804577.288   -17997759.71149 -14007205.97047  21804576.826    21804582.490
  20244071.103   -23198508.65649 -18062044.53048  20244070.182    20244074.831
  20792139.361   -20630999.40049 -16058955.93848  20792138.712    20792142.063
  21529864.180   -12809140.26349  -9964851.74247  21529863.426    21529868.251
  23824441.140    -9802906.87549  -7418809.57445  23824440.643    23824449.372
 03  4  2  0 19 30.0000000  0  8G14G31G17G 3G15G18G23G 9
  21822016.378   -20355965.08249 -15812882.29947  21822015.693    21822020.986
  23413974.209    -6542851.82549  -5086295.18646  23413973.614    23413980.877
  21754039.849     -155201.19649   -129984.57047  21754039.262    21754045.296
  21799083.411   -18026629.98249 -14029702.23247  21799082.949    21799088.638
  20244986.461   -23193698.43349 -18058296.28948  20244985.558    20244990.187
  20798996.235   -20594966.15049 -16030878.06748  20798995.585    20798998.941
  21538691.383   -12762752.58649  -9928705.50447  21538690.645    21538695.471
  23816124.136    -9846612.99649  -7452866.14345  23816123.541    23816132.321
 03  4  2  0 20  0.0000000  0  8G14G31G17G 3G15G18G23G 9
  21805166.989   -20444508.80749 -15881877.28647  21805166.308    21805171.602
  23399911.187    -6616753.04149  -5143880.43846  23399910.569    23399917.865
  21764378.405     -100872.26249    -87650.36747  21764377.705    21764383.753
  21793694.126   -18054950.91049 -14051770.44747  21793693.670    21793699.286
  20245970.481   -23188527.48949 -18054266.96648  20245969.557    20245974.169
  20805897.168   -20558701.20049 -16002619.65848  20805896.528    20805899.894
  21547543.259   -12716235.49549  -9892458.42447  21547542.557    21547547.402
  23807889.341    -9889886.52349  -7486585.64945  23807888.812    23807897.532
 03  4  2  0 20 30.0000000  0  8G14G31G17G 3G15G18G23G 9
  21788386.183   -20532692.14949 -15950591.44847  21788385.495    21788390.773
  23385928.023    -6690234.94749  -5201138.95546  23385927.270    23385934.557
  21774775.598      -46235.09149    -45075.97046  21774774.827    21774780.884
  21788409.329   -18082722.82149 -14073410.85447  21788408.838    21788414.413
  20247023.032   -23182996.20649 -18049956.85148  20247022.118    20247026.697
  20812841.727   -20522207.26249 -15974182.81048  20812841.080    20812844.450
  21556419.382   -12669591.37149  -9856112.35547  21556418.672    21556423.484
  23799736.964    -9932726.20149  -7519967.07245  23799736.536    23799745.325
 03  4  2  0 21  0.0000000  0  8G14G31G17G 3G15G18G23G 9
  21771674.150   -20620514.05349 -16019023.97647  21771673.414    21771678.682
  23372024.843    -6763296.22249  -5258069.69345  23372024.015    23372031.268
  21785231.253        8709.72049     -2261.86746  21785230.519    21785236.557
  21783228.945   -18109945.79549 -14094623.52647  21783228.415    21783233.993
  20248144.103   -23177104.77749 -18045366.11548  20248143.192    20248147.787
  20819829.414   -20485486.52749 -15945569.24048  20819828.782    20819832.157
  21565319.244   -12622822.49849  -9819669.08747  21565318.531    21565323.300
  23791667.532    -9975130.81049  -7553009.51445  23791667.091    23791675.860
 03  4  2  0 21 30.0000000  0  8G14G31G17G 3G15G18G23G 9
  21755032.008   -20707968.36349 -16087170.06547  21755031.305    21755036.559
  23358202.663    -6835931.03449  -5314668.14145  23358201.904    23358209.131
  21795746.173       63965.77949     40794.77946  21795745.400    21795751.458
  21778153.814   -18136615.52949 -14115405.09747  21778153.288    21778158.872
  20249334.590   -23170848.52349 -18040491.09648  20249333.708    20249338.298
  20826860.747   -20448536.53649 -15916777.02748  20826860.105    20826863.473
  21574243.300   -12575926.58549  -9783126.81547  21574242.553    21574247.297
  23783682.077   -10017093.87549  -7585707.85945  23783681.699    23783690.477
 03  4  2  0 22  0.0000000  0  8G14G31G17G 3G15G18G23G 9
  21738459.616   -20795056.25549 -16155030.64047  21738458.948    21738464.131
  23344461.458    -6908140.44049  -5370935.08945  23344460.816    23344468.033
  21806319.680      119529.82949     84091.40946  21806318.899    21806324.933
  21773183.514   -18162734.56049 -14135757.55447  21773182.969    21773188.540
  20250594.078   -23164229.94149 -18035333.74848  20250593.166    20250597.769
  20833934.818   -20411361.95749 -15887809.81848  20833934.197    20833937.562
  21583190.597   -12528908.28549  -9746489.18547  21583189.849    21583194.592
  23775780.626   -10058616.23549  -7618062.80845  23775780.260    23775788.876
 03  4  2  0 22 30.0000000  0  8G14G31G17G 3G15G18G23G 9
  21721957.376   -20881775.64549 -16222604.05947  21721956.693    21721961.831
  23330801.744    -6979922.46649  -5426869.03245  23330801.102    23330808.268
  21816951.818      175402.03349    127628.16946  21816951.029    21816957.120
  21768318.131   -18188302.01349 -14155680.20947  21768317.637    21768323.187
  20251922.571   -23157248.51349 -18029893.65948  20251921.666    20251926.290
  20841051.334   -20373964.29749 -15858668.77648  20841050.731    20841054.121
  21592160.850   -12481769.12249  -9709757.38147  21592160.109    21592164.857
  23767963.379   -10099695.73449  -7650072.65145  23767962.932    23767971.575
 03  4  2  0 23  0.0000000  0  8G14G31G17G 3G15G18G23G 9
  21705526.305   -20968121.24949 -16289886.22347  21705525.587    21705530.696
  23317224.405    -7051271.86749  -5482465.85945  23317223.682    23317230.817
  21827643.161      231585.40249    171407.39046  21827642.388    21827648.503
  21763558.459   -18213314.15049 -14175170.16447  21763557.972    21763563.460
  20253320.844   -23149900.33249 -18024167.79748  20253319.968    20253324.534
  20848210.604   -20336342.02049 -15829352.71848  20848209.965    20848213.366
  21601154.483   -12434507.04949  -9672929.79847  21601153.752    21601158.522
  23760231.555   -10140326.56749  -7681732.88045  23760230.994    23760239.542
 03  4  2  0 23 30.0000000  0  8G14G31G17G 3G15G18G23G 9
  21689166.659   -21054091.35249 -16356875.78147  21689165.943    21689171.017
  23303729.693    -7122186.81349  -5537724.15845  23303728.974    23303736.045
  21838393.675      288079.32049    215428.59246  21838392.845    21838398.969
  21758904.483   -18237770.86749 -14194227.31447  21758903.994    21758909.503
  20254789.092   -23142184.72649 -18018155.62948  20254788.202    20254792.739
  20855412.317   -20298496.76349 -15799862.90748  20855411.699    20855415.095
  21610171.214   -12387123.70649  -9636007.71847  21610170.490    21610175.282
  23752585.159   -10180506.87549  -7713042.06845  23752584.699    23752593.502
 03  4  2  0 24  0.0000000  0  8G14G31G17G 3G15G18G23G 9
  21672878.729   -21139684.32449 -16423571.47547  21672878.009    21672883.069
  23290317.974    -7192665.72349  -5592642.69446  23290317.249    23290324.246
  21849203.096      344883.20949    259691.33246  21849202.312    21849208.460
  21754356.202   -18261671.91949 -14212851.48047  21754355.713    21754361.242
  20256327.300   -23134101.40249 -18011856.92648  20256326.417    20256330.947
  20862656.162   -20260430.19549 -15770200.64348  20862655.524    20862658.925
  21619210.738   -12339620.75549  -9598992.43347  21619210.012    21619214.802
  23745024.870   -10220234.77649  -7743998.73245  23745024.572    23745033.457
 03  4  2  0 24 30.0000000  0  8G14G31G17G 3G15G18G23G 9
  21656662.983   -21224897.82449 -16489971.47447  21656662.345    21656667.417
  23276989.626    -7262706.24949  -5647219.62746  23276988.956    23276995.900
  21860071.675      401997.76049    304196.14146  21860070.887    21860077.062
  21749913.866   -18285016.45749 -14231042.00647  21749913.368    21749918.901
  20257935.660   -23125649.32949 -18005270.89148  20257934.764    20257939.292
  20869941.908   -20222143.35649 -15740366.74948  20869941.270    20869944.651
  21628272.830   -12291999.16449  -9561884.70547  21628272.099    21628276.928
  23737551.499   -10259507.78349  -7774600.93845  23737551.096    23737559.781
 03  4  2  0 25  0.0000000  0  8G14G31G17G 3G15G18G23G 9
  21640520.248   -21309728.17449 -16556072.91647  21640519.570    21640524.641
  23263745.185    -7332305.05849  -5701452.37246  23263744.585    23263751.575
  21870999.562      459423.79349    348943.66946  21870998.743    21871004.901
  21745577.818   -18307802.70149 -14248797.50447  21745577.290    21745582.772
  20259614.562   -23116826.62649 -17998396.04748  20259613.661    20259618.180
  20877269.524   -20183636.39149 -15710361.32447  20877268.887    20877272.256
  21637357.457   -12244259.03849  -9524684.60747  21637356.730    21637361.588
  23730165.154   -10298322.43149  -7804845.97845  23730164.848    23730173.468
 03  4  2  0 25 30.0000000  0  8G14G31G17G 3G15G18G23G 9
  21624450.487   -21394174.86749 -16621875.40247  21624449.805    21624454.841
  23250585.126    -7401461.20349  -5755340.17846  23250584.505    23250591.464
  21881986.456      517160.14649    393933.00446  21881985.627    21881991.782
  21741347.801   -18330031.31049 -14266118.47647  21741347.299    21741352.807
  20261363.897   -23107633.83049 -17991232.81648  20261362.990    20261367.507
  20884638.538   -20144912.00049 -15680186.47947  20884637.886    20884641.300
  21646464.139   -12196403.02049  -9487394.20847  21646463.425    21646468.290
  23722866.375   -10336677.46349  -7834732.87645  23722866.002    23722874.418
 03  4  2  0 26  0.0000000  0  8G14G31G17G 3G15G18G23G 9
  21608454.234   -21478235.23749 -16687376.86347  21608453.559    21608458.546
  23237509.832    -7470172.14649  -5808881.09545  23237509.147    23237516.120
  21893032.560      575207.55849    439164.71546  21893031.720    21893037.887
  21737224.157   -18351701.10349 -14283004.01047  21737223.663    21737229.175
  20263183.849   -23098069.79649 -17983780.31148  20263182.950    20263187.478
  20892048.777   -20105970.76549 -15649842.66947  20892048.136    20892051.566
  21655592.791   -12148431.79549  -9450014.04647  21655592.076    21655596.892
  23715655.641   -10374570.10349  -7864259.51345  23715655.194    23715663.532
 03  4  2  0 26 30.0000000  0  8G14G31G17G 3G15G18G23G 9
  21592531.965   -21561906.89649 -16752575.42547  21592531.252    21592536.202
  23224519.568    -7538435.91849  -5862073.54845  23224518.890    23224525.820
  21904137.867      633566.04749    484638.83146  21904137.051    21904143.148
  21733206.827   -18372811.97949 -14299454.01447  21733206.335    21733211.919
  20265074.657   -23088133.43749 -17976037.67148  20265073.751    20265078.308
  20899500.050   -20066814.07549 -15619330.96747  20899499.408    20899502.840
  21664743.170   -12100346.45049  -9412544.94947  21664742.431    21664747.204
  23708533.231   -10411998.15849  -7893424.09845  23708532.744    23708541.004
 03  4  2  0 27  0.0000000  0  8G14G31G17G 3G15G18G23G 9
  21576684.410   -21645185.85149 -16817467.98847  21576683.673    21576688.580
  23211615.284    -7606248.12549  -5914914.14145  23211614.604    23211621.463
  21915302.710      692237.44649    530356.77546  21915301.882    21915307.942
  21729296.463   -18393360.98149 -14315466.21147  21729295.991    21729301.519
  20267036.853   -23077821.90049 -17968002.69548  20267035.953    20267040.512
  20906992.445   -20027441.20049 -15588650.81047  20906991.821    20906995.261
  21673915.434   -12052146.06249  -9374986.21147  21673914.711    21673919.453
  23701499.970   -10448957.04249  -7922223.14045  23701499.584    23701507.918
 03  4  2  0 27 30.0000000  0  8G14G31G17G 3G15G18G23G 9
  21560911.412   -21728072.56949 -16882054.91847  21560910.762    21560915.656
  23198796.671    -7673609.42749  -5967403.37445  23198796.128    23198802.973
  21926526.562      751218.96349    576316.35946  21926525.722    21926531.834
  21725492.610   -18413350.28849 -14331042.28047  21725492.125    21725497.608
  20269070.085   -23067137.19349 -17959676.93248  20269069.175    20269073.731
  20914525.254   -19987856.09949 -15557805.27247  20914524.636    20914528.088
  21683108.783   -12003834.50149  -9337340.84547  21683108.077    21683112.824
  23694556.092   -10485447.02549  -7950656.77545  23694555.760    23694563.988
 03  4  2  0 28  0.0000000  0  8G14G31G17G 3G15G18G23G 9
  21545214.086   -21810562.23349 -16946332.46347  21545213.429    21545218.259
  23186064.869    -7740515.11049  -6019537.60845  23186064.312    23186071.116
  21937809.816      810512.92749    622519.39946  21937808.981    21937815.158
  21721795.856   -18432776.63149 -14346179.67647  21721795.384    21721800.880
  20271174.962   -23056075.92349 -17951057.74948  20271174.068    20271178.637
  20922098.777   -19948057.14049 -15526793.09747  20922098.133    20922101.573
  21692323.615   -11955410.26949  -9299607.68647  21692322.897    21692327.671
  23687702.608   -10521463.34849  -7978721.33745  23687702.095    23687710.012
 03  4  2  0 28 30.0000000  0  8G14G31G17G 3G15G18G23G 9
  21529591.848   -21892657.47349 -17010302.65547  21529591.154    21529595.945
  23173419.217    -7806967.91249  -6071318.92645  23173418.677    23173425.502
  21949151.714      870114.86549    668962.43346  21949150.859    21949157.035
  21718205.433   -18451644.15049 -14360881.60547  21718205.000    21718210.519
  20273350.764   -23044642.00349 -17942148.18248  20273349.872    20273354.433
  20929711.772   -19908050.63149 -15495619.18347  20929711.113    20929714.545
  21701558.683   -11906879.22649  -9261791.28547  21701557.974    21701562.822
  23680938.118   -10557008.59949  -8006418.82145  23680937.708    23680945.738
 03  4  2  0 29  0.0000000  0  8G14G31G17G 3G15G18G23G 9
  21514045.780   -21974352.11749 -17073960.70747  21514045.077    21514049.858
  23160861.068    -7872961.37049  -6122742.30846  23160860.490    23160867.309
  21960552.986      930029.19949    715648.88646  21960552.166    21960558.346
  21714722.278   -18469948.09149 -14375144.39247  21714721.841    21714727.380
  20275598.446   -23032830.27949 -17932944.23148  20275597.546    20275602.101
  20937364.865   -19867833.31849 -15464281.02347  20937364.214    20937367.641
  21710814.817   -11858238.11749  -9223889.13147  21710814.086    21710818.941
  23674264.954   -10592076.11249  -8033744.05045  23674264.617    23674272.655
 03  4  2  0 29 30.0000000  0  8G14G31G17G 3G15G18G23G 9
  21498576.232   -22055644.15149 -17137305.03147  21498575.616    21498580.355
  23148390.632    -7938493.74549  -6173806.41946  23148390.044    23148396.882
  21972013.612      990255.17149    762578.17446  21972012.822    21972018.998
  21711346.360   -18487688.66649 -14388968.18847  21711345.898    21711351.413
  20277918.145   -23020640.27749 -17923445.50848  20277917.230    20277921.767
  20945057.744   -19827406.98649 -15432779.98147  20945057.089    20945060.510
  21720091.574   -11809488.45049  -9185902.37447  21720090.834    21720095.667
  23667683.158   -10626663.85849  -8060695.42745  23667682.754    23667690.631
 03  4  2  0 30  0.0000000  0  8G14G31G17G 3G15G18G23G 9
  21483183.457   -22136533.32549 -17200335.45547  21483182.792    21483187.526
  23136008.033    -8003564.84449  -6224511.09546  23136007.316    23136014.170
  21983533.209     1050790.91149    809748.83646  21983532.407    21983538.643
  21708077.400   -18504867.22449 -14402354.05747  21708076.941    21708082.406
  20280309.603   -23008072.87249 -17913652.71148  20280308.714    20280313.229
  20952789.873   -19786774.32949 -15401118.17047  20952789.246    20952792.656
  21729388.502   -11760632.82549  -9147833.06347  21729387.748    21729392.612
  23661192.806   -10660771.41349  -8087272.63645  23661192.268    23661200.175
 03  4  2  0 30 30.0000000  0  8G14G31G17G 3G15G18G23G 9
  21467867.728   -22217017.71049 -17263050.44847  21467867.045    21467871.752
  23123713.541    -8068172.75949  -6274854.84546  23123712.827    23123719.579
  21995111.771     1111636.86749    857161.22746  21995110.962    21995117.221
  21704915.456   -18521483.13049 -14415301.48647  21704915.010    21704920.471
  20282773.027   -22995127.44149 -17903565.34848  20282772.109    20282776.632
  20960560.998   -19745936.69749 -15369296.63347  20960560.366    20960563.774
  21738705.295   -11711672.70649  -9109682.31847  21738704.538    21738709.424
  23654793.834   -10694396.72349  -8113474.06345  23654793.438    23654801.378
 03  4  2  0 31  0.0000000  0  8G14G31G17G 3G15G18G23G 9
  21452630.268   -22297090.95049 -17325445.07447  21452629.524    21452634.180
  23111508.352    -8132311.19649  -6324832.76846  23111507.636    23111514.368
  22006750.109     1172796.93249    904818.38146  22006749.304    22006755.597
  21701861.402   -18537532.02849 -14427807.08547  21701860.935    21701866.440
  20285309.242   -22981799.31249 -17893179.77948  20285308.343    20285312.851
  20968371.730   -19704891.06249 -15337313.01147  20968371.099    20968374.512
  21748042.574   -11662605.04649  -9071447.78047  21748041.844    21748046.733
  23648488.083   -10727533.42249  -8139294.74645  23648487.633    23648495.548
 03  4  2  0 31 30.0000000  0  8G14G31G17G 3G15G18G23G 9
  21437470.394   -22376756.04349 -17387521.66247  21437469.669    21437474.301
  23099391.978    -8195983.07949  -6374447.15046  23099391.274    23099397.974
  22018447.251     1234265.96649    952716.29146  22018446.487    22018452.732
  21698914.444   -18553018.29849 -14439874.27147  21698913.994    21698919.510
  20287917.535   -22968092.56549 -17882499.18648  20287916.638    20287921.143
  20976220.824   -19663643.63249 -15305172.14647  20976220.195    20976223.608
  21757399.202   -11613435.76549  -9033134.05447  21757398.486    21757403.370
  23642274.770   -10760184.25249  -8164736.83645  23642274.255    23642282.173
 03  4  2  0 32  0.0000000  0  8G14G31G17G 3G15G18G23G 9
  21422389.329   -22456007.00349 -17449275.56047  21422388.619    21422393.239
  23087365.405    -8259182.52549  -6423693.39946  23087364.750    23087371.446
  22030204.052     1296047.99449   1000858.08046  22030203.267    22030209.503
  21696075.390   -18567937.74649 -14451499.79847  21696074.940    21696080.399
  20290598.756   -22954002.44649 -17871519.87548  20290597.861    20290602.407
  20984108.846   -19622191.84449 -15272872.05647  20984108.214    20984111.621
  21766775.724   -11564161.98949  -8994738.91647  21766775.015    21766779.853
  23636154.710   -10792343.24549  -8189795.67345  23636154.301    23636162.300
 03  4  2  0 32 30.0000000  0  8G14G31G17G 3G15G18G23G 9
  21407386.645   -22534846.04149 -17510708.46747  21407385.965    21407390.555
  23075428.368    -8321911.87749  -6472573.34646  23075427.684    23075434.329
  22042019.422     1358138.16149   1049239.99946  22042018.608    22042024.920
  21693343.367   -18582294.35449 -14462686.72947  21693342.911    21693348.341
  20293352.299   -22939532.44549 -17860244.53748  20293351.385    20293355.941
  20992034.717   -19580541.07949 -15240416.91547  20992034.087    20992037.479
  21776171.076   -11514789.09249  -8956266.53447  21776170.341    21776175.215
  23630128.283   -10824012.78149  -8214473.11645  23630127.803    23630135.546
 03  4  2  0 33  0.0000000  0  8G14G31G17G 3G15G18G23G 9
  21392463.642   -22613266.55449 -17571815.25547  21392462.986    21392467.560
  23063581.946    -8384164.44849  -6521081.76846  23063581.315    23063587.906
  22053894.359     1420541.44249   1097865.88446  22053893.587    22053899.920
  21690719.350   -18596083.17249 -14473431.22847  21690718.908    21690724.397
  20296179.130   -22924677.28949 -17848669.08448  20296178.248    20296182.770
  20999999.217   -19538687.74449 -15207803.92847  20999998.583    21000001.955
  21785585.928   -11465313.35349  -8917714.01447  21785585.213    21785590.132
  23624196.070   -10855185.80949  -8238763.67045  23624195.600    23624203.354
 03  4  2  0 33 30.0000000  0  8G14G31G17G 3G15G18G23G 9
  21377620.141   -22691269.07849 -17632596.34247  21377619.492    21377624.100
  23051826.247    -8445940.82149  -6569219.13446  23051825.594    23051832.134
  22065828.355     1483254.97849   1146733.53946  22065827.546    22065833.883
  21688203.068   -18609306.11049 -14483734.78947  21688202.640    21688208.124
  20299078.956   -22909438.61849 -17836794.79648  20299078.071    20299082.567
  21008001.487   -19496635.54849 -15175035.98547  21008000.834    21008004.198
  21795019.694   -11415738.45449  -8879084.23847  21795018.962    21795023.880
  23618358.361   -10885862.49249  -8262667.47645  23618357.902    23618365.615
 03  4  2  0 34  0.0000000  0  8G14G31G17G 3G15G18G23G 9
  21362856.691   -22768850.96949 -17693049.66847  21362856.073    21362860.652
  23040161.719    -8507238.43549  -6616983.43946  23040160.989    23040167.562
  22077821.479     1546279.37749   1195843.40146  22077820.733    22077827.043
  21685794.638   -18621962.68749 -14493597.03747  21685794.167    21685799.624
  20302052.000   -22893815.20549 -17824620.70848  20302051.103    20302055.613
  21016041.465   -19454385.07749 -15142113.54347  21016040.808    21016044.221
  21804472.308   -11366064.76449  -8840377.48347  21804471.568    21804476.431
  23612615.427   -10916040.34449  -8286182.58545  23612615.027    23612622.855
 03  4  2  0 34 30.0000000  0  8G14G31G17G 3G15G18G23G 9
  21348173.783   -22846009.86649 -17753173.38547  21348173.127    21348177.681
  23028588.551    -8568054.88749  -6664372.82246  23028587.911    23028594.505
  22089873.866     1609614.94849   1245195.74846  22089873.119    22089879.420
  21683494.122   -18634052.17349 -14503017.39547  21683493.620    21683499.050
  20305098.495   -22877805.68349 -17812145.75748  20305097.613    20305102.096
  21024118.996   -19411937.04749 -15109037.16347  21024118.346    21024121.786
  21813943.634   -11316292.83249  -8801594.17647  21813942.911    21813947.756
  23606968.009   -10945716.85149  -8309307.02545  23606967.705    23606975.439
 03  4  2  0 35  0.0000000  0  8G14G31G17G 3G15G18G23G 9
  21333571.648   -22922744.45949 -17812966.48147  21333570.956    21333575.478
  23017107.368    -8628388.96649  -6711386.32946  23017106.689    23017113.247
  22101985.393     1673261.07949   1294790.08346  22101984.664    22101990.933
  21681301.368   -18645575.04449 -14511996.23347  21681300.858    21681306.332
  20308218.497   -22861410.17449 -17799370.03548  20308217.594    20308222.090
  21032233.816   -19369293.24549 -15075808.23147  21032233.188    21032236.600
  21823433.264   -11266424.41749  -8762735.68747  21823432.532    21823437.395
  23601416.542   -10974890.68949  -8332039.75845  23601416.051    23601423.832
 03  4  2  0 35 30.0000000  0  8G14G31G17G 3G15G18G23G 9
  21319050.347   -22999053.79649 -17872428.20747  21319049.699    21319054.197
  23005718.040    -8688239.72449  -6758023.21046  23005717.433    23005723.958
  22114155.751     1737216.21849   1344625.20846  22114155.019    22114161.260
  21679216.222   -18656532.02049 -14520534.11447  21679215.791    21679221.279
  20311411.861   -22844628.83049 -17786293.66348  20311410.963    20311415.471
  21040385.566   -19326455.70349 -15042428.33447  21040384.925    21040388.310
  21832940.923   -11216461.27349  -8723803.38447  21832940.210    21832945.092
  23595960.451   -11003560.63049  -8354379.88145  23595960.147    23595967.950
 03  4  2  0 36  0.0000000  0  8G14G31G17G 3G15G18G23G 9
  21304610.963   -23074933.07849 -17931554.82447  21304610.275    21304614.744
  22994421.686    -8747602.54449  -6804279.88346  22994421.004    22994427.487
  22126385.569     1801483.51349   1394703.57346  22126384.782    22126390.999
  21677239.489   -18666920.27149 -14528628.84147  21677238.990    21677244.418
  20314679.291   -22827458.35549 -17772914.07048  20314678.391    20314682.927
  21048574.465   -19283423.01549 -15008896.37047  21048573.806    21048577.183
  21842466.949   -11166401.83849  -8684796.04347  21842466.245    21842471.103
  23590601.757   -11031722.06249  -8376323.74245  23590601.307    23590608.848
 03  4  2  0 36 30.0000000  0  8G14G31G17G 3G15G18G23G 9
  21290252.990   -23150384.12549 -17990347.75647  21290252.335    21290256.782
  22983217.785    -8806479.11449  -6850157.67046  22983217.190    22983223.642
  22138673.973     1866059.15249   1445022.20546  22138673.195    22138679.366
  21675370.212   -18676743.23449 -14536283.08547  21675369.734    21675375.149
  20318020.208   -22809901.58749 -17759233.47148  20318019.318    20318023.843
  21056799.562   -19240199.73449 -14975215.89647  21056798.901    21056802.286
  21852010.490   -11116250.57549  -8645717.15447  21852009.768    21852014.593
  23585339.226   -11059376.66849  -8397872.66945  23585338.740    23585346.704
 03  4  2  0 37  0.0000000  0  8G14G31G17G 3G15G18G23G 9
  21275977.539   -23225401.61349 -18048802.85147  21275976.908    21275981.323
  22972107.401    -8864864.29849  -6895652.55046  22972106.791    22972113.265
  22151021.624     1930946.15849   1495583.45146  22151020.787    22151027.037
  21673609.143   -18685997.41749 -14543494.12447  21673608.713    21673614.115
  20321435.460   -22791954.46449 -17745248.69848  20321434.564    20321439.118
  21065061.350   -19196783.76949 -14941385.27947  21065060.702    21065064.090
  21861571.875   -11066005.29349  -8606564.99647  21861571.129    21861575.990
  23580173.728   -11086519.12649  -8419022.51545  23580173.456    23580181.457
 03  4  2  0 37 30.0000000  0  8G14G31G17G 3G15G18G23G 9
  21261785.155   -23299982.86149 -18106918.02247  21261784.483    21261788.904
  22961090.972    -8922755.51049  -6940762.51846  22961090.408    22961096.838
  22163428.565     1996144.86149   1546387.59346  22163427.738    22163434.053
  21671956.540   -18694681.96549 -14550261.28847  21671956.097    21671961.523
  20324925.218   -22773615.62849 -17730958.69548  20324924.308    20324928.868
  21073359.781   -19153175.42649 -14907404.76347  21073359.137    21073362.474
  21871151.056   -11015666.20249  -8567339.73947  21871150.328    21871155.218
  23575106.681   -11113146.72949  -8439771.22445  23575106.374    23575114.284
 03  4  2  0 38  0.0000000  0  8G14G31G17G 3G15G18G23G 9
  21247675.242   -23374130.56349 -18164695.35847  21247674.561    21247678.970
  22950168.088    -8980155.49749  -6985489.69846  22950167.460    22950173.982
  22175894.026     2061650.77749   1597431.09946  22175893.179    22175899.481
  21670411.473   -18702801.42149 -14556588.12547  21670411.017    21670416.401
  20328488.832   -22754888.63249 -17716366.22348  20328487.911    20328492.462
  21081693.709   -19109380.37449 -14873278.75347  21081693.048    21081696.387
  21880747.104   -10965238.59849  -8528045.51447  21880746.365    21880751.282
  23570137.079   -11139262.12849  -8460120.80445  23570136.813    23570144.451
 03  4  2  0 38 30.0000000  0  8G14G31G17G 3G15G18G23G 9
  21233648.794   -23447839.69949 -18222130.95747  21233648.131    21233652.487
  22939339.573    -9037059.13249  -7029830.11446  22939338.986    22939345.472
  22188418.484     2127466.80649   1648716.25646  22188417.618    22188423.948
  21668974.580   -18710352.41549 -14562472.00247  21668974.121    21668979.460
  20332126.968   -22735769.96549 -17701468.54848  20332126.072    20332130.618
  21090063.513   -19065396.52549 -14839005.62547  21090062.883    21090066.226
  21890360.453   -10914720.11749  -8488680.47047  21890359.729    21890364.644
  23565266.169   -11164860.09249  -8480067.16545  23565265.796    23565273.150
 03  4  2  0 39  0.0000000  0  8G14G31G17G 3G15G18G23G 9
  21219705.913   -23521109.46249 -18279224.18847  21219705.274    21219709.575
  22928605.715    -9093465.85449  -7073783.32346  22928605.097    22928611.575
  22201001.717     2193591.91849   1700242.26346  22201000.897    22201007.235
  21667645.606   -18717336.18949 -14567913.89647  21667645.141    21667650.474
  20335839.547   -22716260.14149 -17686266.08248  20335838.672    20335843.196
  21098468.807   -19021226.28549 -14804587.26447  21098468.194    21098471.538
  21899990.680   -10864113.08949  -8449246.43347  21899989.962    21899994.852
  23560493.826   -11189939.88749  -8499609.78445  23560493.350    23560500.446
 03  4  2  0 39 30.0000000  0  8G14G31G17G 3G15G18G23G 9
  21205847.325   -23593936.36549 -18335972.33347  21205846.688    21205850.981
  22917967.181    -9149372.09049  -7117346.54846  22917966.482    22917972.940
  22213644.067     2260027.52049   1752010.21046  22213643.245    22213649.653
  21666424.957   -18723750.79149 -14572912.27247  21666424.496    21666429.832
  20339627.026   -22696356.81649 -17670756.98448  20339626.150    20339630.669
  21106909.743   -18976868.79249 -14770022.98647  21106909.131    21106912.495
  21909637.916   -10813416.54949  -8409742.63747  21909637.194    21909642.070
  23555820.300   -11214497.97849  -8518745.86445  23555819.895    23555827.035
 03  4  2  0 40  0.0000000  0  8G14G31G17G 3G15G18G23G 9
  21192073.098   -23666319.90949 -18392375.00347  21192072.484    21192076.755
  22907423.793    -9204777.52349  -7160519.52746  22907423.121    22907429.572
  22226345.109     2326771.58849   1804018.52746  22226344.302    22226350.649
  21665312.299   -18729598.02249 -14577468.53947  21665311.807    21665317.118
  20343489.253   -22676060.72649 -17654941.83448  20343488.366    20343492.875
  21115385.900   -18932326.58849 -14735314.77547  21115385.283    21115388.647
  21919301.717   -10762632.99849  -8370171.04347  21919300.984    21919305.844
  23551246.303   -11238533.90149  -8537475.06945  23551245.912    23551253.155
 03  4  2  0 40 30.0000000  0  8G14G31G17G 3G15G18G23G 9
  21178383.970   -23738256.59549 -18448429.47347  21178383.340    21178387.567
  22896976.438    -9259678.69749  -7203299.59246  22896975.764    22896982.186
  22239105.092     2393825.53449   1856268.29346  22239104.279    22239110.658
  21664307.931   -18734875.82749 -14581581.10247  21664307.462    21664312.748
  20347426.680   -22655369.39249 -17638818.70148  20347425.790    20347430.297
  21123897.295   -18887599.01849 -14700462.13347  21123896.651    21123899.983
  21928982.258   -10711761.48849  -8330530.91247  21928981.532    21928986.380
  23546772.379   -11262044.30449  -8555794.78645  23546771.989    23546779.275
 03  4  2  0 41  0.0000000  0  8G14G31G17G 3G15G18G23G 9
  21164779.718   -23809747.11049 -18504136.27547  21164779.069    21164783.280
  22886624.818    -9314076.33849  -7245687.28546  22886624.210    22886630.544
  22251923.556     2461186.92849   1908757.63546  22251922.724    22251929.151
  21663411.461   -18739586.83749 -14585252.00547  21663410.953    21663416.267
  20351438.983   -22634284.66349 -17622389.02648  20351438.083    20351442.590
  21132443.275   -18842689.69949 -14665467.86447  21132442.624    21132445.943
  21938678.937   -10660805.41649  -8290824.88847  21938678.189    21938683.007
  23542398.382   -11285029.69149  -8573705.38645  23542397.987    23542405.253
 03  4  2  0 41 30.0000000  0  8G14G31G17G 3G15G18G23G 9
  21151261.212   -23880786.96749 -18559491.92047  21151260.577    21151264.780
  22876369.890    -9367965.93449  -7287679.10546  22876369.309    22876375.582
  22264801.027     2528858.53749   1961488.70746  22264800.230    22264806.707
  21662623.324   -18743728.34649 -14588479.14647  21662622.818    21662628.137
  20355526.789   -22612803.11949 -17605650.14748  20355525.883    20355530.386
  21141024.189   -18797596.77049 -14630330.52547  21141023.544    21141026.863
  21948392.046   -10609762.85949  -8251051.47147  21948391.275    21948396.076
  23538125.165   -11307485.42349  -8591203.28845  23538124.905    23538132.118
 03  4  2  0 42  0.0000000  0  8G14G31G17G 3G15G18G23G 9
  21137827.928   -23951378.74949 -18614498.41147  21137827.317    21137831.512
  22866211.165    -9421350.31149  -7329277.23646  22866210.562    22866216.804
  22277736.585     2596835.41749   2014457.64446  22277735.834    22277742.335
  21661942.698   -18747304.94049 -14591266.08347  21661942.200    21661947.525
  20359689.323   -22590928.68449 -17588605.11648  20359688.431    20359692.950
  21149638.924   -18752325.82249 -14595054.45647  21149638.310    21149641.618
  21958120.533   -10558639.24349  -8211214.89147  21958119.760    21958124.544
  23533952.377   -11329414.25949  -8608290.58845  23533951.944    23533959.152
 03  4  2  0 42 30.0000000  0  8G14G31G17G 3G15G18G23G 9
  21124481.099   -24021516.42049 -18669151.06347  21124480.487    21124484.656
  22856149.702    -9474223.30449  -7370476.89146  22856149.067    22856155.246
  22290731.014     2665121.40949   2067667.45046  22290730.248    22290736.778
  21661370.369   -18750312.28349 -14593609.46247  21661369.896    21661375.261
  20363927.607   -22568656.26849 -17571249.98148  20363926.717    20363931.276
  21158288.171   -18706873.72649 -14559637.24047  21158287.542    21158290.895
  21967865.161   -10507430.98249  -8171312.36347  21967864.404    21967869.215
  23529880.739   -11350810.17849  -8624962.65745  23529880.353    23529887.407
 03  4  2  0 43  0.0000000  0  8G14G31G17G 3G15G18G23G 9
  21111221.110   -24091198.09149 -18723448.38347  21111220.477    21111224.601
  22846185.889    -9526583.25049  -7411276.76346  22846185.145    22846191.409
  22303784.353     2733716.82449   2121118.35446  22303783.562    22303790.083
  21660906.277   -18752750.88849 -14595509.66347  21660905.837    21660911.200
  20368241.735   -22545985.29449 -17553584.27348  20368240.830    20368245.391
  21166971.772   -18661241.20149 -14524079.42347  21166971.131    21166974.497
  21977625.726   -10456138.67949  -8131344.33747  21977624.987    21977629.818
  23525910.847   -11371671.41749  -8641218.08445  23525910.481    23525917.451
 03  4  2  0 43 30.0000000  0  8G14G31G17G 3G15G18G23G 9
  21098047.785   -24160423.92949 -18777390.51047  21098047.166    21098051.270
  22836319.548    -9578430.43949  -7451677.08246  22836318.876    22836325.198
  22316896.169     2802619.58949   2174808.76046  22316895.384    22316901.880
  21660550.106   -18754622.63249 -14596968.15747  21660549.654    21660555.017
  20372631.454   -22522917.17649 -17535609.11048  20372630.541    20372635.122
  21175689.071   -18615431.38649 -14488383.46147  21175688.426    21175691.817
  21987401.750   -10404765.33349  -8091313.17447  21987400.989    21987405.891
  23522042.639   -11391998.26449  -8657057.11145  23522042.369    23522049.221
 03  4  2  0 44  0.0000000  0  8G14G31G17G 3G15G18G23G 9
  21084961.371   -24229193.04749 -18830976.75247  21084960.766    21084964.843
  22826551.022    -9629763.84949  -7491677.04846  22826550.348    22826556.763
  22330066.264     2871828.51349   2228737.72646  22330065.417    22330071.998
  21660301.670   -18755928.14149 -14597985.42747  21660301.176    21660306.565
  20377096.724   -22499451.86149 -17517324.44448  20377095.810    20377100.398
  21184439.819   -18569445.65149 -14452550.42547  21184439.198    21184442.602
  21997192.910   -10353312.40849  -8051219.99647  21997192.141    21997197.114
  23518276.348   -11411789.60149  -8672478.84345  23518276.067    23518282.866
 03  4  2  0 44 30.0000000  0  8G14G31G17G 3G15G18G23G 9
  21071962.836   -24297500.82549 -18884203.51347  21071962.194    21071966.265
  22816881.040    -9680579.24249  -7531273.38946  22816880.403    22816886.799
  22343294.837     2941345.51449   2282906.76046  22343294.009    22343300.701
  21660161.366   -18756665.23949 -14598559.78747  21660160.913    21660166.288
  20381638.175   -22475586.21349 -17498727.83748  20381637.276    20381641.838
  21193224.343   -18523282.67449 -14416579.28347  21193223.717    21193227.124
  22006999.504   -10301778.09449  -8011063.40147  22006998.782    22007003.775
  23514612.770   -11431041.19349  -8687480.00145  23514612.513    23514619.478
 03  4  2  0 45  0.0000000  0  8G14G31G17G 3G15G18G23G 9
  21059051.923   -24365348.03549 -18937071.38647  21059051.232    21059055.294
  22807309.682    -9730877.16349  -7570466.48846  22807309.009    22807315.386
  22356581.704     3011168.54849   2337314.25446  22356580.911    22356587.668
  21660128.855   -18756836.18349 -14598692.98447  21660128.395    21660133.769
  20386255.529   -22451321.82449 -17479820.52348  20386254.640    20386259.167
  21202042.037   -18476945.62749 -14380472.49447  21202041.412    21202044.781
  22016821.082   -10250165.22449  -7970845.59247  22016820.372    22016825.324
  23511051.798   -11449753.68249  -8702061.08645  23511051.578    23511058.648
 03  4  2  0 45 30.0000000  0  8G14G31G17G 3G15G18G23G 9
  21046229.236   -24432731.14849 -18989577.63247  21046228.579    21046232.634
  22797837.342    -9780654.27949  -7609253.78346  22797836.736    22797843.024
  22369927.130     3081298.86349   2391961.19546  22369926.352    22369933.110
  21660204.363   -18756439.45249 -14598383.83747  21660203.883    21660209.236
  20390949.214   -22426656.33049 -17460600.66148  20390948.340    20390952.838
  21210893.006   -18430433.62949 -14344229.37847  21210892.385    21210895.740
  22026657.849   -10198472.91849  -7930565.89047  22026657.123    22026662.040
  23507594.101   -11467923.45749  -8716219.27545  23507593.822    23507600.996
 03  4  2  0 46  0.0000000  0  8G14G31G17G 3G15G18G23G 9
  21033494.823   -24499650.74649 -19041722.69347  21033494.165    21033498.179
  22788464.101    -9829911.21249  -7647635.74246  22788463.455    22788469.658
  22383330.584     3151734.13749   2446845.74546  22383329.763    22383336.576
  21660387.371   -18755477.91149 -14597634.57447  21660386.856    21660392.212
  20395718.857   -22401591.57749 -17441069.68748  20395717.988    20395722.494
  21219776.611   -18383750.03249 -14307852.55947  21219775.985    21219779.327
  22036509.142   -10146704.20349  -7890226.65347  22036508.432    22036513.313
  23504239.608   -11485551.08149  -8729955.02145  23504239.314    23504246.395
 03  4  2  0 46 30.0000000  0  8G14G31G17G 3G15G18G23G 9
  21020848.983   -24566104.83249 -19093505.02047  21020848.320    21020852.281
  22779190.091    -9878646.19849  -7685610.98346  22779189.425    22779195.551
  22396791.935     3222474.06549   2501967.70346  22396791.144    22396797.984
  21660677.838   -18753951.47549 -14596445.13747  21660677.335    21660682.673
  20400564.695   -22376126.63349 -17421226.87248  20400563.843    20400568.326
  21228692.726   -18336895.55649 -14271342.58347  21228692.092    21228695.426
  22046374.852   -10094859.69549  -7849828.35647  22046374.113    22046378.999
  23500988.534   -11502634.86149  -8743266.96945  23500988.255    23500995.330
 03  4  2  0 47  0.0000000  0  8G14G31G17G 3G15G18G23G 9
  21008292.607   -24632088.83149 -19144921.05347  21008291.942    21008295.881
  22770016.281    -9926854.60349  -7723175.91846  22770015.656    22770021.701
  22410311.953     3293521.69949   2557329.43346  22410311.125    22410318.001
  21661076.277   -18751857.28549 -14594813.30347  21661075.809    21661081.146
  20405487.322   -22350258.15349 -17401069.62148  20405486.446    20405490.933
  21237641.810   -18289868.09849 -14234697.82847  21237641.177    21237644.475
  22056255.420   -10042937.19349  -7809369.28447  22056254.672    22056259.542
  23497841.820   -11519170.23149  -8756151.59245  23497841.443    23497848.670
 03  4  2  0 47 30.0000000  0  8G14G31G17G 3G15G18G23G 9
  20995825.295   -24697604.48849 -19195972.14247  20995824.643    20995828.563
  22760942.309    -9974538.46749  -7760332.11346  22760941.648    22760947.729
  22423889.511     3364872.60849   2612927.46746  22423888.725    22423895.689
  21661582.127   -18749199.14949 -14592742.02247  21661581.649    21661586.973
  20410486.216   -22323988.91849 -17380600.09048  20410485.315    20410489.810
  21246622.937   -18242671.96949 -14197921.63647  21246622.289    21246625.587
  22066150.022    -9990940.82749  -7768852.66347  22066149.283    22066154.120
  23494799.278   -11535158.93649  -8768610.26445  23494798.969    23494805.960
 03  4  2  0 48  0.0000000  0  8G14G31G17G 3G15G18G23G 9
  20983447.823   -24762648.32949 -19246655.58347  20983447.152    20983451.059
  22751968.711   -10021694.37649  -7797076.92546  22751968.100    22751974.205
  22437525.270     3436529.00449   2668763.55646  22437524.525    22437531.568
  21662195.578   -18745975.43449 -14590230.03247  21662195.104    21662200.438
  20415561.827   -22297316.51549 -17359816.40748  20415560.921    20415565.406
  21255636.227   -18195306.44649 -14161013.44647  21255635.590    21255638.934
  22076058.895    -9938869.38549  -7728277.53947  22076058.163    22076063.012
  23491861.373   -11550597.91749  -8780640.58245  23491860.963    23491867.889
 03  4  2  0 48 30.0000000  0  8G14G31G17G 3G15G18G23G 9
  20971160.480   -24827218.80449 -19296970.16847  20971159.778    20971163.650
  22743096.066   -10068320.67349  -7833409.05946  22743095.453    22743101.423
  22451219.202     3508490.38449   2724837.28146  22451218.385    22451225.413
  21662916.527   -18742186.63049 -14587277.72247  21662916.065    21662921.396
  20420714.243   -22270240.29949 -17338718.06448  20420713.314    20420717.847
  21264681.719   -18147772.02349 -14123973.65647  21264681.078    21264684.450
  22085981.945    -9886723.39449  -7687644.32147  22085981.203    22085986.091
  23489028.449   -11565485.44949  -8792241.19545  23489028.034    23489034.826
 03  4  2  0 49  0.0000000  0  8G14G31G17G 3G15G18G23G 9
  20958962.841   -24891317.41549 -19346917.06547  20958962.153    20958965.997
  22734323.868   -10114418.77449  -7869329.60846  22734323.215    22734329.184
  22464970.496     3580753.57249   2781146.18646  22464969.725    22464976.726
  21663744.402   -18737836.01349 -14583887.62547  21663743.972    21663749.295
  20425943.109   -22242762.57049 -17317306.84548  20425942.204    20425946.722
  21273758.514   -18100073.08349 -14086805.66547  21273757.854    21273761.240
  22095918.444    -9834506.53449  -7646955.87047  22095917.685    22095922.655
  23486300.220   -11579822.87849  -8803413.16245  23486299.793    23486306.520
 03  4  2  0 49 30.0000000  0  8G14G31G17G 3G15G18G23G 9
  20946855.848   -24954939.75549 -19396492.84647  20946855.184    20946859.016
  22725652.823   -10159984.89149  -7904835.63646  22725652.239    22725658.167
  22478779.621     3653320.52149   2837691.77346  22478778.855    22478785.860
  21664679.612   -18732921.71749 -14580058.30947  21664679.124    21664684.435
  20431248.860   -22214880.74049 -17295580.75148  20431247.951    20431252.437
  21282867.041   -18052207.55849 -14049507.87147  21282866.378    21282869.756
  22105868.766    -9782217.26649  -7606211.01047  22105868.006    22105873.011
  23483677.206   -11593606.64349  -8814153.70845  23483676.799    23483683.456
 03  4  2  0 50  0.0000000  0  8G14G31G17G 3G15G18G23G 9
  20934839.557   -25018085.15749 -19445696.98747  20934838.913    20934842.738
  22717083.221   -10205018.20549  -7939926.49646  22717082.651    22717088.560
  22492646.388     3726190.27649   2894473.32646  22492645.585    22492652.612
  21665721.843   -18727444.78749 -14575790.58047  21665721.343    21665726.654
  20436631.563   -22186594.65549 -17273539.65348  20436630.635    20436635.135
  21292006.912   -18004177.19749 -14012081.63747  21292006.271    21292009.664
  22115832.635    -9729856.89949  -7565410.75147  22115831.878    22115836.882
  23481159.803   -11606835.48449  -8824461.84745  23481159.412    23481165.888
 03  4  2  0 50 30.0000000  0  8G14G31G17G 3G15G18G23G 9
  20922914.986   -25080749.03349 -19494525.91647  20922914.338    20922918.156
  22708615.979   -10249514.19949  -7974598.67446  22708615.353    22708621.233
  22506571.166     3799365.73349   2951493.08446  22506570.396    22506577.436
  21666871.616   -18721402.49249 -14571082.30047  21666871.157    21666876.463
  20442091.783   -22157900.92749 -17251180.91348  20442090.845    20442095.321
  21301178.618   -17955979.79049 -13974525.24047  21301178.001    21301181.379
  22125810.476    -9677422.98749  -7524553.17947  22125809.711    22125814.748
  23478748.891   -11619505.37549  -8834334.43445  23478748.430    23478754.894
 03  4  2  0 51  0.0000000  0  8G14G31G17G 3G15G18G23G 9
  20911081.125   -25142936.11349 -19542983.31547  20911080.470    20911084.269
  22700249.868   -10293477.93249  -8008856.10646  22700249.285    22700255.158
  22520552.858     3872839.60249   3008745.36346  22520552.116    22520559.138
  21668127.663   -18714801.91249 -14565938.99247  21668127.208    21668132.521
  20447628.455   -22128805.44249 -17228509.11248  20447627.542    20447632.028
  21310380.696   -17907622.92449 -13936844.58747  21310380.061    21310383.413
  22135800.966    -9624922.63649  -7483643.83547  22135800.204    22135805.284
  23476443.340   -11631621.26349  -8843775.32745  23476442.897    23476449.325
 03  4  2  0 51 30.0000000  0  8G14G31G17G 3G15G18G23G 9
  20899339.378   -25204639.13549 -19591063.52647  20899338.709    20899342.506
  22691986.482   -10336902.00149  -8042693.01746  22691985.885    22691991.794
  22534592.475     3946617.75649   3066234.73646  22534591.736    22534598.730
  21669491.030   -18707637.49249 -14560356.32747  21669490.584    21669495.855
  20453242.829   -22099301.75949 -17205519.23648  20453241.925    20453246.408
  21319614.069   -17859101.41949 -13899035.63947  21319613.429    21319616.760
  22145805.129    -9572350.61049  -7442678.64447  22145804.369    22145809.418
  23474244.494   -11643175.74649  -8852778.77245  23474244.119    23474250.581
 03  4  2  0 52  0.0000000  0  8G14G31G17G 3G15G18G23G 9
  20887689.459   -25265859.38849 -19638767.55447  20887688.824    20887692.618
  22683825.630   -10379787.70749  -8076110.43246  22683825.035    22683830.891
  22548689.366     4020696.72349   3123958.54446  22548688.558    22548695.525
  21670961.030   -18699912.74849 -14554337.04547  21670960.566    21670965.824
  20458934.436   -22069392.19949 -17182213.08948  20458933.535    20458937.979
  21328878.038   -17810418.90249 -13861101.22547  21328877.376    21328880.743
  22155822.341    -9519710.21349  -7401660.17847  22155821.564    22155826.551
  23472152.244   -11654170.13449  -8861345.77345  23472151.818    23472158.369
 03  4  2  0 52 30.0000000  0  8G14G31G17G 3G15G18G23G 9
  20876131.794   -25326594.97649 -19686093.91947  20876131.165    20876134.956
  22675767.482   -10422133.45049  -8109107.08646  22675766.853    22675772.652
  22562843.482     4095076.89149   3181917.04746  22562842.699    22562849.664
  21672537.576   -18691627.82449 -14547881.25447  21672537.135    21672542.413
  20464703.417   -22039076.05349 -17158590.11648  20464702.501    20464706.939
  21338172.515   -17761575.85549 -13823041.71647  21338171.871    21338175.300
  22165852.445    -9467001.80949  -7360588.71547  22165851.680    22165856.605
  23470166.939   -11664602.96849  -8869475.19945  23470166.502    23470173.065
 03  4  2  0 53  0.0000000  0  8G14G31G17G 3G15G18G23G 9
  20864666.638   -25386844.49749 -19733041.53847  20864666.002    20864669.770
  22667812.307   -10463937.99249  -8141682.03046  22667811.691    22667817.455
  22577054.736     4169757.63549   3240109.74446  22577053.971    22577061.029
  21674220.632   -18682783.22149 -14540989.36147  21674220.180    21674225.454
  20470549.881   -22008352.89049 -17134649.99048  20470548.964    20470553.407
  21347497.360   -17712573.39549 -13784857.99647  21347496.745    21347500.195
  22175895.339    -9414226.18249  -7319464.88047  22175894.578    22175899.492
  23468288.663   -11674473.17249  -8877166.20445  23468288.183    23468294.718
 03  4  2  0 53 30.0000000  0  8G14G31G17G 3G15G18G23G 9
  20853294.385   -25446605.94649 -19779608.83947  20853293.725    20853297.470
  22659960.490   -10505199.41049  -8173833.75246  22659959.846    22659965.668
  22591323.340     4244739.28649   3298536.92346  22591322.582    22591329.669
  21676010.237   -18673378.97449 -14533661.38847  21676009.761    21676015.035
  20476473.928   -21977221.68949 -17110391.91948  20476473.013    20476477.457
  21356852.496   -17663411.73349 -13746550.22547  21356851.889    21356855.353
  22185951.034    -9361383.23049  -7278288.57547  22185950.276    22185955.187
  23466517.665   -11683778.77849  -8884417.25845  23466517.259    23466524.022
 03  4  2  0 54  0.0000000  0  8G14G31G17G 3G15G18G23G 9
  20842015.242   -25505878.10449 -19825794.87347  20842014.594    20842018.301
  22652212.293   -10545916.55749  -8205561.36746  22652211.650    22652217.505
  22605649.053     4320020.97349   3357197.89946  22605648.266    22605655.359
  21677906.169   -18663415.96149 -14525898.00947  21677905.678    21677910.945
  20482475.702   -21945682.17249 -17085815.67048  20482474.768    20482479.218
  21366237.764   -17614091.71349 -13708119.05747  21366237.162    21366240.634
  22196019.336    -9308473.87249  -7237060.53347  22196018.586    22196023.506
  23464854.431   -11692518.60649  -8891227.46345  23464854.060    23464860.823
 03  4  2  0 54 30.0000000  0  8G14G31G17G 3G15G18G23G 9
  20830829.032   -25564661.67849 -19871600.20447  20830828.398    20830832.122
  22644567.504   -10586090.20649  -8236865.47446  22644566.803    22644572.680
  22620031.423     4395600.16549   3416090.68946  22620030.578    22620037.619
  21679907.909   -18652896.94849 -14517701.39147  21679907.392    21679912.643
  20488554.820   -21913736.18549 -17060922.70147  20488553.879    20488558.361
  21375652.631   -17564616.35549 -13669566.85447  21375652.004    21375655.438
  22206099.811    -9255500.81149  -7195782.84847  22206099.048    22206104.008
  23463298.793   -11700693.38549  -8897597.36245  23463298.347    23463305.125
 03  4  2  0 55  0.0000000  0  8G14G31G17G 3G15G18G23G 9
  20819736.218   -25622954.40849 -19917023.04747  20819735.587    20819739.312
  22637026.537   -10625718.33749  -8267744.49246  22637025.843    22637031.653
  22634470.500     4471477.35249   3475215.67746  22634469.642    22634476.654
  21682015.421   -18641821.63949 -14509071.28347  21682014.933    21682020.217
  20494711.512   -21881382.41549 -17035711.96347  20494710.587    20494715.083
  21385097.122   -17514985.57849 -13630893.53347  21385096.466    21385099.833
  22216192.439    -9202463.68749  -7154455.23647  22216191.700    22216196.661
  23461850.942   -11708301.22949  -8903525.48745  23461850.509    23461857.438
 03  4  2  0 55 30.0000000  0  8G14G31G17G 3G15G18G23G 9
  20808737.306   -25680753.63149 -19962061.34347  20808736.701    20808740.419
  22629589.745   -10664798.48149  -8298196.49646  22629589.101    22629594.884
  22648966.259     4547652.99949   3534573.24046  22648965.397    22648972.477
  21684228.931   -18630189.59549 -14500007.36347  21684228.441    21684233.739
  20500946.097   -21848619.12549 -17010182.13047  20500945.191    20500949.706
  21394571.250   -17465198.91549 -13592098.73947  21394570.607    21394573.948
  22226297.408    -9149361.84449  -7113077.20047  22226296.665    22226301.626
  23460511.459   -11715339.90549  -8909010.10945  23460511.026    23460518.075
 03  4  2  0 56  0.0000000  0  8G14G31G17G 3G15G18G23G 9
  20797832.613   -25738058.12049 -20006714.13647  20797831.981    20797835.678
  22622257.525   -10703329.39349  -8328220.54346  22622256.877    22622262.639
  22663518.705     4624126.95249   3594163.24746  22663517.883    22663525.044
  21686548.281   -18618001.56849 -14490510.22047  21686547.765    21686553.046
  20507258.754   -21815445.85149 -16984332.83247  20507257.881    20507262.359
  21404074.796   -17415257.41149 -13553183.30447  21404074.178    21404077.534
  22236414.566    -9096195.99449  -7071649.29247  22236413.821    22236418.807
  23459280.569   -11721808.05549  -8914050.17145  23459280.118    23459287.242
 03  4  2  0 56 30.0000000  0  8G14G31G17G 3G15G18G23G 9
  20787022.297   -25794866.43249 -20050980.29447  20787021.674    20787025.372
  22615030.058   -10741309.84849  -8357815.64846  22615029.381    22615035.139
  22678127.825     4700898.59449   3653985.22446  22678127.029    22678134.247
  21688973.219   -18605258.25549 -14480580.37347  21688972.726    21688977.991
  20513649.568   -21781861.99249 -16958163.59347  20513648.677    20513653.166
  21413607.726   -17365161.71849 -13514147.71247  21413607.098    21413610.472
  22246543.751    -9042966.57449  -7030171.84147  22246543.009    22246548.050
  23458158.424   -11727704.59449  -8918644.82445  23458158.015    23458165.144
 03  4  2  0 57  0.0000000  0  8G14G31G17G 3G15G18G23G 9
  20776306.519   -25851178.11649 -20094859.47247  20776305.863    20776309.544
  22607907.343   -10778739.56349  -8386981.59846  22607906.692    22607912.460
  22692793.449     4777966.76249   3714038.24346  22692792.666    22692799.985
  21691503.515   -18591961.32749 -14470219.13847  21691503.065    21691508.338
  20520118.308   -21747868.60449 -16931675.24447  20520117.418    20520121.920
  21423169.643   -17314913.44849 -13474993.23347  21423169.009    21423172.431
  22256684.827    -8989674.98349  -6988645.95047  22256684.068    22256689.138
  23457145.046   -11733029.57849  -8922794.11645  23457144.676    23457151.745
 03  4  2  0 57 30.0000000  0  8G14G31G17G 3G15G18G23G 9
  20765685.597   -25906991.15849 -20138350.09847  20765684.965    20765688.627
  22600889.899   -10815616.56149  -8415716.86046  22600889.220    22600894.985
  22707515.573     4855331.62649   3774322.45546  22707514.794    22707522.135
  21694139.235   -18578110.55149 -14459426.32747  21694138.770    21694144.062
  20526665.186   -21713464.49449 -16904866.85647  20526664.306    20526668.791
  21432760.557   -17264512.82549 -13435720.03847  21432759.929    21432763.392
  22266837.725    -8936320.97249  -6947071.41647  22266837.009    22266842.039
  23456240.901   -11737781.11549  -8926496.57445  23456240.463    23456247.432
 03  4  2  0 58  0.0000000  0  8G14G31G17G 3G15G18G23G 9
  20755159.128   -25962308.04049 -20181454.10348  20755158.483    20755162.121
  22593977.069   -10851943.52949  -8444023.51846  22593976.366    22593982.199
  22722293.289     4932988.89649   3834834.52746  22722292.564    22722299.883
  21696879.543   -18563710.70249 -14448205.67347  21696878.993    21696884.278
  20533289.680   -21678652.77549 -16877740.84747  20533288.800    20533293.261
  21442379.660   -17213964.06649 -13396331.40447  21442379.040    21442382.514
  22277001.729    -8882908.88149  -6905451.62147  22277000.993    22277006.053
  23455445.292   -11741961.76149  -8929754.16745  23455444.883    23455451.879
 03  4  2  0 58 30.0000000  0  8G14G31G17G 3G15G18G23G 9
  20744728.320   -26017122.33549 -20224166.48148  20744727.634    20744731.254
  22587170.080   -10887714.08049  -8471896.59946  22587169.378    22587175.256
  22737127.553     5010943.30749   3895578.12746  22737126.804    22737134.255
  21699725.014   -18548757.63749 -14436553.94347  21699724.493    21699729.781
  20539992.710   -21643428.13949 -16850293.08547  20539991.839    20539996.318
  21452027.816   -17163262.98549 -13356824.08747  21452027.181    21452030.636
  22287177.661    -8829434.17949  -6863783.03747  22287176.919    22287181.992
  23454759.596   -11745565.28249  -8932562.07345  23454759.188    23454766.060
 03  4  2  0 59  0.0000000  0  8G14G31G17G 3G15G18G23G 9
  20734392.802   -26071435.56149 -20266488.42748  20734392.159    20734395.753
  22580468.673   -10922930.01649  -8499337.53546  22580467.967    22580473.890
  22752017.908     5089191.53149   3956550.68546  22752017.166    22752024.527
  21702675.088   -18533254.62349 -14424473.68547  21702674.611    21702679.887
  20546773.847   -21607793.18049 -16822525.60048  20546772.955    20546777.449
  21461704.240   -17112413.19649 -13317200.89247  21461703.622    21461706.983
  22297364.841    -8775900.19249  -6822068.26747  22297364.126    22297369.186
  23454183.389   -11748593.31349  -8934921.54745  23454182.967    23454189.795
 03  4  2  0 59 30.0000000  0  8G14G31G17G 3G15G18G23G 9
  20724152.866   -26125246.65649 -20308419.09048  20724152.198    20724155.765
  22573872.897   -10957590.40249  -8526345.55646  22573872.233    22573878.105
  22766963.938     5167732.99149   4017751.74546  22766963.209    22766970.522
  21705729.633   -18517202.93949 -14411965.88247  21705729.146    21705734.403
  20553633.067   -21571747.67949 -16794438.20647  20553632.186    20553636.714
  21471408.828   -17061415.76949 -13277462.65347  21471408.183    21471411.452
  22307563.261    -8722307.52449  -6780307.76547  22307562.506    22307567.491
  23453716.756   -11751045.27749  -8936832.12745  23453716.340    23453723.169
 03  4  2  1  0  0.0000000  0  8G14G31G17G 3G15G18G23G 9
  20714009.052   -26178552.43849 -20349956.01148  20714008.411    20714011.932
  22567383.596   -10991692.03849  -8552918.20746  22567382.886    22567388.700
  22781965.909     5246568.92949   4079182.24046  22781965.214    22781972.638
  21708888.876   -18500601.18349 -14399029.46347  21708888.379    21708893.648
  20560570.874   -21535289.13949 -16766028.97047  20560570.013    20560574.564
  21481141.744   -17010269.10249 -13237608.12647  21481141.095    21481144.342
  22317773.190    -8668654.48349  -6738500.22347  22317772.408    22317777.319
  23453360.347   -11752918.14849  -8938291.46945  23453359.987    23453366.779
 03  4  2  1  0 30.0000000  0  8G14G31G17G 3G15G18G23G 9
  20703961.023   -26231355.11349 -20391100.89748  20703960.347    20703963.826
  22561000.050   -11025237.63049  -8579057.57246  22560999.365    22561005.121
  22797023.138     5325695.26249   4140839.03346  22797022.420    22797029.936
  21712151.906   -18483454.05649 -14385668.07447  21712151.390    21712156.656
  20567586.726   -21498420.91149 -16737300.49047  20567585.847    20567590.387
  21490902.201   -16958977.48349 -13197640.64547  21490901.548    21490904.850
  22327993.776    -8614945.19849  -6696648.84447  22327992.972    22327997.862
  23453113.523   -11754214.78549  -8939301.78945  23453113.178    23453119.921
 03  4  2  1  1  0.0000000  0  8G14G31G17G 3G15G18G23G 9
  20694009.251   -26283651.84949 -20431851.54448  20694008.566    20694012.030
  22554722.858   -11058224.37849  -8604761.48146  22554722.141    22554727.846
  22812135.891     5405113.09149   4202722.96346  22812135.227    22812142.655
  21715518.765   -18465760.91849 -14371881.22247  21715518.269    21715523.538
  20574680.819   -21461141.24849 -16708251.41347  20574679.916    20574684.463
  21500690.400   -16907540.04249 -13157559.54047  21500689.762    21500693.102
  22338225.178    -8561178.44949  -6654752.69847  22338224.429    22338229.341
  23452976.878   -11754932.41349  -8939860.94145  23452976.502    23452983.264
 03  4  2  1  1 30.0000000  0  8G14G31G17G 3G15G18G23G 9
  20684154.383   -26335439.28849 -20472205.34148  20684153.728    20684157.179
  22548552.573   -11090649.10649  -8630027.44146  22548551.862    22548557.617
  22827304.652     5484824.14249   4264835.38246  22827303.926    22827311.294
  21718989.847   -18447520.22449 -14357667.70347  21718989.377    21718994.664
  20581853.726   -21423447.46449 -16678879.65247  20581852.830    20581857.306
  21510506.608   -16855955.42749 -13117363.74947  21510505.987    21510509.328
  22348467.881    -8507352.48649  -6612810.42147  22348467.168    22348472.135
  23452951.127   -11755067.97049  -8939966.52745  23452950.770    23452957.469
 03  4  2  1  2  0.0000000  0  8G14G31G17G 3G15G18G23G 9
  20674396.005   -26386719.65849 -20512164.02048  20674395.334    20674398.786
  22542488.849   -11122514.00049  -8654857.18446  22542488.140    22542493.863
  22842528.431     5564825.03149   4327173.64146  22842527.637    22842535.105
  21722564.362   -18428736.12549 -14343030.75747  21722563.882    21722569.162
  20589104.959   -21385342.24249 -16649187.29147  20589104.030    20589108.484
  21520350.038   -16804227.58249 -13077056.36247  21520349.442    21520352.817
  22358721.210    -8453470.91049  -6570824.80647  22358720.510    22358725.533
  23453035.678   -11754623.60849  -8939620.22445  23453035.311    23453041.965
 03  4  2  1  2 30.0000000  0  8G14G31G17G 3G15G18G23G 9
  20664734.336   -26437491.75449 -20551726.63748  20664733.703    20664737.105
  22536531.819   -11153818.31149  -8679250.09846  22536531.104    22536536.740
  22857807.021     5645114.62249   4389736.86846  22857806.240    22857813.823
  21726242.006   -18409409.84549 -14327971.32147  21726241.516    21726246.853
  20596434.380   -21346825.56349 -16619174.30647  20596433.466    20596437.975
  21530220.660   -16752357.17449 -13036637.87747  21530220.049    21530223.482
  22368984.979    -8399534.38549  -6528796.36947  22368984.274    22368989.362
  23453230.622   -11753598.70649  -8938821.55545  23453230.287    23453236.964
 03  4  2  1  3  0.0000000  0  8G14G31G17G 3G15G18G23G 9
  20655169.969   -26487752.67249 -20590890.93748  20655169.334    20655172.717
  22530682.046   -11184559.06249  -8703203.89146  22530681.344    22530686.949
  22873140.924     5725694.66249   4452526.42846  22873140.115    22873147.768
  21730023.027   -18389540.45649 -14312488.68747  21730022.548    21730027.886
  20603842.555   -21307895.35149 -16588839.09647  20603841.667    20603846.157
  21540118.756   -16700342.75049 -12996107.18147  21540118.106    21540121.551
  22379259.548    -8345541.25949  -6486723.83547  22379258.841    22379263.957
  23453536.585   -11751990.60349  -8937568.45045  23453536.295    23453542.936
 03  4  2  1  3 30.0000000  0  8G14G31G17G 3G15G18G23G 9
  20645703.057   -26537501.38649 -20629656.12048  20645702.448    20645705.808
  22524939.535   -11214735.60849  -8726718.03446  22524938.819    22524944.472
  22888529.807     5806563.70449   4515541.16246  22888529.051    22888536.751
  21733907.246   -18369129.20849 -14296583.83147  21733906.739    21733912.075
  20611329.423   -21268551.67349 -16558181.70447  20611328.514    20611333.008
  21550043.965   -16648185.46749 -12955465.16947  21550043.325    21550046.752
  22389544.748    -8291492.28449  -6444607.77647  22389544.081    22389549.196
  23453953.644   -11749798.97549  -8935860.63445  23453953.247    23453959.924
 03  4  2  1  4  0.0000000  0  8G14G31G17G 3G15G18G23G 9
  20636333.596   -26586737.91549 -20668022.19548  20636332.974    20636336.329
  22519304.455   -11244347.98349  -8749792.56246  22519303.731    22519309.340
  22903973.505     5887720.84149   4578780.39546  22903972.770    22903980.501
  21737894.109   -18348178.17449 -14280258.35447  21737893.589    21737898.889
  20618894.848   -21228795.18549 -16527202.64047  20618893.917    20618898.456
  21559996.131   -16595886.61549 -12914712.83447  21559995.506    21559998.913
  22399840.396    -8237388.76549  -6402449.20847  22399839.684    22399844.794
  23454481.587   -11747023.72649  -8933698.04945  23454481.211    23454487.912
 03  4  2  1  4 30.0000000  0  8G14G31G17G 3G15G18G23G 9
  20627061.757   -26635461.57949 -20705988.63748  20627061.143    20627064.485
  22513776.709   -11273395.95949  -8772427.30246  22513776.047    22513781.631
  22919471.862     5969164.47949   4642242.89146  22919471.081    22919478.782
  21741983.344   -18326688.99149 -14263513.53447  21741982.838    21741988.163
  20626538.696   -21188626.30149 -16495902.22747  20626537.765    20626542.338
  21569974.896   -16543447.88149 -12873851.50047  21569974.287    21569977.662
  22410146.157    -8183231.77849  -6360248.98047  22410145.439    22410150.557
  23455120.770   -11743664.77249  -8931080.63845  23455120.378    23455127.085
 03  4  2  1  5  0.0000000  0  8G14G31G17G 3G15G18G23G 9
  20617887.506   -26683672.48449 -20743555.53048  20617886.874    20617890.201
  22508356.466   -11301879.55349  -8794622.27646  22508355.809    22508361.335
  22935024.424     6050893.18449   4705927.49545  22935023.623    22935031.275
  21746174.585   -18304663.72849 -14246350.99047  21746174.097    21746179.430
  20634260.893   -21148045.73949 -16464281.03247  20634259.989    20634264.554
  21579980.110   -16490870.55349 -12832882.18247  21579979.451    21579982.799
  22420461.813    -8129022.71349  -6318008.17147  22420461.098    22420466.241
  23455870.978   -11739722.20749  -8928008.44745  23455870.589    23455877.260
 03  4  2  1  5 30.0000000  0  8G14G31G17G 3G15G18G23G 9
  20608811.502   -26731367.09849 -20780720.11248  20608810.867    20608814.194
  22503044.228   -11329795.43449  -8816374.85846  22503043.547    22503049.109
  22950631.587     6132908.78249   4769835.66245  22950630.819    22950638.354
  21750468.182   -18282100.89149 -14228769.56347  21750467.674    21750472.984
  20642061.956   -21107050.77849 -16432336.93047  20642061.069    20642065.648
  21590011.930   -16438153.10349 -12791803.66647  21590011.246    21590014.608
  22430787.867    -8074759.19549  -6275724.93647  22430787.139    22430792.265
  23456732.768   -11735193.04349  -8924479.19345  23456732.472    23456739.073
 03  4  2  1  6  0.0000000  0  8G14G31G17G 3G15G18G23G 9
  20599833.717   -26778545.24349 -20817482.25748  20599833.092    20599836.427
  22497839.985   -11357143.68849  -8837685.13846  22497839.300    22497844.935
  22966293.119     6215210.16649   4833966.52445  22966292.327    22966299.786
  21754863.686   -18259002.37949 -14210770.72947  21754863.192    21754868.462
  20649941.861   -21065642.00349 -16400070.37547  20649940.953    20649945.537
  21600070.051   -16385297.04849 -12750617.15747  21600069.403    21600072.826
  22441123.985    -8020442.51749  -6233400.28447  22441123.294    22441128.373
  23457706.147   -11730077.61649  -8920493.11145  23457705.878    23457712.493
 03  4  2  1  6 30.0000000  0  8G14G31G17G 3G15G18G23G 9
  20590954.273   -26825206.88449 -20853841.92648  20590953.669    20590956.965
  22492743.688   -11383924.57449  -8858553.30446  22492743.028    22492748.689
  22982008.714     6297795.69549   4898318.78145  22982007.886    22982015.374
  21759360.661   -18235370.40649 -14192356.19747  21759360.189    21759365.476
  20657900.266   -21023820.25649 -16367482.01747  20657899.364    20657903.958
  21610154.284   -16332303.90249 -12709323.81547  21610153.662    21610157.084
  22451469.933    -7966074.25949  -6191035.42947  22451469.191    22451474.306
  23458791.035   -11724376.21649  -8916050.40845  23458790.747    23458797.605
 03  4  2  1  7  0.0000000  0  8G14G31G17G 3G15G18G23G 9
  20582173.687   -26871349.22449 -20889796.94848  20582173.028    20582176.330
  22487755.859   -11410135.55649  -8878977.40446  22487755.251    22487760.893
  22997778.458     6380665.83049   4962892.82845  22997777.689    22997785.229
  21763959.193   -18211204.67749 -14173525.75547  21763958.775    21763964.074
  20665937.607   -20981583.73149 -16334570.46147  20665936.720    20665941.312
  21620264.817   -16279172.51849 -12667922.75947  21620264.213    21620267.666
  22461825.964    -7911652.92649  -6148629.21746  22461825.272    22461830.361
  23459987.948   -11718086.31749  -8911149.15945  23459987.669    23459994.437
 03  4  2  1  7 30.0000000  0  8G14G31G17G 3G15G18G23G 9
  20573491.225   -26916975.72649 -20925350.01748  20573490.539    20573493.853
  22482875.875   -11435779.88049  -8898959.95646  22482875.259    22482880.874
  23013601.533     6463816.25149   5027685.28345  23013600.746    23013608.267
  21768658.400   -18186510.33349 -14154283.40747  21768657.932    21768663.236
  20674053.146   -20938936.42649 -16301338.81447  20674052.251    20674056.852
  21630400.788   -16225907.27849 -12626417.39247  21630400.176    21630403.683
  22472191.233    -7857182.81849  -6106185.00146  22472190.586    22472195.642
  23461296.150   -11711211.61649  -8905792.21845  23461295.873    23461302.535
 03  4  2  1  8  0.0000000  0  8G14G31G17G 3G15G18G23G 9
  20564907.542   -26962082.86249 -20960498.38648  20564906.871    20564910.193
  22478104.321   -11460854.42749  -8918498.51746  22478103.702    22478109.252
  23029478.227     6547248.54749   5092697.36345  23029477.494    23029485.011
  21773458.434   -18161286.06949 -14134628.14047  21773457.969    21773463.232
  20682247.380   -20895875.55749 -16267784.90647  20682246.499    20682251.099
  21640562.620   -16172506.46049 -12584806.38647  21640562.021    21640565.612
  22482566.244    -7802661.84449  -6063701.14546  22482565.574    22482570.700
  23462716.291   -11703748.91249  -8899977.08745  23462715.970    23462722.657
 03  4  2  1  8 30.0000000  0  8G14G31G17G 3G15G18G23G 9
  20556423.289   -27006667.58149 -20995239.67848  20556422.655    20556425.982
  22473441.643   -11485356.62749  -8937591.08846  22473441.021    22473446.599
  23045408.837     6630964.05349   5157930.14245  23045408.056    23045415.698
  21778359.410   -18135531.13849 -14114559.36347  21778358.966    21778364.208
  20690520.738   -20852399.12449 -16233907.18347  20690519.831    20690524.417
  21650750.535   -16118969.03849 -12543088.93347  21650749.918    21650753.501
  22492951.205    -7748088.44749  -6021176.44346  22492950.554    22492955.714
  23464248.820   -11695695.85649  -8893701.95345  23464248.419    23464255.059
 03  4  2  1  9  0.0000000  0  8G14G31G17G 3G15G18G23G 9
  20548038.308   -27050730.93049 -21029574.71048  20548037.650    20548040.968
  22468887.662   -11509287.60149  -8956238.56046  22468887.023    22468892.635
  23061392.706     6714960.03449   5223381.47745  23061392.010    23061399.587
  21783360.700   -18109249.02149 -14094079.79447  21783360.254    21783365.528
  20698872.844   -20808508.88849 -16199707.01347  20698871.929    20698876.496
  21660964.016   -16065297.23349 -12501266.76547  21660963.367    21660966.940
  22503345.781    -7693464.82349  -5978612.61046  22503345.148    22503350.296
  23465893.364   -11687053.84149  -8886967.87745  23465892.961    23465899.637
 03  4  2  1  9 30.0000000  0  8G14G31G17G 3G15G18G23G 9
  20539752.474   -27094272.81349 -21063503.39848  20539751.826    20539755.149
  22464442.436   -11532647.38849  -8974440.94746  22464441.781    22464447.372
  23077429.934     6799235.45449   5289050.51645  23077429.228    23077436.832
  21788462.051   -18082441.28649 -14073190.64547  21788461.612    21788466.889
  20707303.496   -20764205.43649 -16165184.84847  20707302.583    20707307.173
  21671202.832   -16011492.12749 -12459340.72947  21671202.199    21671205.746
  22513749.747    -7638791.86249  -5936010.32946  22513749.086    22513754.260
  23467649.885   -11677822.99249  -8879774.98745  23467649.554    23467656.209
 03  4  2  1 10  0.0000000  0  8G14G31G17G 3G15G18G23G 9
  20531565.703   -27137294.35249 -21097026.63048  20531565.073    20531568.394
  22460105.651   -11555437.27449  -8992199.25746  22460105.013    22460110.607
  23093519.761     6883787.86549   5354935.41845  23093519.040    23093526.835
  21793662.848   -18055111.09149 -14051894.39247  21793662.391    21793667.631
  20715812.463   -20719490.44849 -16130342.01347  20715811.582    20715816.191
  21681466.454   -15957556.47449 -12417312.96347  21681465.854    21681469.399
  22524162.603    -7584071.83549  -5893371.37446  22524161.907    22524167.120
  23469518.229   -11668004.93749  -8872124.53345  23469517.870    23469524.375
 03  4  2  1 10 30.0000000  0  8G14G31G17G 3G15G18G23G 9
  20523478.961   -27179790.28649 -21130140.29848  20523478.332    20523481.652
  22455878.296   -11577652.14749  -9009509.50946  22455877.640    22455883.192
  23109662.953     6968620.77749   5421038.88945  23109662.253    23109670.039
  21798963.594   -18027255.39149 -14030188.65047  21798963.132    21798968.394
  20724400.647   -20674359.44549 -16095175.00447  20724399.747    20724404.360
  21691755.696   -15903486.38049 -12375180.44547  21691755.071    21691758.640
  22534585.207    -7529300.47249  -5850692.41846  22534584.581    22534589.814
  23471499.157   -11657594.74349  -8864012.64645  23471498.770    23471505.283
 03  4  2  1 11  0.0000000  0  8G14G31G17G 3G15G18G23G 9
  20515491.827   -27221762.67049 -21162846.00748  20515491.201    20515494.496
  22451759.769   -11599294.61549  -9026373.73046  22451759.150    22451764.682
  23125858.792     7053730.32949   5487357.92445  23125858.142    23125865.921
  21804363.490   -17998878.64849 -14008076.90947  21804363.044    21804368.312
  20733067.362   -20628815.43049 -16059686.16447  20733066.457    20733071.100
  21702069.777   -15849285.47949 -12332945.99947  21702069.140    21702072.697
  22545017.087    -7474481.13549  -5807976.07646  22545016.390    22545021.619
  23473592.259   -11646594.92449  -8855441.35045  23473591.851    23473598.490
 03  4  2  1 11 30.0000000  0  8G14G31G17G 3G15G18G23G 9
  20507604.577   -27263210.49649 -21195142.97248  20507603.941    20507607.194
  22447750.449   -11620363.79949  -9042791.24746  22447749.806    22447755.301
  23142107.344     7139116.05849   5553892.15345  23142106.563    23142114.376
  21809862.359   -17969981.94649 -13985560.00747  21809861.877    21809867.158
  20741812.719   -20582858.22449 -16023875.36547  20741811.852    20741816.503
  21712408.695   -15794953.94049 -12290609.75447  21712408.063    21712411.666
  22555458.096    -7419613.77749  -5765222.31946  22555457.332    22555462.568
  23475797.611   -11635004.86449  -8846410.09545  23475797.284    23475803.902
 03  4  2  1 12  0.0000000  0  8G14G31G17G 3G15G18G23G 9
  20499817.352   -27304132.51749 -21227030.21948  20499816.712    20499819.931
  22443850.394   -11640858.58049  -9058761.18746  22443849.786    22443855.212
  23158408.319     7224777.87349   5620641.50645  23158407.518    23158415.328
  21815460.078   -17940566.18349 -13962638.64447  21815459.561    21815464.828
  20750636.881   -20536487.13649 -15987742.06347  20750635.994    20750640.633
  21722772.428   -15740491.91249 -12248171.83347  21722771.808    21722775.412
  22565908.126    -7364698.15849  -5722430.96046  22565907.427    22565912.610
  23478115.682   -11622823.61849  -8836918.18945  23478115.329    23478121.750
 03  4  2  1 12 30.0000000  0  8G14G31G17G 3G15G18G23G 9
  20492130.120   -27344529.04749 -21258507.98948  20492129.454    20492132.680
  22440059.570   -11660779.45649  -9074283.91846  22440058.931    22440064.379
  23174761.585     7310714.33749   5687604.87045  23174760.707    23174768.587
  21821156.012   -17910633.75849 -13939314.68047  21821155.489    21821160.778
  20759539.555   -20489703.16249 -15951287.02747  20759538.670    20759543.347
  21733160.769   -15685900.97149 -12205633.46047  21733160.146    21733163.719
  22576367.206    -7309735.57149  -5679603.00146  22576366.457    22576371.674
  23480545.900   -11610052.01449  -8826966.26245  23480545.596    23480552.074
 03  4  2  1 13  0.0000000  0  8G14G31G17G 3G15G18G23G 9
  20484542.868   -27384399.96949 -21289576.19348  20484542.227    20484545.465
  22436377.866   -11680126.73549  -9089359.69146  22436377.239    22436382.692
  23191166.623     7396923.62849   5754780.84945  23191165.840    23191173.876
  21826949.808   -17880186.62549 -13915589.64347  21826949.338    21826954.667
  20768520.696   -20442506.83849 -15914510.68547  20768519.833    20768524.501
  21743573.454   -15631182.05949 -12162995.36447  21743572.828    21743576.408
  22586835.041    -7254726.85549  -5636739.09546  22586834.300    22586839.461
  23483088.437   -11596690.56149  -8816554.71045  23483088.176    23483094.646
 03  4  2  1 13 30.0000000  0  8G14G31G17G 3G15G18G23G 9
  20477056.461   -27423741.16549 -21320231.63148  20477055.809    20477059.039
  22432806.090   -11698896.41049  -9103985.38746  22432805.482    22432810.904
  23207624.332     7483408.57649   5822171.59745  23207623.506    23207631.605
  21832842.048   -17849222.75649 -13891461.96647  21832841.568    21832846.911
  20777580.955   -20394894.92449 -15877410.50647  20777580.081    20777584.771
  21754011.016   -15576332.38649 -12120255.38347  21754010.352    21754013.930
  22597312.234    -7199668.87549  -5593836.80246  22597311.557    22597316.747
  23485744.084   -11582735.52549  -8805680.63645  23485743.748    23485750.197
 03  4  2  1 14  0.0000000  0  8G14G31G17G 3G15G18G23G 9
  20469669.789   -27462558.36949 -21350478.75948  20469669.133    20469672.328
  22429343.109   -11717094.49349  -9118165.67846  22429342.400    22429347.938
  23224133.080     7570162.20249   5889771.72845  23224132.248    23224140.398
  21838831.106   -17817750.19649 -13866937.89847  21838830.622    21838835.957
  20786719.024   -20346873.72249 -15839991.40147  20786718.175    20786722.884
  21764472.056   -15521359.02649 -12077419.00947  21764471.430    21764475.032
  22607797.533    -7144568.21949  -5550901.24946  22607796.818    22607802.060
  23488511.466   -11568193.09449  -8794348.83245  23488511.072    23488517.321
 03  4  2  1 14 30.0000000  0  8G14G31G17G 3G15G18G23G 9
  20462383.808   -27500846.30249 -21380313.46748  20462383.147    20462386.318
  22425989.789   -11734715.99949  -9131896.68746  22425989.101    22425994.672
  23240693.704     7657188.12649   5957584.03945  23240692.863    23240700.992
  21844917.541   -17785765.66249 -13842014.89047  21844917.079    21844922.420
  20795935.893   -20298438.84549 -15802249.95447  20795935.064    20795939.742
  21774957.507   -15466257.71449 -12034482.94447  21774956.861    21774960.447
  22618291.757    -7089420.67949  -5507929.15846  22618291.062    22618296.316
  23491391.465   -11553058.54049  -8782555.65145  23491391.118    23491397.323
 03  4  2  1 15  0.0000000  0  8G14G31G17G 3G15G18G23G 9
  20455198.408   -27538605.54549 -21409736.21348  20455197.781    20455200.937
  22422746.171   -11751761.73949  -9145179.05546  22422745.396    22422750.932
  23257305.655     7744483.82549   6025606.53145  23257304.803    23257312.927
  21851100.833   -17753272.06349 -13816695.20747  21851100.408    21851105.702
  20805231.292   -20249591.28249 -15764186.93747  20805230.429    20805235.115
  21785467.035   -15411030.02949 -11991448.39547  21785466.375    21785469.972
  22628794.685    -7034227.68949  -5464921.66446  22628793.972    22628799.198
  23494384.145   -11537332.68749  -8770301.70045  23494383.697    23494389.852
 03  4  2  1 15 30.0000000  0  8G14G31G17G 3G15G18G23G 9
  20448113.923   -27575834.55549 -21438745.78748  20448113.286    20448116.430
  22419612.209   -11768230.56849  -9158011.88246  22419611.416    22419616.980
  23273969.053     7832050.14149   6093839.93745  23273968.267    23273976.352
  21857380.970   -17720269.87949 -13790979.22847  21857380.500    21857385.808
  20814605.361   -20200330.21549 -15725801.70947  20814604.499    20814609.222
  21796000.644   -15355675.83149 -11948315.26847  21795999.963    21796003.577
  22639306.334    -6978988.38049  -5421878.07146  22639305.635    22639310.950
  23497489.365   -11521014.73849  -8757586.37845  23497488.917    23497495.029
 03  4  2  1 16  0.0000000  0  8G14G31G17G 3G15G18G23G 9
  20441130.050   -27612534.88649 -21467343.40548  20441129.421    20441132.538
  22416587.654   -11784124.29149  -9170396.56946  22416586.870    22416592.450
  23290683.087     7919883.63449   6162281.50045  23290682.456    23290690.650
  21863757.147   -17686762.92449 -13764869.92147  21863756.686    21863761.961
  20824057.719   -20150657.85049 -15687095.99347  20824056.865    20824061.569
  21806557.834   -15300197.90049 -11905085.72847  21806557.144    21806560.728
  22649826.366    -6923705.15949  -5378800.25846  22649825.712    22649831.005
  23500706.877   -11504106.51949  -8744411.10045  23500706.419    23500712.581
 03  4  2  1 16 30.0000000  0  8G14G31G17G 3G15G18G23G 9
  20434247.282   -27648704.09049 -21495527.16048  20434246.625    20434249.738
  22413673.068   -11799440.48749  -9182331.26246  22413672.338    22413677.809
  23307448.451     8007985.24949   6230932.00345  23307447.779    23307455.796
  21870229.445   -17652750.71949 -13738366.91447  21870228.986    21870234.269
  20833588.700   -20100572.52649 -15648068.49247  20833587.827    20833592.516
  21817138.835   -15244594.65849 -11861758.53747  21817138.140    21817141.679
  22660355.168    -6868376.40449  -5335686.96746  22660354.503    22660359.723
  23504037.032   -11486606.00849  -8730774.30245  23504036.634    23504042.832
 03  4  2  1 17  0.0000000  0  8G14G31G17G 3G15G18G23G 9
  20427465.331   -27684343.24749 -21523297.88948  20427464.700    20427467.804
  22410868.108   -11814180.59949  -9193817.03046  22410867.339    22410872.821
  23324264.463     8096353.02449   6299789.90545  23324263.699    23324271.701
  21876797.243   -17618236.66049 -13711472.85147  21876796.789    21876802.101
  20843197.953   -20050075.80749 -15608720.42147  20843197.065    20843201.748
  21827743.221   -15188868.12549 -11818335.27147  21827742.558    21827746.070
  22670892.242    -6813003.90549  -5292539.58346  22670891.578    22670896.786
  23507479.585   -11468514.88449  -8716677.26845  23507479.171    23507485.560
 03  4  2  1 17 30.0000000  0  8G14G31G17G 3G15G18G23G 9
  20420784.651   -27719450.27449 -21550653.97348  20420784.045    20420787.142
  22408173.133   -11828342.83049  -9204852.51046  22408172.365    22408177.782
  23341131.031     8184987.17249   6368855.36145  23341130.291    23341138.354
  21883460.503   -17583220.90049 -13684187.85847  21883460.066    21883465.373
  20852885.735   -19999166.23549 -15569050.64447  20852884.828    20852889.540
  21838371.281   -15133017.24949 -11774815.12047  21838370.631    21838374.150
  22681437.948    -6757586.22049  -5249356.98846  22681437.278    22681442.466
  23511034.878   -11449831.59549  -8702118.83245  23511034.410    23511040.932
 03  4  2  1 18  0.0000000  0  8G14G31G17G 3G15G18G23G 9
  20414205.376   -27754024.50849 -21577594.89548  20414204.740    20414207.826
  22405588.089   -11841926.82949  -9215437.42446  22405587.414    22405592.855
  23358048.242     8273887.05349   6438127.90845  23358047.520    23358055.576
  21890219.028   -17547704.82649 -13656513.01947  21890218.577    21890223.863
  20862652.072   -19947843.63249 -15529059.03347  20862651.207    20862655.925
  21849022.989   -15077042.42249 -11731198.37847  21849022.297    21849025.786
  22691992.195    -6702123.44149  -5206139.26346  22691991.531    22691996.681
  23514702.729   -11430555.80249  -8687098.69645  23514702.331    23514708.976
 03  4  2  1 18 30.0000000  0  8G14G31G17G 3G15G18G23G 9
  20407726.949   -27788068.73449 -21604122.82648  20407726.305    20407729.396
  22403112.541   -11854935.68949  -9225574.18146  22403111.869    22403117.345
  23375015.308     8363048.80449   6507604.49645  23375014.563    23375022.565
  21897071.838   -17511693.28249 -13628452.09147  21897071.363    21897076.639
  20872496.359   -19896111.63649 -15488748.41147  20872495.472    20872500.195
  21859697.533   -15020947.32149 -11687487.91847  21859696.847    21859700.356
  22702554.311    -6646618.94249  -5162889.02346  22702553.629    22702558.843
  23518482.707   -11410691.12749  -8671619.67245  23518482.284    23518488.880
 03  4  2  1 19  0.0000000  0  8G14G31G17G 3G15G18G23G 9
  20401349.849   -27821580.47249 -21630235.82848  20401349.210    20401352.286
  22400746.864   -11867367.19049  -9235261.04646  22400746.206    22400751.666
  23392032.449     8452473.71249   6577286.12645  23392031.634    23392039.787
  21904018.933   -17475185.92449 -13600004.82247  21904018.473    21904023.779
  20882418.882   -19843968.49249 -15448117.40147  20882417.993    20882422.756
  21870395.205   -14964730.29249 -11643682.45147  21870394.551    21870398.064
  22713124.795    -6591070.87149  -5119604.82346  22713124.081    22713129.328
  23522375.381   -11390235.44549  -8655680.15845  23522374.989    23522381.373
 03  4  2  1 19 30.0000000  0  8G14G31G17G 3G15G18G23G 9
  20395074.270   -27854558.82449 -21655933.21048  20395073.654    20395076.688
  22398491.229   -11879220.68349  -9244497.51946  22398490.568    22398496.021
  23409099.387     8542161.27749   6647172.44645  23409098.618    23409106.810
  21911060.157   -17438184.06649 -13571172.23247  21911059.699    21911065.006
  20892419.724   -19791413.64549 -15407165.59847  20892418.849    20892423.633
  21881116.124   -14908391.45849 -11599782.08147  21881115.469    21881118.986
  22723703.612    -6535478.95649  -5076286.47246  22723702.878    22723708.097
  23526380.577   -11369188.28149  -8639279.74645  23526380.207    23526386.524
 03  4  2  1 20  0.0000000  0  8G14G31G17G 3G15G18G23G 9
  20388899.901   -27887005.01149 -21681215.92048  20388899.289    20388902.314
  22396345.250   -11890497.85949  -9253284.91146  22396344.563    22396350.003
  23426215.865     8632108.77349   6717261.27045  23426215.108    23426223.336
  21918194.863   -17400691.14349 -13541957.00247  21918194.390    21918199.656
  20902498.560   -19738449.04149 -15365894.49947  20902497.672    20902502.474
  21891859.805   -14851933.14849 -11555788.60647  21891859.121    21891862.645
  22734290.403    -6479845.12849  -5032935.45546  22734289.679    22734294.918
  23530497.758   -11347551.64949  -8622419.98345  23530497.405    23530503.786
 03  4  2  1 20 30.0000000  0  8G14G31G17G 3G15G18G23G 9
  20382827.105   -27918917.59449 -21706082.83248  20382826.483    20382829.505
  22394309.176   -11901197.46149  -9261622.24346  22394308.513    22394313.978
  23443381.808     8722316.10449   6787552.59145  23443380.995    23443389.273
  21925422.920   -17362707.62849 -13512359.48947  21925422.426    21925427.684
  20912655.597   -19685073.64949 -15324303.30247  20912654.730    20912659.513
  21902626.316   -14795354.45049 -11511701.32847  21902625.688    21902629.226
  22744885.285    -6424168.25249  -4989550.88946  22744884.604    22744889.866
  23534727.526   -11325324.48249  -8605100.07545  23534727.187    23534733.608
 03  4  2  1 21  0.0000000  0  8G14G31G17G 3G15G18G23G 9
  20376855.712   -27950297.56149 -21730534.72248  20376855.067    20376858.064
  22392382.725   -11911320.68949  -9269510.46346  22392382.066    22392387.545
  23460596.905     8812781.56749   6858045.05445  23460596.048    23460604.347
  21932743.762   -17324236.49849 -13482382.02347  21932743.268    21932748.525
  20922890.456   -19631289.23649 -15282393.39247  20922889.585    20922894.341
  21913415.477   -14738657.32849 -11467521.77347  21913414.858    21913418.375
  22755488.145    -6368449.80849  -4946133.94846  22755487.484    22755492.796
  23539069.388   -11302508.28349  -8587321.17245  23539068.912    23539075.256
 03  4  2  1 21 30.0000000  0  8G14G31G17G 3G15G18G23G 9
  20370986.166   -27981142.16649 -21754569.43848  20370985.500    20370988.493
  22390566.443   -11920865.14649  -9276947.68346  22390565.844    22390571.314
  23477861.298     8903506.27149   6928739.52245  23477860.405    23477868.737
  21940157.502   -17285277.10749 -13452024.08347  21940157.015    21940162.285
  20933203.580   -19577093.51549 -15240162.97047  20933202.686    20933207.475
  21924227.538   -14681839.78349 -11423248.38047  21924226.894    21924230.456
  22766099.372    -6312687.53349  -4902682.84246  22766098.698    22766104.007
  23543523.636   -11279100.75349  -8569081.50345  23543523.238    23543529.370
 03  4  2  1 22  0.0000000  0  8G14G31G17G 3G15G18G23G 9
  20365217.907   -28011454.48549 -21778189.39348  20365217.244    20365220.232
  22388859.649   -11929834.19049  -9283936.54246  22388859.055    22388864.571
  23495174.261     8994485.85749   6999632.59945  23495173.370    23495181.636
  21947663.135   -17245834.86449 -13421289.90647  21947662.659    21947667.930
  20943594.298   -19522489.89649 -15197614.71847  20943593.432    20943598.225
  21935061.827   -14624905.40149 -11378883.95547  21935061.163    21935064.749
  22776718.319    -6256884.92249  -4859200.31646  22776717.626    22776722.928
  23548089.718   -11255105.65049  -8550383.98545  23548089.396    23548095.409
 03  4  2  1 22 30.0000000  0  8G14G31G17G 3G15G18G23G 9
  20359551.449   -28041231.40549 -21801392.15648  20359550.846    20359553.820
  22387262.941   -11938225.13049  -9290474.92346  22387262.341    22387267.772
  23512536.018     9085721.95749   7070725.53445  23512535.070    23512543.295
  21955260.830   -17205908.96549 -13390178.85147  21955260.349    21955265.609
  20954063.116   -19467476.14449 -15154746.87947  20954062.244    20954066.989
  21945918.744   -14567852.06549 -11334426.83447  21945918.067    21945921.622
  22787345.397    -6201039.41549  -4815684.35346  22787344.729    22787349.962
  23552768.043   -11230520.27049  -8531226.52145  23552767.838    23552773.778
 03  4  2  1 23  0.0000000  0  8G14G31G17G 3G15G18G23G 9
  20353986.406   -28070475.93949 -21824180.06248  20353985.769    20353988.746
  22385775.549   -11946041.37649  -9296565.49546  22385774.910    22385780.364
  23529945.794     9177210.52749   7142015.22445  23529944.948    23529953.036
  21962949.528   -17165504.54249 -13358694.91647  21962949.077    21962954.349
  20964609.194   -19412056.09849 -15111562.44347  20964608.324    20964613.094
  21956797.541   -14510683.62849 -11289880.03047  21956796.906    21956800.428
  22797980.035    -6145154.51349  -4772137.70246  22797979.298    22797984.537
  23557558.197   -11205348.27049  -8511611.95545  23557557.843    23557563.717
 03  4  2  1 23 30.0000000  0  8G14G31G17G 3G15G18G23G 9
  20348523.678   -28099182.66049 -21846548.89548  20348523.031    20348525.988
  22384398.498   -11953277.70349  -9302204.18046  22384397.854    22384403.318
  23547404.358     9268955.83749   7213504.96345  23547403.532    23547411.810
  21970730.042   -17124617.93449 -13326835.26047  21970729.570    21970734.865
  20975233.585   -19356224.55549 -15068057.36647  20975232.728    20975237.514
  21967699.203   -14453395.15349 -11245239.68747  21967698.559    21967702.095
  22808623.100    -6089225.04049  -4728556.32246  22808622.389    22808627.634
  23562460.580   -11179585.02249  -8491536.68145  23562460.298    23562466.248
 03  4  2  1 24  0.0000000  0  8G14G31G17G 3G15G18G23G 9
  20343162.467   -28127355.76849 -21868501.92648  20343161.842    20343164.773
  22383130.950   -11959938.64749  -9307394.53246  22383130.321    22383135.776
  23564910.654     9360952.28449   7285190.39845  23564909.853    23564918.239
  21978601.077   -17083255.28449 -13294604.66247  21978600.641    21978605.944
  20985935.479   -19299985.99549 -15024235.13047  20985934.610    20985939.372
  21978622.799   -14395991.47049 -11200509.57747  21978622.176    21978625.716
  22819273.801    -6033255.46949  -4684943.68846  22819273.046    22819278.317
  23567474.783   -11153234.99849  -8471004.17045  23567474.427    23567480.402
 03  4  2  1 24 30.0000000  0  8G14G31G17G 3G15G18G23G 9
  20337902.660   -28154996.07749 -21890039.78348  20337902.044    20337904.964
  22381972.662   -11966025.52549  -9312137.55646  22381972.013    22381977.495
  23582464.523     9453197.90249   7357069.98745  23582463.610    23582472.120
  21986562.101   -17041420.09149 -13262005.83947  21986561.640    21986566.983
  20996714.432   -19243342.18749 -14980097.11247  20996713.568    20996718.314
  21989568.008   -14338474.03949 -11155690.83547  21989567.359    21989570.897
  22829931.836    -5977247.17649  -4641300.89146  22829931.077    22829936.376
  23572600.462   -11126299.77949  -8450015.66245  23572600.109    23572606.004
 03  4  2  1 25  0.0000000  0  8G14G31G17G 3G15G18G23G 9
  20332744.855   -28182100.37549 -21911159.97648  20332744.244    20332747.131
  22380924.212   -11971535.19849  -9316430.80746  22380923.579    22380929.073
  23600066.285     9545695.16649   7429145.64845  23600065.394    23600073.790
  21994613.299   -16999110.94449 -13229037.71647  21994612.836    21994618.192
  21007571.098   -19186290.19449 -14935641.03647  21007570.242    21007574.994
  22000535.387   -14280840.15149 -11110781.34947  22000534.737    22000538.294
  22840597.808    -5921196.94049  -4597625.40746  22840597.074    22840602.359
  23577837.938   -11098776.47349  -8428568.90945  23577837.593    23577843.566
 03  4  2  1 25 30.0000000  0  8G14G31G17G 3G15G18G23G 9
  20327689.057   -28208668.71649 -21931862.53848  20327688.404    20327691.280
  22379985.547   -11976468.14549  -9320274.66246  22379984.909    22379990.301
  23617715.761     9638442.27749   7501416.02645  23617714.816    23617723.082
  22002754.283   -16956330.04949 -13195701.98547  22002753.771    22002759.158
  21018505.298   -19128830.71549 -14890867.43847  21018504.432    21018509.213
  22011524.773   -14223090.30449 -11065781.50147  22011524.159    22011527.776
  22851271.707    -5865105.30049  -4553917.66446  22851270.965    22851276.273
  23583186.899   -11070666.00449  -8406664.63045  23583186.630    23583192.766
 03  4  2  1 26  0.0000000  0  8G14G31G17G 3G15G18G23G 9
  20322734.948   -28234702.54049 -21952148.59648  20322734.314    20322737.171
  22379156.250   -11980826.22449  -9323670.57346  22379155.623    22379160.956
  23635412.117     9731436.89649   7573879.24145  23635411.225    23635419.512
  22010984.311   -16913081.02349 -13162001.48247  22010983.813    22010989.199
  21029516.630   -19070965.60849 -14845777.76847  21029515.789    21029520.563
  22022535.841   -14165226.81749 -11020693.11347  22022535.286    22022538.886
  22861953.151    -5808973.76849  -4510178.83146  22861952.430    22861957.804
  23588647.692   -11041970.38149  -8384304.38045  23588647.359    23588653.437
 03  4  2  1 26 30.0000000  0  8G14G31G17G 3G15G18G23G 9
  20317882.342   -28260202.93349 -21972018.99748  20317881.733    20317884.546
  22378436.088   -11984610.63149  -9326619.46746  22378435.422    22378440.802
  23653155.181     9824676.63049   7646533.47345  23653154.282    23653162.440
  22019302.853   -16869366.72349 -13127938.43247  22019302.374    22019307.794
  21040604.995   -19012696.20649 -14800373.06447  21040604.133    21040608.885
  22033568.328   -14107250.95049 -10975517.15047  22033567.738    22033571.361
  22872641.983    -5752803.54849  -4466409.85946  22872641.270    22872646.608
  23594219.254   -11012691.29349  -8361489.51045  23594218.842    23594225.014
 03  4  2  1 27  0.0000000  0  8G14G31G17G 3G15G18G23G 9
  20313131.930   -28285166.69149 -21991471.23648  20313131.282    20313134.067
  22377825.573   -11987818.54749  -9329119.14146  22377824.974    22377830.321
  23670945.334     9918163.70549   7719380.41845  23670944.426    23670952.670
  22027710.242   -16825186.07149 -13093511.98647  22027709.744    22027715.156
  21051770.698   -18954020.05849 -14754651.40547  21051769.823    21051774.585
  22044622.769   -14049159.99049 -10930251.49947  22044622.136    22044625.715
  22883338.747    -5696591.67149  -4422608.42246  22883338.045    22883343.333
  23599902.372   -10982826.03749  -8338217.85245  23599901.967    23599908.204
 03  4  2  1 27 30.0000000  0  8G14G31G17G 3G15G18G23G 9
  20308483.137   -28309596.19549 -22010507.17648  20308482.480    20308485.253
  22377324.330   -11990452.93349  -9331171.89546  22377323.671    22377329.002
  23688781.735    10011894.36349   7792417.19445  23688780.798    23688789.220
  22036205.329   -16780544.04049 -13058726.02847  22036204.833    22036210.272
  21063013.233   -18894940.13149 -14708615.11347  21063012.340    21063017.137
  22055698.428   -13990957.07749 -10884898.61747  22055697.808    22055701.394
  22894042.994    -5640340.68349  -4378776.50846  22894042.304    22894047.545
  23605696.471   -10952377.52449  -8314491.70245  23605696.156    23605702.400
 03  4  2  1 28  0.0000000  0  8G14G31G17G 3G15G18G23G 9
  20303936.457   -28333488.97549 -22029124.89148  20303935.788    20303938.559
  22376932.582   -11992511.67949  -9332776.10346  22376931.903    22376937.275
  23706664.845    10105869.93549   7865644.78845  23706663.978    23706672.216
  22044788.360   -16735439.89049 -13023579.97547  22044787.881    22044793.340
  21074333.028   -18835454.23149 -14662262.48647  21074332.153    21074336.943
  22066795.866   -13932640.17049 -10839456.90547  22066795.196    22066798.773
  22904755.091    -5584048.41049  -4334912.42446  22904754.409    22904759.618
  23611602.004   -10921344.23649  -8290309.89445  23611601.738    23611607.860
 03  4  2  1 28 30.0000000  0  8G14G31G17G 3G15G18G23G 9
  20299491.717   -28356846.32949 -22047325.40048  20299491.025    20299493.783
  22376649.998   -11993996.39149  -9333933.02446  22376649.378    22376654.756
  23724593.999    10200087.96049   7939061.29045  23724593.196    23724601.467
  22053458.810   -16689876.73949 -12988076.26947  22053458.338    22053463.774
  21085729.767   -18775564.11849 -14615594.88547  21085728.884    21085733.650
  22077914.527   -13874210.96749 -10793927.68047  22077913.918    22077917.516
  22915474.792    -5527716.14749  -4291017.18246  22915474.077    22915479.276
  23617618.573   -10889728.07249  -8265673.91045  23617618.204    23617624.245
 03  4  2  1 29  0.0000000  0  8G14G31G17G 3G15G18G23G 9
  20295148.322   -28379670.72849 -22065110.61848  20295147.652    20295150.397
  22376476.208   -11994909.81249  -9334644.76946  22376475.599    22376480.931
  23742568.686    10294545.21149   8012664.23445  23742567.873    23742576.193
  22062215.677   -16643859.06449 -12952218.37947  22062215.186    22062220.652
  21097202.809   -18715272.77449 -14568614.63847  21097201.941    21097206.737
  22089054.140   -13815671.99049 -10748312.90847  22089053.556    22089057.179
  22926201.702    -5471346.32449  -4247092.67446  22926200.941    22926206.164
  23623745.194   -10857531.70949  -8240585.81745  23623744.822    23623751.035
 03  4  2  1 29 30.0000000  0  8G14G31G17G 3G15G18G23G 9
  20290906.851   -28401959.66049 -22082478.58348  20290906.178    20290908.898
  22376411.489   -11995249.87949  -9334909.73146  22376410.853    22376416.198
  23760589.121    10389242.98249   8086454.57445  23760588.317    23760596.719
  22071059.127   -16597386.88549 -12916006.33247  22071058.604    22071064.118
  21108752.643   -18654578.20749 -14521320.18747  21108751.755    21108756.513
  22100215.059   -13757021.11749 -10702610.94247  22100214.460    22100218.062
  22936936.085    -5414936.69049  -4203137.13246  22936935.340    22936940.608
  23629982.645   -10824753.33249  -8215044.19845  23629982.334    23629988.509
 03  4  2  1 30  0.0000000  0  8G14G31G17G 3G15G18G23G 9
  20286767.229   -28423713.41149 -22099429.52948  20286766.564    20286769.251
  22376455.669   -11995017.27749  -9334728.47446  22376455.062    22376460.385
  23778655.005    10484179.72349   8160431.12945  23778654.200    23778662.688
  22079988.516   -16550462.40749 -12879441.85447  22079988.032    22079993.590
  21120379.086   -18593481.09849 -14473712.07847  21120378.196    21120382.921
  22111397.044   -13698259.22649 -10656822.46747  22111396.489    22111400.117
  22947678.047    -5358487.41149  -4159150.70646  22947677.313    22947682.598
  23636330.801   -10791394.07049  -8189049.93945  23636330.459    23636336.472
 03  4  2  1 30 30.0000000  0  8G14G31G17G 3G15G18G23G 9
  20282729.431   -28444932.03349 -22115963.48448  20282728.779    20282731.477
  22376608.843   -11994212.36749  -9334101.25746  22376608.227    22376613.554
  23796766.248    10579354.37549   8234593.07045  23796765.432    23796773.993
  22089003.698   -16503087.67749 -12842526.52547  22089003.201    22089008.722
  21132082.067   -18531981.60749 -14425790.41547  21132081.175    21132085.926
  22122600.142   -13639386.45249 -10610947.60147  22122599.563    22122603.240
  22958427.535    -5301998.23849  -4115133.18846  22958426.841    22958432.208
  23642789.219   -10757454.42549  -8162603.44145  23642788.798    23642794.918
 03  4  2  1 31  0.0000000  0  8G14G31G17G 3G15G18G23G 9
  20278793.037   -28465617.82549 -22132082.25348  20278792.404    20278795.089
  22376870.481   -11992837.68749  -9333030.06146  22376869.855    22376875.163
  23814922.058    10674763.49149   8308937.69645  23814921.273    23814929.867
  22098103.676   -16455266.97949 -12805263.69547  22098103.191    22098108.758
  21143861.059   -18470082.71049 -14377557.53647  21143860.190    21143864.878
  22133823.882   -13580405.34149 -10564988.30047  22133823.303    22133827.002
  22969184.178    -5245471.45149  -4071086.35246  22969183.505    22969188.934
  23649357.382   -10722937.47349  -8135707.08745  23649357.110    23649363.303
 03  4  2  1 31 30.0000000  0  8G14G31G17G 3G15G18G23G 9
  20274958.825   -28485766.58349 -22147782.54548  20274958.199    20274960.910
  22377241.220   -11990889.56449  -9331512.01746  22377240.589    22377245.902
  23833123.229    10770410.76449   8383467.93345  23833122.343    23833131.019
  22107288.951   -16406998.10949 -12767651.62847  22107288.472    22107294.078
  21155716.820   -18407780.68349 -14329010.51847  21155715.893    21155720.569
  22145069.067   -13521311.80249 -10518941.38347  22145068.448    22145072.145
  22979948.811    -5188902.74549  -4027006.86646  22979948.143    22979953.703
  23656036.255   -10687839.77149  -8108358.19645  23656035.987    23656042.207
 03  4  2  1 32  0.0000000  0  8G14G31G17G 3G15G18G23G 9
  20271225.753   -28505383.62449 -22163068.51648  20271225.163    20271227.845
  22377719.930   -11988373.85649  -9329551.70046  22377719.277    22377724.634
  23851368.414    10866289.29849   8458178.35845  23851367.602    23851376.300
  22116558.107   -16358288.59549 -12729696.21147  22116557.636    22116563.238
  21167648.093   -18345081.39349 -14280153.95547  21167647.203    21167651.883
  22156334.513   -13462111.56549 -10472811.32847  22156333.899    22156337.594
  22990720.485    -5132297.47249  -3982898.87346  22990719.756    22990725.402
  23662824.402   -10652167.37549  -8080561.50345  23662824.178    23662830.297
 03  4  2  1 32 30.0000000  0  8G14G31G17G 3G15G18G23G 9
  20267594.367   -28524466.77749 -22177938.47248  20267593.767    20267596.406
  22378306.926   -11985288.62949  -9327147.61046  22378306.311    22378311.678
  23869657.855    10962400.52249   8533070.08545  23869657.110    23869665.881
  22125911.192   -16309138.07449 -12691397.15647  22125910.721    22125916.313
  21179655.394   -18281982.57149 -14230986.06947  21179654.510    21179659.195
  22167620.596   -13402802.76149 -10426596.68647  22167620.006    22167623.680
  23001499.547    -5075653.31649  -3938760.58246  23001498.774    23001504.448
  23669722.188   -10615918.56749  -8052315.65945  23669721.912    23669728.133
 03  4  2  1 33  0.0000000  0  8G14G31G17G 3G15G18G23G 9
  20264064.773   -28543014.70649 -22192391.36248  20264064.160    20264066.802
  22379002.530   -11981633.02949  -9324299.07746  22379001.939    22379007.273
  23887991.468    11058744.49049   8608143.18945  23887990.688    23887999.464
  22135348.034   -16259547.35249 -12652755.08247  22135347.558    22135353.157
  21191738.895   -18218483.54549 -14181506.33447  21191738.005    21191742.684
  22178927.611   -13343384.20349 -10380296.51547  22178926.998    22178930.631
  23012286.223    -5018968.77749  -3894590.82646  23012285.467    23012291.187
  23676730.007   -10579092.60949  -8023620.08545  23676729.671    23676735.890
 03  4  2  1 33 30.0000000  0  8G14G31G17G 3G15G18G23G 9
  20260636.834   -28561028.55349 -22206428.09148  20260636.224    20260638.879
  22379806.482   -11977408.52849  -9321007.24246  22379805.843    22379811.129
  23906369.014    11155319.44149   8683396.27645  23906368.245    23906377.249
  22144868.016   -16209519.63649 -12613772.49447  22144867.547    22144873.177
  21203898.246   -18154585.77249 -14131715.89347  21203897.377    21203902.040
  22190255.374   -13283856.99649 -10333911.67847  22190254.716    22190258.326
  23023080.454    -4962244.95549  -3850390.46546  23023079.684    23023085.391
  23683847.248   -10541691.26549  -7994476.17545  23683846.864    23683853.198
 03  4  2  1 34  0.0000000  0  8G14G31G17G 3G15G18G23G 9
  20257309.767   -28578512.10949 -22220051.60548  20257309.167    20257311.842
  22380717.763   -11972619.37749  -9317275.42146  22380717.182    22380722.434
  23924789.473    11252120.32949   8758825.42845  23924788.973    23924797.997
  22154470.042   -16159060.67949 -12574453.87347  22154469.570    22154475.224
  21216132.705   -18090293.46949 -14081618.01947  21216131.828    21216136.459
  22201602.858   -13224225.13049 -10287445.29047  22201602.281    22201605.906
  23033881.480    -4905485.34049  -3806162.20346  23033880.746    23033886.384
  23691073.190   -10503718.95049  -7964887.33645  23691072.772    23691079.059
 03  4  2  1 34 30.0000000  0  8G14G31G17G 3G15G18G23G 9
  20254084.323   -28595461.77449 -22233259.10448  20254083.730    20254086.409
  22381737.127   -11967262.52449  -9313101.23046  22381736.486    22381741.822
  23943253.769    11349149.64049   8834432.54445  23943253.211    23943262.108
  22164154.477   -16108169.00149 -12534798.06947  22164153.995    22164159.662
  21228442.809   -18025603.53449 -14031210.30947  21228441.935    21228446.581
  22212971.024   -13164485.13149 -10240894.64446  22212970.391    22212974.074
  23044690.030    -4848686.14249  -3761903.11046  23044689.283    23044694.874
  23698408.150   -10465173.12649  -7934851.63545  23698407.872    23698414.254
 03  4  2  1 35  0.0000000  0  8G14G31G17G 3G15G18G23G 9
  20250960.512   -28611877.39249 -22246050.45648  20250959.912    20250962.579
  22382864.499   -11961337.91749  -9308484.64146  22382863.916    22382869.220
  23961761.363    11446406.73949   8910217.18545  23961760.588    23961769.585
  22173920.839   -16056846.45549 -12494806.51747  22173920.384    22173926.062
  21240828.580   -17960515.77249 -13980492.59547  21240827.711    21240832.396
  22224359.832   -13104636.66449 -10194259.48146  22224359.206    22224362.821
  23055506.221    -4791846.67949  -3717612.63246  23055505.485    23055511.033
  23705852.446   -10426054.05949  -7904369.22345  23705852.071    23705858.352
 03  4  2  1 35 30.0000000  0  8G14G31G17G 3G15G18G23G 9
  20247937.762   -28627761.92149 -22258427.97748  20247937.145    20247939.805
  22384099.321   -11954849.08049  -9303428.39846  22384098.711    22384103.992
  23980311.634    11543888.01049   8986176.49445  23980310.856    23980319.749
  22183768.293   -16005097.86549 -12454482.98947  22183767.807    22183773.550
  21253289.410   -17895033.62149 -13929467.56947  21253288.545    21253293.240
  22235768.589   -13044682.94549 -10147542.30346  22235767.958    22235771.640
  23066329.589    -4734969.78149  -3673292.99346  23066328.863    23066334.315
  23713405.003   -10386365.45849  -7873443.04445  23713404.622    23713410.878
 03  4  2  1 36  0.0000000  0  8G14G31G17G 3G15G18G23G 9
  20245016.258   -28643114.44849 -22270390.96148  20245015.637    20245018.281
  22385441.481   -11947795.57949  -9297932.17046  22385440.912    22385446.179
  23998904.494    11641593.31649   9062310.37945  23998903.774    23998912.562
  22193696.617   -15952924.20149 -12413828.24047  22193696.134    22193701.921
  21265825.375   -17829156.80049 -13878135.01447  21265824.526    21265829.216
  22247197.589   -12984622.86849 -10100742.25246  22247196.956    22247200.664
  23077160.276    -4678054.24849  -3628943.25046  23077159.544    23077164.983
  23721065.889   -10346106.97749  -7842072.81245  23721065.608    23721071.710
 03  4  2  1 36 30.0000000  0  8G14G31G17G 3G15G18G23G 9
  20242195.669   -28657936.61849 -22281940.67348  20242195.020    20242197.670
  22386890.699   -11940179.45249  -9291997.51146  22386890.218    22386895.504
  24017539.390    11739519.62549   9138616.48845  24017538.515    24017547.397
  22203705.065   -15900329.37849 -12372845.30947  22203704.635    22203710.399
  21278436.051   -17762887.31049 -13826496.47747  21278435.196    21278439.916
  22258646.541   -12924458.44349 -10053860.89746  22258645.900    22258649.584
  23087997.988    -4621101.48449  -3584564.49046  23087997.302    23088002.689
  23728834.739   -10305281.22249  -7810260.51645  23728834.410    23728840.710
 03  4  2  1 37  0.0000000  0  8G14G31G17G 3G15G18G23G 9
  20239476.679   -28672224.89249 -22293074.36648  20239476.032    20239478.664
  22388447.675   -11931997.53249  -9285621.99146  22388447.161    22388452.503
  24036216.952    11837670.25849   9215097.40145  24036215.983    24036224.928
  22213794.106   -15847311.37949 -12331532.62947  22213793.701    22213799.439
  21291122.111   -17696221.65049 -13774549.23747  21291121.263    21291126.039
  22270116.136   -12864185.38149 -10006894.88346  22270115.460    22270119.118
  23098843.668    -4564107.15949  -3540153.35946  23098843.044    23098848.311
  23736712.167   -10263885.02449  -7778003.74445  23736711.777    23736718.023
 03  4  2  1 37 30.0000000  0  8G14G31G17G 3G15G18G23G 9
  20236858.000   -28685985.84049 -22303797.15848  20236857.365    20236860.003
  22390111.019   -11923256.80149  -9278811.02346  22390110.479    22390115.851
  24054935.706    11936037.21649   9291746.85145  24054934.575    24054943.637
  22223961.980   -15793879.03749 -12289897.08347  22223961.512    22223967.297
  21303882.190   -17629166.93549 -13722298.83747  21303881.350    21303886.128
  22281605.063   -12803810.49849  -9959849.54046  22281604.396    22281608.065
  23109696.036    -4507077.65449  -3495714.79646  23109695.391    23109700.625
  23744696.776   -10221925.95549  -7745308.37445  23744696.379    23744702.603
 03  4  2  1 38  0.0000000  0  8G14G31G17G 3G15G18G23G 9
  20234340.499   -28699215.29449 -22314105.80448  20234339.888    20234342.505
  22391881.370   -11913953.81949  -9271561.94146  22391880.783    22391886.103
  24073696.251    12034623.79049   9368567.44245  24073695.177    24073704.295
  22234209.065   -15740030.33149 -12247937.10847  22234208.608    22234214.394
  21316717.036   -17561719.47549 -13669742.41347  21316716.214    21316721.006
  22293114.180   -12743329.81749  -9912721.76846  22293113.558    22293117.168
  23120555.917    -4450008.59049  -3451245.42746  23120555.263    23120560.559
  23752789.079   -10179400.47049  -7712171.63545  23752788.667    23752794.917
 03  4  2  1 38 30.0000000  0  8G14G31G17G 3G15G18G23G 9
  20231923.780   -28711915.05549 -22324001.69848  20231923.171    20231925.800
  22393758.262   -11904090.28549  -9263876.07046  22393757.734    22393763.026
  24092498.032    12133427.84549   9445557.51345  24092497.131    24092506.128
  22244534.731   -15685768.47849 -12205655.18347  22244534.309    22244540.119
  21329626.261   -17493881.03349 -13616881.31347  21329625.418    21329630.219
  22304643.144   -12682744.80649  -9865512.68246  22304642.527    22304646.110
  23131423.201    -4392900.77949  -3406745.85046  23131422.528    23131427.851
  23760988.676   -10136310.67549  -7678595.18845  23760988.409    23760994.657
 03  4  2  1 39  0.0000000  0  8G14G31G17G 3G15G18G23G 9
  20229607.862   -28724085.22149 -22333484.92148  20229607.234    20229609.853
  22395741.694   -11893667.33549  -9255754.28046  22395741.131    22395746.430
  24111341.061    12232448.23549   9522716.15445  24111340.056    24111349.189
  22254938.660   -15631096.02049 -12163053.31947  22254938.197    22254943.966
  21342609.776   -17425652.16949 -13563715.99847  21342608.949    21342613.796
  22316191.924   -12622055.53849  -9818222.36546  22316191.332    22316194.908
  23142297.746    -4335754.41349  -3362216.22846  23142297.091    23142302.462
  23769295.514   -10092658.00849  -7644580.09745  23769295.239    23769301.638
 03  4  2  1 39 30.0000000  0  8G14G31G17G 3G15G18G23G 9
  20227393.097   -28735723.90549 -22342553.99948  20227392.448    20227395.061
  22397831.904   -11882683.24149  -9247195.23346  22397831.304    22397836.651
  24130225.293    12331685.42449   9600043.70745  24130224.333    24130233.518
  22265420.636   -15576012.79149 -12120131.36647  22265420.240    22265426.020
  21355667.984   -17357031.05849 -13510245.02947  21355667.159    21355672.001
  22327761.111   -12561259.43749  -9770848.80346  22327760.453    22327764.025
  23153180.196    -4278566.78149  -3317654.47046  23153179.557    23153184.925
  23777709.783   -10048441.05749  -7610125.31945  23777709.504    23777715.651
 03  4  2  1 40  0.0000000  0  9G14G31G25G17G 3G15G18G23G 9
  20225277.340   -28746841.97749 -22351217.41248  20225276.712    20225279.321
  22400026.736   -11871149.45749  -9238207.86546  22400026.135    22400031.493
  24536808.374    -5672015.30259  -4401813.06245  24536807.852    24536820.782
  24149148.607    12431128.16549   9677531.48245  24149147.723    24149156.864
  22275978.413   -15520531.63149 -12076899.34546  22275977.981    22275983.736
  21368798.652   -17288029.12349 -13456477.32147  21368797.819    21368802.671
  22339348.416   -12500367.53249  -9723400.59146  22339347.801    22339351.313
  23164068.538    -4221348.36249  -3273068.70946  23164067.890    23164073.250
  23786229.150   -10003671.37149  -7575239.85045  23786228.936    23786234.957
 03  4  2  1 40 30.0000000  0  9G14G31G25G17G 3G15G18G23G 9
  20223262.592   -28757429.53949 -22359467.43548  20223261.977    20223264.571
  22402327.962   -11859056.50949  -9228784.78046  22402327.332    22402332.693
  24518175.775    -5769927.81149  -4478108.11545  24518175.422    24518188.242
  24168112.865    12530785.55349   9755186.48545  24168112.034    24168121.321
  22286613.370   -15464644.79349 -12033351.20046  22286612.929    22286618.691
  21382003.624   -17218636.76349 -13402405.38347  21382002.787    21382007.631
  22350955.810   -12439369.98449  -9675870.05746  22350955.226    22350958.820
  23174964.695    -4164088.81049  -3228450.90146  23174964.046    23174969.433
  23794855.338    -9958339.79049  -7539916.53845  23794855.143    23794861.287
 03  4  2  1 41  0.0000000  0  9G14G31G25G17G 3G15G18G23G 9
  20221348.092   -28767490.15649 -22367306.85748  20221347.463    20221350.041
  22404734.783   -11846408.37649  -9218929.09246  22404734.215    22404739.498
  24499532.430    -5867897.34449  -4554447.60645  24499531.888    24499544.591
  24187117.202    12630652.99449   9833005.15545  24187116.408    24187125.636
  22297324.507   -15408357.73349 -11989491.20246  22297324.064    22297329.806
  21395282.202   -17148857.42449 -13348031.90247  21395281.365    21395286.213
  22362582.928   -12378269.40549  -9628259.23846  22362582.316    22362585.955
  23185868.197    -4106790.92949  -3183803.21046  23185867.498    23185872.931
  23803587.785    -9912450.60049  -7504158.70945  23803587.568    23803593.769
 03  4  2  1 41 30.0000000  0  9G14G31G25G17G 3G15G18G23G 9
  20219534.355   -28777021.44849 -22374733.81548  20219533.718    20219536.282
  22407247.658   -11833203.16549  -9208639.30946  22407247.046    22407252.375
  24480879.103    -5965918.67249  -4630827.48545  24480878.721    24480891.377
  24206161.786    12730732.20349   9910988.84745  24206160.903    24206170.214
  22308111.891   -15351669.73049 -11945318.78146  22308111.446    22308117.208
  21408634.821   -17078689.17249 -13293355.38047  21408633.961    21408638.837
  22374230.026   -12317063.55749  -9580566.39646  22374229.403    22374233.108
  23196779.526    -4049451.60049  -3139123.23146  23196778.855    23196784.224
  23812426.735    -9866002.27449  -7467965.18845  23812426.421    23812432.659
 03  4  2  1 42  0.0000000  0  9G14G31G25G17G 3G15G18G23G 9
  20217820.135   -28786029.53549 -22381753.07648  20217819.515    20217822.066
  22409865.269   -11819447.56649  -9197920.66346  22409864.654    22409870.046
  24462215.633    -6063994.37249  -4707249.73045  24462215.241    24462227.747
  24225245.293    12831016.07249   9989131.98545  24225244.382    24225253.868
  22318974.044   -15294588.89749 -11900840.25046  22318973.616    22318979.405
  21422060.164   -17008138.73649 -13238381.05347  21422059.297    21422064.181
  22385895.965   -12255758.35949  -9532796.11746  22385895.387    22385899.131
  23207697.713    -3992076.47149  -3094415.34446  23207696.986    23207702.447
  23821370.594    -9819001.44949  -7431341.15245  23821370.339    23821376.497
 03  4  2  1 42 30.0000000  0  9G14G31G25G17G 3G15G18G23G 9
  20216206.719   -28794507.94649 -22388359.60448  20216206.112    20216208.661
  22412588.759   -11805135.40549  -9186768.32746  22412588.158    22412593.526
  24443543.573    -6162114.65149  -4783706.71445  24443543.298    24443555.660
  24244368.873    12931510.79249  10067439.44545  24244368.003    24244377.505
  22329911.844   -15237110.52449 -11856051.95446  22329911.414    22329917.207
  21435559.449   -16937199.59249 -13183103.82947  21435558.582    21435563.511
  22397582.219   -12194346.75849  -9484942.93746  22397581.617    22397585.424
  23218624.023    -3934658.27949  -3049673.90946  23218623.341    23218628.766
  23830420.616    -9771442.46849  -7394282.19445  23830420.404    23830426.664
 03  4  2  1 43  0.0000000  0  9G14G31G25G17G 3G15G18G23G 9
  20214692.704   -28802463.89249 -22394559.01848  20214692.100    20214694.652
  22415416.745   -11790274.40849  -9175188.32446  22415416.160    22415421.503
  24424862.205    -6260284.10349  -4860202.04045  24424861.921    24424874.217
  24263530.938    13032207.94849  10145904.62745  24263530.038    24263539.601
  22340923.544   -15179243.86249 -11810961.09246  22340923.071    22340928.907
  21449131.275   -16865879.30749 -13127529.61947  21449130.406    21449135.307
  22409287.387   -12132835.88649  -9437012.40346  22409286.774    22409290.617
  23229557.292    -3877203.66549  -3004904.09246  23229556.633    23229562.066
  23839575.577    -9723333.29449  -7356794.51645  23839575.306    23839581.695
 03  4  2  1 43 30.0000000  0  9G14G31G25G17G 3G15G18G23G 9
  20213278.424   -28809895.89749 -22400350.16648  20213277.839    20213280.373
  22418349.373   -11774863.71449  -9163180.00446  22418348.759    22418354.014
  24406172.653    -6358497.72149  -4936731.73945  24406172.189    24406184.356
  24282731.626    13133108.46449  10224528.27645  24282730.775    24282740.448
  22352009.022   -15120989.44949 -11765568.07946  22352008.527    22352014.394
  21462775.889   -16794176.63449 -13071657.44347  21462775.030    21462779.885
  22421011.855   -12071223.56449  -9389002.79646  22421011.207    22421015.137
  23240497.847    -3819710.48149  -2960104.21546  23240497.179    23240502.684
  23848835.171    -9674673.15249  -7318877.52445  23848834.985    23848841.389
 03  4  2  1 44  0.0000000  0  8G14G31G25G 3G15G18G23G 9
  20211963.873   -28816803.82649 -22405732.94448  20211963.279    20211965.792
  22421386.476   -11758903.52049  -9150743.50446  22421385.847    22421391.097
  24387475.134    -6456751.85849  -5013293.02045  24387474.663    24387486.791
  22363168.031   -15062348.81849 -11719874.12646  22363167.531    22363173.344
  21476493.276   -16722091.67049 -13015487.37947  21476492.364    21476497.283
  22432755.659   -12009509.21449  -9340913.72146  22432755.047    22432758.953
  23251445.968    -3762177.62849  -2915273.42746  23251445.280    23251450.859
  23858199.634    -9625462.63649  -7280531.66045  23858199.423    23858205.906
 03  4  2  1 44 30.0000000  0  8G14G31G25G 3G15G18G23G 9
  20210748.919   -28823188.42449 -22410707.93448  20210748.310    20210750.804
  22424527.876   -11742395.12149  -9137879.82246  22424527.273    22424532.568
  24368770.415    -6555044.47449  -5089884.26845  24368770.052    24368781.839
  22374400.058   -15003324.35949 -11673881.08146  22374399.565    22374405.377
  21490283.168   -16649625.22649 -12959020.06147  21490282.267    21490287.226
  22444518.941   -11947693.26849  -9292745.45646  22444518.313    22444522.127
  23262401.629    -3704605.09449  -2870411.71646  23262400.955    23262406.583
  23867668.636    -9575703.22549  -7241758.07345  23867668.448    23867674.685
 03  4  2  1 45  0.0000000  0  8G14G31G25G 3G15G18G23G 9
  20209633.544   -28829049.74249 -22415275.16848  20209632.932    20209635.415
  22427773.447   -11725339.21749  -9124589.52046  22427772.856    22427778.186
  24350059.029    -6653372.20349  -5166502.84545  24350058.646    24350070.393
  22385704.671   -14943918.29749 -11627590.68246  22385704.179    22385709.987
  21504145.626   -16576777.69149 -12902255.77947  21504144.720    21504149.712
  22456301.519   -11885775.37049  -9244497.74446  22456300.926    22456304.698
  23273365.051    -3646992.33949  -2825518.67646  23273364.405    23273369.945
  23877241.547    -9525395.80849  -7202557.47745  23877241.390    23877247.805
 03  4  2  1 45 30.0000000  0  8G14G31G25G 3G15G18G23G 9
  20208616.783   -28834392.72749 -22419438.51248  20208616.166    20208618.662
  22431122.288   -11707741.15649  -9110876.78246  22431121.688    22431126.991
  24331340.549    -6751736.79749  -5243150.14245  24331340.165    24331351.792
  22397080.632   -14884137.29149 -11581008.12646  22397080.164    22397086.014
  21518079.658   -16503554.22549 -12845198.57447  21518078.734    21518083.686
  22468102.651   -11823760.11449  -9196174.17846  22468102.046    22468105.791
  23284335.286    -3589343.43749  -2780597.45846  23284334.581    23284340.172
  23886917.885    -9474546.11549  -7162934.33545  23886917.790    23886924.250
 03  4  2  1 46  0.0000000  0  8G14G31G25G 3G15G18G23G 9
  20207699.495   -28839212.95049 -22423194.50348  20207698.891    20207701.372
  22434575.050   -11689596.97849  -9096738.47746  22434574.447    22434579.714
  24312616.602    -6850130.17849  -5319819.86445  24312616.127    24312627.704
  22408528.481   -14823978.78749 -11534131.41246  22408527.979    22408533.806
  21532085.894   -16429950.82249 -12787845.31247  21532084.998    21532090.003
  22479923.314   -11761642.41249  -9147770.77346  22479922.683    22479926.354
  23295313.310    -3531653.14249  -2735643.99646  23295312.591    23295318.258
  23896698.109    -9423150.68349  -7122885.92945  23896698.030    23896704.567
 03  4  2  1 46 30.0000000  0  8G14G31G25G 3G15G18G23G 9
  20206881.109   -28843513.65949 -22426545.68548  20206880.518    20206882.983
  22438130.985   -11670910.63549  -9082177.69046  22438130.346    22438135.708
  24293887.058    -6948552.50949  -5396512.12645  24293886.673    24293898.064
  22420047.116   -14763448.11749 -11486964.70346  22420046.644    22420052.433
  21546163.814   -16355970.76949 -12730198.55647  21546162.942    21546167.952
  22491762.876   -11699425.24449  -9099289.86846  22491762.237    22491765.879
  23306298.884    -3473923.95049  -2690660.22946  23306298.155    23306303.813
  23906581.638    -9371213.53149  -7082415.39045  23906581.399    23906587.737
 03  4  2  1 47  0.0000000  0  8G14G31G25G 3G15G18G23G 9
  20206161.373   -28847295.87949 -22429492.84848  20206160.756    20206163.222
  22441789.807   -11651683.38049  -9067195.43646  22441789.153    22441794.497
  24275152.690    -7047000.88749  -5473224.69345  24275152.233    24275163.595
  22431636.045   -14702547.82349 -11439509.97346  22431635.572    22431641.413
  21560313.269   -16281615.04649 -12672259.06947  21560312.416    21560317.427
  22503621.285   -11637108.87749  -9050731.65546  22503620.628    22503624.297
  23317291.793    -3416155.75849  -2645646.05846  23317291.076    23317296.702
  23916567.674    -9318736.00149  -7041523.81545  23916567.405    23916573.763
 03  4  2  1 47 30.0000000  0  8G14G31G25G 3G15G18G23G 9
  20205540.055   -28850560.80449 -22432036.92248  20205539.436    20205541.901
  22445551.150   -11631916.99649  -9051793.08346  22445550.579    22445555.907
  24256413.699    -7145473.30649  -5549955.97445  24256413.215    24256424.536
  22443294.735   -14641281.04449 -11391769.67646  22443294.291    22443300.135
  21574533.908   -16206885.24949 -12614028.09347  21574533.031    21574538.048
  22515498.556   -11574693.58849  -9002096.36246  22515497.886    22515501.514
  23328292.096    -3358348.83149  -2600601.71046  23328291.370    23328296.944
  23926656.357    -9265720.32649  -7000212.86845  23926656.100    23926662.226
 03  4  2  1 48  0.0000000  0  8G14G31G25G 3G15G18G23G 9
  20205017.368   -28853307.27449 -22434177.00248  20205016.778    20205019.237
  22449415.296   -11611610.95449  -9035970.21046  22449414.704    22449420.028
  24237671.016    -7243965.30249  -5626702.52845  24237670.580    24237681.687
  22455023.104   -14579648.21649 -11343744.14546  22455022.691    22455028.504
  21588825.894   -16131780.54349 -12555504.98547  21588825.017    21588830.028
  22527394.869   -11512177.75649  -8953382.74346  22527394.229    22527397.925
  23339300.132    -3300501.16749  -2555525.61146  23339299.429    23339304.976
  23936847.563    -9212165.93249  -6958482.14245  23936847.295    23936853.197
 03  4  2  1 48 30.0000000  0  9G14G31G25G 3G11G15G18G23G 9
  20204592.694   -28855538.96049 -22435915.95748  20204592.092    20204594.542
  22453381.330   -11590769.52549  -9019730.16446  22453380.698    22453386.070
  24218924.511    -7342477.45949  -5703464.79045  24218924.108    24218935.140
  22466820.040   -14517655.10649 -11295437.88746  22466819.614    22466825.482
  24671202.652    -5150869.63759  -3711088.70345  24671202.092    24671209.540
  21603188.543   -16056304.70449 -12496692.68247  21603187.644    21603192.641
  22539309.698   -11449564.57449  -8904593.25046  22539309.071    22539312.823
  23350315.419    -3242615.67149  -2510420.04146  23350314.714    23350320.209
  23947140.307    -9158077.46549  -6916335.27445  23947139.990    23947145.936
 03  4  2  1 49  0.0000000  0  9G14G31G25G 3G11G15G18G23G 9
  20204265.116   -28857260.22149 -22437257.16948  20204264.529    20204266.986
  22457448.302   -11569397.35049  -9003076.53946  22457447.673    22457453.095
  24200173.980    -7441010.48049  -5780243.32645  24200173.599    24200184.488
  22478684.381   -14455307.73149 -11246855.56746  22478683.951    22478689.834
  24652114.821    -5251176.11149  -3789249.44645  24652114.326    24652121.513
  21617620.916   -15980461.81749 -12437594.35947  21617620.013    21617625.057
  22551242.261   -11386858.22749  -8855731.17246  22551241.630    22551245.428
  23361337.268    -3184695.62449  -2465287.55846  23361336.523    23361342.113
  23957533.556    -9103459.87349  -6873776.09845  23957533.196    23957539.226
 03  4  2  1 49 30.0000000  0  9G14G31G25G 3G11G15G18G23G 9
  20204036.329   -28858462.47649 -22438193.96048  20204035.727    20204038.186
  22461617.836   -11547486.40049  -8986003.10446  22461617.196    22461622.633
  24181421.778    -7539551.97849  -5857028.46245  24181421.471    24181432.331
  22490617.489   -14392598.99649 -11197991.67646  22490617.070    22490622.965
  24633038.600    -5351420.82149  -3867362.07945  24633038.293    24633045.445
  21632124.714   -15904243.76149 -12378203.69947  21632123.853    21632128.935
  22563194.406   -11324049.02949  -8806788.95146  22563193.826    22563197.632
  23372367.416    -3126731.36449  -2420120.61946  23372366.687    23372372.357
  23968029.114    -9048305.31749  -6830798.52045  23968028.729    23968034.690
 03  4  2  1 50  0.0000000  0  9G14G31G25G 3G11G15G18G23G 9
  20203905.631   -28859149.28349 -22438729.10048  20203905.008    20203907.461
  22465889.092   -11525040.91049  -8968513.13146  22465888.469    22465893.833
  24162668.126    -7638102.23549  -5933820.41645  24162667.634    24162678.300
  22502618.363   -14329534.56749 -11148850.61546  22502617.902    22502623.784
  24613974.038    -5451604.72949  -3945427.33645  24613973.831    24613980.840
  21646699.181   -15827654.47049 -12318523.75547  21646698.303    21646703.374
  22575165.595   -11261139.70549  -8757768.71046  22575165.008    22575168.917
  23383405.596    -3068725.60449  -2374921.33946  23383404.846    23383410.495
  23978625.834    -8992618.34049  -6787406.05745  23978625.364    23978631.431
 03  4  2  1 50 30.0000000  0  9G14G31G25G 3G11G15G18G23G 9
  20203872.671   -28859322.40049 -22438863.97148  20203872.050    20203874.498
  22470261.618   -11502063.21449  -8950608.45446  22470260.992    22470266.348
  24143913.040    -7736659.34049  -6010617.73245  24143912.578    24143923.016
  22514686.189   -14266117.91049 -11099435.10446  22514685.717    22514691.625
  24594921.330    -5551726.73749  -4023444.35245  24594921.021    24594928.238
  21661343.980   -15750695.68149 -12258555.91047  21661343.094    21661348.177
  22587155.687   -11198131.39749  -8708671.34946  22587155.088    22587159.040
  23394451.522    -3010678.84349  -2329690.10746  23394450.759    23394456.433
  23989323.427    -8936401.60949  -6743600.82345  23989323.027    23989329.300
 03  4  2  1 51  0.0000000  0  9G14G31G25G 3G11G15G18G23G 9
  20203936.990   -28858984.44349 -22438600.59248  20203936.346    20203938.793
  22474734.844   -11478556.01149  -8932291.16346  22474734.205    22474739.725
  24125156.690    -7835221.80449  -6087419.20045  24125156.323    24125166.917
  22526820.261   -14202353.11049 -11049748.30046  22526819.827    22526825.770
  24575880.449    -5651786.54249  -4101412.91945  24575880.322    24575887.412
  21676058.645   -15673369.80349 -12198302.00347  21676057.767    21676062.837
  22599164.314   -11135025.90949  -8659498.25346  22599163.754    22599167.636
  23405505.065    -2952592.23149  -2284427.83146  23405504.336    23405509.909
  24000121.252    -8879658.15949  -6699385.13945  24000121.042    24000127.083
 03  4  2  1 51 30.0000000  0  9G14G31G25G 3G11G15G18G23G 9
  20204098.757   -28858134.16749 -22437938.01448  20204098.124    20204100.544
  22479308.802   -11454519.43949  -8913561.38646  22479308.218    22479313.771
  24106400.068    -7933785.58149  -6164221.71045  24106399.867    24106410.297
  22539020.315   -14138241.54549 -10999791.29946  22539019.901    22539025.850
  24556852.378    -5751780.02149  -4179329.81345  24556852.045    24556859.103
  21690843.258   -15595676.38949 -12137761.71847  21690842.372    21690847.406
  22611191.768   -11071821.31149  -8610247.94446  22611191.218    22611195.074
  23416566.434    -2894464.17949  -2239133.26046  23416565.719    23416571.284
  24011019.277    -8822388.14549  -6654759.14545  24011019.047    24011025.077
 03  4  2  1 52  0.0000000  0  9G14G31G25G 3G11G15G18G23G 9
  20204357.303   -28856775.15549 -22436879.01148  20204356.685    20204359.108
  22483982.946   -11429957.33649  -8894422.09646  22483982.253    22483987.789
  24087643.480    -8032350.52149  -6241025.14145  24087643.223    24087653.517
  22551285.480   -14073787.89849 -10949567.74146  22551285.050    22551291.003
  24537836.766    -5851707.57249  -4257195.31045  24537836.399    24537843.213
  21705697.139   -15517618.90349 -12076937.72447  21705696.239    21705701.302
  22623237.578   -11008520.35949  -8560922.55346  22623236.999    22623240.895
  23427635.216    -2836296.98149  -2193808.20146  23427634.516    23427640.192
  24022016.811    -8764595.71249  -6609726.08945  24022016.603    24022022.763
 03  4  2  1 52 30.0000000  0  9G14G31G25G 3G11G15G18G23G 9
  20204713.179   -28854904.81349 -22435421.58248  20204712.579    20204714.999
  22488757.371   -11404867.44849  -8874871.57146  22488756.708    22488762.259
  24068887.834    -8130910.15149  -6317824.44345  24068887.636    24068897.831
  22563615.934   -14008991.39949 -10899077.03046  22563615.504    22563621.430
  24518834.728    -5951563.98349  -4335005.37945  24518834.284    24518841.177
  21720620.760   -15439194.65649 -12015827.95447  21720619.907    21720624.937
  22635302.356   -10945119.52449  -8511519.33646  22635301.747    22635305.712
  23438712.368    -2778086.64349  -2148449.51146  23438711.667    23438717.338
  24033114.253    -8706278.74149  -6564284.28945  24033113.961    24033120.268
 03  4  2  1 53  0.0000000  0  9G14G31G25G 3G11G15G18G23G 9
  20205165.318   -28852528.77849 -22433570.09548  20205164.716    20205167.149
  22493631.038   -11379256.00949  -8854914.63646  22493630.394    22493635.940
  24050132.827    -8229466.35149  -6394621.08645  24050132.670    24050142.784
  22576010.205   -13943859.24049 -10848324.75746  22576009.783    22576015.764
  24499845.795    -6051351.80149  -4412762.00145  24499845.290    24499852.081
  21735613.076   -15360409.64849 -11954437.06647  21735612.209    21735617.289
  22647385.283   -10881623.74749  -8462042.13246  22647384.672    22647388.571
  23449796.801    -2719837.68849  -2103060.73346  23449796.084    23449801.742
  24044310.291    -8647443.55749  -6518438.69845  24044310.000    24044316.448
 03  4  2  1 53 30.0000000  0  9G14G31G25G 3G11G15G18G23G 9
  20205713.968   -28849645.39549 -22431323.27948  20205713.366    20205715.794
  22498604.203   -11353122.05149  -8834550.53146  22498603.571    22498609.093
  24031379.587    -8328014.07649  -6471411.14145  24031379.333    24031389.401
  22588468.392   -13878391.54649 -10797311.03646  22588467.949    22588473.945
  24480870.644    -6151066.62849  -4490461.73245  24480870.027    24480876.655
  21750674.315   -15281262.43549 -11892763.94147  21750673.462    21750678.521
  22659486.662   -10818030.66149  -8412489.10246  22659486.004    22659489.955
  23460889.032    -2661547.47749  -2057639.80046  23460888.325    23460893.962
  24055604.955    -8588089.64949  -6472188.91045  24055604.641    24055611.244
 03  4  2  1 54  0.0000000  0  9G14G31G25G 3G11G15G18G23G 9
  20206358.907   -28846256.11049 -22428682.25348  20206358.309    20206360.714
  22503676.433   -11326467.56349  -8813780.81346  22503675.770    22503681.290
  24012628.337    -8426550.59749  -6548192.47545  24012628.184    24012638.067
  22600989.736   -13812591.53149 -10746038.35346  22600989.281    22600995.323
  24461909.775    -6250706.66049  -4568103.18745  24461909.022    24461915.729
  21765804.211   -15201754.57049 -11830809.78447  21765803.318    21765808.412
  22671606.366   -10754340.91249  -8362860.74546  22671605.753    22671609.695
  23471989.197    -2603216.12949  -2012186.82046  23471988.510    23471994.107
  24066997.942    -8528219.15949  -6425536.57945  24066997.654    24067004.155
 03  4  2  1 54 30.0000000  0  9G14G31G25G 3G11G15G18G23G 9
  20207099.686   -28842363.19249 -22425648.78848  20207099.096    20207101.486
  22508847.106   -11299295.27949  -8792607.60446  22508846.480    22508852.029
  23993879.554    -8525074.56449  -6624964.05045  23993879.433    23993889.216
  22613573.596   -13746463.14349 -10694509.79546  22613573.129    22613579.179
  24442963.376    -6350270.81849  -4645685.54945  24442962.599    24442969.206
  21781002.217   -15121888.21049 -11768576.28447  21781001.377    21781006.486
  22683744.399   -10690555.62149  -8313157.95046  22683743.760    22683747.622
  23483097.034    -2544844.59549  -1966702.52346  23483096.321    23483101.959
  24078488.563    -8467835.01249  -6378483.97745  24078488.258    24078494.561
 03  4  2  1 55  0.0000000  0  9G14G31G25G 3G11G15G18G23G 9
  20207936.621   -28837964.86749 -22422221.50448  20207936.037    20207938.413
  22514116.599   -11271604.13749  -8771030.11546  22514115.972    22514121.466
  23975134.269    -8623580.29349  -6701721.41945  23975134.121    23975143.868
  22626219.976   -13680006.39349 -10642725.38046  22626219.464    22626225.511
  24424032.093    -6449754.62349  -4723205.30345  24424031.355    24424037.976
  21796268.850   -15041661.61849 -11706062.09147  21796268.007    21796273.055
  22695900.976   -10626672.18249  -8263378.65646  22695900.395    22695904.234
  23494212.915    -2486429.93749  -1921184.61646  23494212.235    23494217.921
  24090077.336    -8406936.53549  -6331030.62145  24090077.096    24090083.001
 03  4  2  1 55 30.0000000  0  9G14G31G25G 3G11G15G18G23G 9
  20208869.703   -28833061.22249 -22418400.46748  20208869.131    20208871.504
  22519484.700   -11243394.82849  -8749048.86546  22519484.036    22519489.514
  23956392.956    -8722064.86449  -6778462.31845  23956392.845    23956402.531
  22638928.377   -13613223.14949 -10590686.54746  22638927.877    22638933.997
  24405116.628    -6549155.08649  -4800660.09945  24405115.990    24405122.644
  21811604.019   -14961075.25449 -11643267.55147  21811603.151    21811608.211
  22708076.472   -10562689.71549  -8213522.20446  22708075.887    22708079.666
  23505337.261    -2427971.14149  -1875632.31646  23505336.585    23505342.368
  24101763.730    -8345524.55249  -6283177.11745  24101763.547    24101769.284
 03  4  2  1 56  0.0000000  0  9G14G31G25G 3G11G15G18G23G 9
  20209897.348   -28827660.83849 -22414192.35848  20209896.770    20209899.143
  22524949.604   -11214676.46149  -8726670.93046  22524948.972    22524954.469
  23937654.995    -8820532.42649  -6855189.96945  23937654.787    23937664.370
  22651697.087   -13546123.19449 -10538400.92446  22651696.597    22651702.756
  24386216.004    -6648477.56249  -4878054.11945  24386215.544    24386222.072
  21827005.874   -14880137.80049 -11580199.44047  21827005.029    21827010.107
  22720269.306   -10498615.96149  -8163594.61046  22720268.725    22720272.502
  23516468.656    -2369475.37949  -1830051.22046  23516467.938    23516473.716
  24113546.027    -8283608.23149  -6234930.64945  24113545.879    24113551.581
 03  4  2  1 56 30.0000000  0  9G14G31G25G 3G11G15G18G23G 9
  20211020.674   -28821757.71849 -22409592.50948  20211020.062    20211022.434
  22530512.488   -11185443.62849  -8703892.12046  22530511.821    22530517.292
  23918922.149    -8918973.33649  -6931896.85345  23918921.806    23918931.345
  22664526.827   -13478702.46449 -10485865.35746  22664526.395    22664532.562
  24367332.057    -6747712.93649  -4955380.27145  24367331.538    24367338.037
  21842475.729   -14798843.18349 -11516853.01547  21842474.929    21842479.974
  22732480.969   -10434443.82649  -8113590.34946  22732480.331    22732484.066
  23527608.466    -2310935.19949  -1784435.49146  23527607.736    23527613.531
  24125425.174    -8221182.49249  -6186287.24045  24125424.986    24125430.701
 03  4  2  1 57  0.0000000  0  9G14G31G25G 3G11G15G18G23G 9
  20212238.991   -28815355.48149 -22404603.74248  20212238.379    20212240.753
  22536172.365   -11155700.59349  -8680715.75146  22536171.753    22536177.251
  23900194.148    -9017387.38549  -7008582.82445  23900193.951    23900203.325
  22677416.637   -13410966.24049 -10433083.94946  22677416.251    22677422.394
  24348464.546    -6846861.71149  -5032638.92545  24348464.099    24348470.491
  21858012.889   -14717195.13349 -11453231.18847  21858012.093    21858017.115
  22744710.732   -10370175.95249  -8063511.49546  22744710.115    22744713.858
  23538756.219    -2252352.95049  -1738786.99446  23538755.538    23538761.381
  24137400.394    -8158252.01449  -6137250.50745  24137400.077    24137405.827
 03  4  2  1 57 30.0000000  0  9G14G31G25G 3G11G15G18G23G 9
  20213552.359   -28808453.57949 -22399225.62348  20213551.739    20213554.086
  22541929.338   -11125447.45249  -8657141.88946  22541928.707    22541934.259
  23881472.104    -9115770.37949  -7085244.58245  23881472.011    23881481.312
  22690366.270   -13342915.67249 -10380057.59746  22690365.847    22690372.014
  24329614.322    -6945919.94249  -5109826.99245  24329613.839    24329620.253
  21873617.327   -14635193.36249 -11389333.74247  21873616.500    21873621.565
  22756958.910   -10305810.95349  -8013356.94746  22756958.326    22756962.131
  23549912.424    -2193726.72049  -1693104.22746  23549911.795    23549917.568
  24149471.617    -8094817.04249  -6087820.65545  24149471.319    24149477.167
 03  4  2  1 58  0.0000000  0  9G14G31G25G 3G11G15G18G23G 9
  20214959.979   -28801056.21949 -22393461.43448  20214959.395    20214961.744
  22547782.507   -11094688.90749  -8633174.21346  22547781.925    22547787.410
  23862756.059    -9214122.22949  -7161882.10245  23862755.999    23862765.193
  22703374.596   -13274556.59549 -10326790.84146  22703374.161    22703380.377
  24310781.146    -7044888.88849  -5186945.48445  24310780.647    24310786.941
  21889288.323   -14552841.96849 -11325163.85747  21889287.481    21889292.562
  22769225.070   -10241351.72449  -7963128.96946  22769224.494    22769228.295
  23561076.437    -2135059.35049  -1647389.40046  23561075.846    23561081.563
  24161637.965    -8030882.39749  -6038001.45745  24161637.696    24161643.795
 03  4  2  1 58 30.0000000  0  9G14G31G25G 3G11G15G18G23G 9
  20216462.276   -28793161.49549 -22387309.69248  20216461.695    20216464.027
  22553732.084   -11063423.54149  -8608811.61646  22553731.497    22553736.966
  23844047.174    -9312437.00849  -7238490.73245  23844047.121    23844056.213
  22716441.850   -13205888.22649 -10273283.08246  22716441.365    22716447.625
  24291965.954    -7143763.07649  -5263990.12045  24291965.414    24291971.565
  21905026.281   -14470138.90449 -11260719.94647  21905025.406    21905030.476
  22781509.716   -10176795.56549  -7912825.47146  22781509.149    22781512.989
  23572248.848    -2076347.50749  -1601639.92446  23572248.252    23572253.967
  24173899.599    -7966446.97249  -5987792.03545  24173899.378    24173905.480
 03  4  2  1 59  0.0000000  0  9G14G31G25G 3G11G15G18G23G 9
  20218058.487   -28784773.43349 -22380773.52648  20218057.890    20218060.224
  22559777.239   -11031656.24549  -8584057.89646  22559776.621    22559782.101
  23825345.238    -9410715.25249  -7315070.90545  23825345.147    23825354.128
  22729566.671   -13136916.74649 -10219539.14146  22729566.229    22729572.521
  24273168.534    -7242543.35449  -5340961.57345  24273167.966    24273174.114
  21920830.270   -14387088.48249 -11196005.36847  21920829.436    21920834.492
  22793812.279   -10112145.24749  -7862448.58746  22793811.663    22793815.477
  23583429.278    -2017593.87549  -1555857.87546  23583428.672    23583434.296
  24186255.685    -7901515.47649  -5937196.06845  24186255.353    24186261.579
 03  4  2  1 59 30.0000000  0  9G14G31G25G 3G11G15G18G23G 9
  20219748.526   -28775892.02149 -22373852.93148  20219747.930    20219750.291
  22565917.824   -10999387.56749  -8558913.49346  22565917.190    22565922.703
  23806651.068    -9508952.70549  -7391619.28745  23806650.969    23806659.793
  22742748.929   -13067643.82149 -10165560.29746  22742748.483    22742754.751
  24254389.521    -7341226.85149  -5417857.57445  24254388.926    24254395.183
  21936700.319   -14303690.87649 -11131020.24947  21936699.449    21936704.533
  22806132.913   -10047399.50149  -7811997.35446  22806132.304    22806136.161
  23594618.021    -1958797.02149  -1510042.14446  23594617.376    23594622.927
  24198706.141    -7836088.89649  -5886214.32645  24198705.694    24198711.776
 03  4  2  2  0  0.0000000  0  9G14G31G25G 3G11G15G18G23G 9
  20221532.237   -28766518.55749 -22366548.91548  20221531.635    20221534.000
  22572153.396   -10966619.52049  -8533379.96946  22572152.744    22572158.265
  23787965.189    -9607147.16749  -7468134.18445  23787964.966    23787973.612
  22755988.051   -12998072.22249 -10111348.71846  22755987.578    22755993.866
  24235629.284    -7439811.54549  -5494676.60045  24235628.784    24235634.902
  21952636.218   -14219947.47349 -11065765.68447  21952635.357    21952640.423
  22818471.638    -9982559.01849  -7761472.28946  22818470.991    22818474.890
  23605814.936    -1899956.92149  -1464192.74846  23605814.305    23605819.843
  24211250.256    -7770169.70949  -5834848.72645  24211249.750    24211255.805
 03  4  2  2  0 30.0000000  0  9G14G31G25G 3G11G15G18G23G 9
  20223409.342   -28756654.24049 -22358862.42248  20223408.735    20223411.088
  22578483.726   -10933353.59249  -8507458.49346  22578483.081    22578488.541
  23769288.044    -9705295.34749  -7544613.00745  23769287.785    23769296.343
  22769283.497   -12928204.42249 -10056906.34546  22769283.024    22769289.330
  24216888.244    -7538294.84149  -5571416.60245  24216887.768    24216893.976
  21968637.739   -14135858.97349 -11000242.21447  21968636.869    21968641.956
  22830828.400    -9917623.61149  -7710873.27546  22830827.767    22830831.648
  23617020.204    -1841072.94549  -1418309.12146  23617019.628    23617025.126
  24223887.550    -7703759.38349  -5783100.42645  24223887.161    24223893.253
 03  4  2  2  1  0.0000000  0  9G14G31G25G 3G11G15G18G23G 9
  20225380.238   -28746297.13149 -22350791.93648  20225379.631    20225381.999
  22584909.004   -10899588.73949  -8481148.24546  22584908.304    22584913.741
  23750620.602    -9803391.39649  -7621051.22145  23750620.528    23750628.949
  22782635.354   -12858040.23849 -10002233.01946  22782634.880    22782641.216
  24198167.595    -7636671.67849  -5648073.63845  24198167.018    24198173.286
  21984705.240   -14051423.91749 -10934448.70447  21984704.336    21984709.459
  22843203.919    -9852590.15049  -7660197.84046  22843203.220    22843207.026
  23628234.421    -1782141.85549  -1372388.80946  23628233.834    23628239.228
  24236618.787    -7636857.04949  -5730968.72545  24236618.409    24236624.400
 03  4  2  2  1 30.0000000  0  9G14G31G25G 3G11G15G18G23G 9
  20227443.002   -28735457.09449 -22342345.12948  20227442.403    20227444.779
  22591427.184   -10865335.40549  -8454457.35246  22591426.481    22591432.025
  23731962.117    -9901441.46949  -7697453.59445  23731962.025    23731970.349
  22796041.364   -12787591.07649  -9947337.63046  22796040.919    22796047.239
  24179465.954    -7734948.58649  -5724652.82645  24179465.375    24179471.668
  22000836.705   -13966652.28649 -10868392.92047  22000835.868    22000841.004
  22855596.382    -9787467.12849  -7609452.63146  22855595.660    22855599.557
  23639456.022    -1723171.95749  -1326438.25345  23639455.355    23639460.775
  24249441.603    -7569473.39249  -5678461.99545  24249441.182    24249447.274
 03  4  2  2  2  0.0000000  0  9G14G31G25G 3G11G15G18G23G 9
  20229598.789   -28724128.17549 -22333517.38348  20229598.191    20229600.582
  22598039.357   -10830588.30749  -8427381.72446  22598038.693    22598044.177
  23713314.327    -9999435.64349  -7773812.42345  23713314.175    23713322.502
  22809502.480   -12716852.71049  -9892216.89546  22809502.061    22809508.310
  24160785.095    -7833116.34549  -5801146.96845  24160784.537    24160790.710
  22017033.415   -13881538.11349 -10802070.23347  22017032.595    22017037.716
  22868007.210    -9722247.56549  -7558632.19446  22868006.568    22868010.438
  23650686.393    -1664155.93149  -1280451.75645  23650685.731    23650691.194
  24262356.670    -7501603.37549  -5625576.28545  24262356.270    24262362.566
 03  4  2  2  2 30.0000000  0  9G14G31G25G 3G11G15G18G23G 9
  20231847.779   -28712309.61549 -22324308.09748  20231847.204    20231849.557
  22604745.507   -10795347.40949  -8399921.31246  22604744.861    22604750.278
  23694678.012   -10097368.83049  -7850123.74045  23694677.896    23694686.210
  22823018.548   -12645825.76849  -9836871.30346  22823018.103    22823024.310
  24142125.837    -7931170.64049  -5877552.70645  24142125.305    24142131.368
  22033295.479   -13796080.70649 -10735480.08847  22033294.618    22033299.726
  22880436.892    -9656929.61849  -7507735.10646  22880436.223    22880440.028
  23661926.035    -1605091.42749  -1234427.48646  23661925.380    23661930.882
  24275364.517    -7433247.02649  -5572311.60645  24275364.145    24275370.260
 03  4  2  2  3  0.0000000  0  9G14G31G25G 3G11G15G18G23G 9
  20234187.968   -28700011.69549 -22314725.27848  20234187.384    20234189.759
  22611543.556   -10759623.41149  -8372084.45246  22611542.885    22611548.372
  23676052.264   -10195246.81649  -7926392.02545  23676052.130    23676060.368
  22836587.230   -12574522.01649  -9781309.99346  22836586.770    22836593.059
  24123486.904    -8029118.09949  -5953875.20345  24123486.318    24123492.464
  22049620.923   -13710290.20249 -10668630.37847  22049620.026    22049625.202
  22892883.587    -9591522.15349  -7456768.24346  22892882.887    22892886.660
  23673173.268    -1545986.88949  -1188372.00345  23673172.633    23673178.133
  24288462.866    -7364415.18349  -5518676.41545  24288462.577    24288468.602
 03  4  2  2  3 30.0000000  0  9G14G31G25G 3G11G15G18G23G 9
  20236620.615   -28687227.85149 -22304763.81648  20236620.069    20236622.435
  22618434.551   -10723410.59449  -8343866.69846  22618433.924    22618439.473
  23657438.899   -10293059.73049  -8002609.61845  23657438.747    23657446.886
  22850209.473   -12502936.59249  -9725529.20746  22850209.059    22850215.363
  24104870.171    -8126948.86949  -6030106.81045  24104869.526    24104875.705
  22066010.892   -13624160.15349 -10601516.09146  22066009.999    22066015.241
  22905348.674    -9526017.55649  -7405725.71146  22905347.978    22905351.830
  23684429.577    -1486834.51749  -1142279.26445  23684428.951    23684434.505
  24301652.454    -7295102.30249  -5464666.39945  24301652.255    24301658.555
 03  4  2  2  4  0.0000000  0  9G14G31G25G 3G11G15G18G23G 9
  20239144.595   -28673964.07649 -22294428.39148  20239144.052    20239146.405
  22625417.465   -10686715.44949  -8315273.10446  22625416.840    22625422.350
  23638837.670   -10390808.87149  -8078777.51145  23638837.504    23638845.552
  22863884.022   -12431076.88349  -9669534.69846  22863883.592    22863889.902
  24086275.170    -8224665.56449  -6106249.53845  24086274.590    24086280.646
  22082464.390   -13537696.54149 -10534141.89746  22082463.518    22082468.785
  22917831.369    -9460420.46649  -7354611.11446  22917830.726    22917834.521
  23695694.223    -1427638.38049  -1096152.41845  23695693.592    23695699.125
  24314932.505    -7225315.23549  -5410286.82145  24314932.482    24314938.394
 03  4  2  2  4 30.0000000  0  9G14G31G25G 3G11G15G18G23G 9
  20241760.268   -28660218.61949 -22283717.61648  20241759.711    20241762.058
  22632492.282   -10649537.08549  -8286302.96646  22632491.642    22632497.166
  23620249.679   -10488488.69549  -8154891.38645  23620249.442    23620257.425
  22877610.744   -12358942.80249  -9613326.39046  22877610.320    22877616.596
  24067702.757    -8322263.29649  -6182299.56945  24067702.266    24067708.263
  22098981.624   -13450897.93749 -10466506.66346  22098980.774    22098986.067
  22930332.284    -9394727.86749  -7303422.09646  22930331.651    22930335.485
  23706967.857    -1368395.41149  -1049989.09145  23706967.238    23706972.698
  24328302.846    -7155053.13449  -5355537.17045  24328302.736    24328309.054
 03  4  2  2  5  0.0000000  0  9G14G31G25G 3G11G15G18G23G 9
  20244467.150   -28645993.94749 -22272633.42948  20244466.558    20244468.912
  22639658.567   -10611878.42949  -8256958.57846  22639657.901    22639663.396
  23601675.097   -10586097.70449  -8230950.08646  23601674.841    23601682.795
  22891388.981   -12286538.27449  -9556907.34846  22891388.482    22891394.802
  24049153.282    -8419740.48549  -6258255.68445  24049152.818    24049158.792
  22115562.178   -13363766.42749 -10398612.02746  22115561.355    22115566.680
  22942851.147    -9328940.68749  -7252159.38346  22942850.535    22942854.472
  23718250.189    -1309106.24849  -1003789.74645  23718249.607    23718255.190
  24341763.071    -7084319.17049  -5300419.75545  24341762.969    24341769.063
 03  4  2  2  5 30.0000000  0  9G14G31G25G 3G11G15G18G23G 9
  20247265.221   -28631289.95449 -22261175.75248  20247264.620    20247266.993
  22646915.998   -10573740.15349  -8227240.46546  22646915.377    22646920.882
  23583114.947   -10683631.33949  -8306950.05846  23583114.660    23583122.521
  22905218.320   -12213864.61149  -9500278.58346  22905217.897    22905224.184
  24030627.481    -8517093.61649  -6334115.14545  24030627.043    24030632.961
  22132206.121   -13276302.27249 -10330458.18646  22132205.283    22132210.612
  22955388.358    -9263057.70349  -7200822.00546  22955387.745    22955391.647
  23729541.653    -1249769.26049   -957553.13945  23729541.120    23729546.714
  24355312.928    -7013113.89649  -5244935.15145  24355312.729    24355318.964
 03  4  2  2  6  0.0000000  0  8G14G31G25G 3G11G15G18G23
  20250153.406   -28616112.22549 -22249348.92448  20250152.811    20250155.208
  22654263.517   -10535128.40449  -8197153.40446  22654262.920    22654268.500
  23564568.822   -10781090.91349  -8382892.32046  23564568.509    23564576.316
  22919097.613   -12140928.81149  -9443445.56046  22919097.199    22919103.470
  24012124.927    -8614324.65249  -6409879.45445  24012124.503    24012130.374
  22148912.314   -13188510.66849 -10262049.19746  22148911.508    22148916.902
  22967943.009    -9197082.99149  -7149413.16946  22967942.344    22967946.230
  23740841.568    -1190388.13449   -911282.13845  23740841.048    23740846.554
 03  4  2  2  6 30.0000000  0  8G14G31G25G 3G11G15G18G23
  20253132.234   -28600458.23249 -22237150.98848  20253131.659    20253134.050
  22661701.516   -10496041.44549  -8166696.04546  22661700.951    22661706.566
  23546037.962   -10878469.73349  -8458771.65946  23546037.738    23546045.513
  22933027.014   -12067729.94649  -9386407.55046  22933026.506    22933032.878
  23993646.735    -8711427.50949  -6485543.88745  23993646.284    23993652.055
  22165681.332   -13100389.31549 -10193383.24746  22165680.509    22165685.898
  22980515.763    -9131012.79549  -7097929.91946  22980515.150    22980518.937
  23752150.583    -1130958.92349   -864973.66745  23752150.029    23752155.536
 03  4  2  2  7  0.0000000  0  8G14G31G25G 3G11G15G18G23
  20256200.805   -28584332.67149 -22224585.59948  20256200.234    20256202.606
  22669229.023   -10456484.46449  -8135872.44546  22669228.439    22669234.004
  23527522.475   -10975768.17449  -8534588.36746  23527522.216    23527529.996
  22947005.196   -11994274.04549  -9329169.26146  22947004.740    22947011.169
  23975192.825    -8808403.09649  -6561109.15445  23975192.340    23975198.058
  22182512.171   -13011942.71649 -10124463.87046  22182511.347    22182516.759
  22993106.004    -9064850.40949  -7046374.83046  22993105.395    22993109.248
  23763468.157    -1071484.38549   -818629.88745  23763467.623    23763473.188
 03  4  2  2  7 30.0000000  0  8G14G31G25G 3G11G15G18G23
  20259359.170   -28567735.43449 -22211652.67048  20259358.568    20259360.922
  22676845.808   -10416458.20749  -8104683.18346  22676845.227    22676850.809
  23509023.138   -11072981.90949  -8610339.07846  23509022.863    23509030.602
  22961032.051   -11920562.49149  -9271731.76046  22961031.618    22961038.044
  23956763.656    -8905248.06149  -6636572.62745  23956763.268    23956768.964
  22199404.991   -12923170.90149 -10055291.08146  22199404.102    22199409.449
  23005714.057    -8998594.31549  -6994746.73046  23005713.466    23005717.386
  23774794.769    -1011962.62249   -772249.28745  23774794.212    23774799.765
 03  4  2  2  8  0.0000000  0  8G14G31G25G 3G11G15G18G23
  20262606.862   -28550668.66549 -22198353.86648  20262606.280    20262608.581
  22684551.337   -10375965.51949  -8073130.45946  22684550.702    22684556.287
  23490540.173   -11170109.50649  -8686022.66146  23490539.908    23490547.626
  22975106.986   -11846598.95149  -9214097.90746  22975106.515    22975112.947
  23938359.833    -9001960.70049  -6711933.00145  23938359.388    23938365.049
  22216359.307   -12834075.93149  -9985866.47846  22216358.415    22216363.721
  23018339.841    -8932245.36949  -6943046.27746  23018339.275    23018343.193
  23786130.368     -952394.07549   -725832.23445  23786129.795    23786135.301
 03  4  2  2  8 30.0000000  0  8G14G31G25G 3G11G15G18G23
  20265944.162   -28533131.02849 -22184688.15348  20265943.559    20265945.862
  22692345.780   -10335005.67349  -8041213.70546  22692345.116    22692350.746
  23472074.751   -11267144.97249  -8761634.47646  23472074.531    23472082.126
  22989229.812   -11772383.33949  -9156267.61746  22989229.338    22989235.800
  23919981.890    -9098536.24149  -6787186.52245  23919981.522    23919987.102
  22233375.224   -12744656.51649  -9916189.04646  22233374.385    22233379.729
  23030983.901    -8865800.53649  -6891271.09146  23030983.273    23030987.231
  23797475.401     -892775.66749   -679376.33445  23797474.811    23797480.270
 03  4  2  2  9  0.0000000  0  8G14G31G25G 3G11G15G18G23
  20269370.376   -28515126.00849 -22170658.25548  20269369.777    20269372.065
  22700228.238   -10293582.75949  -8008936.13446  22700227.620    22700233.315
  23453627.102   -11364087.31249  -8837173.72146  23453626.852    23453634.333
  23003399.598   -11697920.63749  -9098244.81546  23003399.098    23003405.679
  23901630.197    -9194974.12649  -6862332.79745  23901629.956    23901635.384
  22250452.307   -12654916.16749  -9846261.55746  22250451.423    22250456.799
  23043645.669    -8799262.21749  -6839423.07146  23043645.067    23043649.055
  23808829.531     -833109.10849   -632882.91545  23808828.871    23808834.420
 03  4  2  2  9 30.0000000  0  8G14G31G25G 3G11G15G18G23
  20272885.388   -28496654.41049 -22156264.78648  20272884.794    20272887.096
  22708198.521   -10251698.53749  -7976299.09846  22708197.961    22708203.646
  23435197.717   -11460933.35549  -8912637.94046  23435197.511    23435204.919
  23017615.949   -11623213.30049  -9040031.37046  23017615.476    23017622.088
  23883305.417    -9291271.70249  -6937369.71745  23883305.032    23883310.472
  22267590.142   -12564855.90449  -9776084.76946  22267589.318    22267594.690
  23056325.444    -8732629.67049  -6787501.62346  23056324.878    23056328.805
  23820193.086     -773393.64149   -586351.39345  23820192.434    23820197.962
 03  4  2  2 10  0.0000000  0  8G14G31G25G 3G11G15G18G23
  20276488.397   -28477720.43349 -22141511.03148  20276487.820    20276490.104
  22716255.772   -10209357.75249  -7943306.30546  22716255.174    22716260.815
  23416786.759   -11557682.91249  -8988026.97246  23416786.516    23416793.825
  23031877.849   -11548266.83649  -8981631.61446  23031877.373    23031883.983
  23865006.984    -9387429.53049  -7012297.74245  23865006.660    23865012.167
  22284788.246   -12474479.45049  -9705661.61646  22284787.432    22284792.781
  23069022.707    -8665905.44849  -6735508.73046  23069022.108    23069026.039
  23831565.440     -713631.65649   -539783.61345  23831564.751    23831570.214
 03  4  2  2 10 30.0000000  0  8G14G31G25G 3G11G15G18G23
  20280179.577   -28458323.02249 -22126396.15248  20280178.994    20280181.298
  22724399.900   -10166560.05949  -7909957.47146  22724399.286    22724404.986
  23398395.138   -11654330.66149  -9063336.67146  23398394.848    23398402.104
  23046185.174   -11473081.49249  -8923045.71146  23046184.758    23046191.332
  23846736.119    -9483442.77549  -7087113.11845  23846735.778    23846741.228
  22302046.795   -12383785.78449  -9634991.26246  22302045.925    22302051.205
  23081737.803    -8599087.12649  -6683442.50746  23081737.226    23081741.124
  23842947.148     -653820.22049   -493177.31545  23842946.462    23842952.008
 03  4  2  2 11  0.0000000  0  8G14G31G25G 3G11G15G18G23
  20283958.481   -28438464.73449 -22110922.15148  20283957.898    20283960.211
  22732630.324   -10123308.69449  -7876255.12746  22732629.748    22732635.448
  23380023.211   -11750874.63349  -9138565.52346  23380022.977    23380030.118
  23060537.212   -11397661.11249  -8864276.66246  23060536.792    23060543.428
  23828493.083    -9579309.97849  -7161814.68745  23828492.758    23828498.141
  22319365.227   -12292777.54349  -9564075.79546  22319364.296    22319369.562
  23094470.563    -8532175.74549  -6631303.78846  23094469.971    23094473.986
  23854338.137     -593959.84549   -446532.88845  23854337.495    23854343.039
 03  4  2  2 11 30.0000000  0  8G14G31G25G 3G11G15G18G23
  20287824.967   -28418146.27549 -22095089.57648  20287824.362    20287826.681
  22740946.808   -10079605.13149  -7842200.41846  22740946.300    22740951.959
  23361671.811   -11847311.28349  -9213710.74246  23361671.532    23361678.634
  23074933.632   -11322007.87749  -8805326.16746  23074933.166    23074939.889
  23810278.421    -9675028.19649  -7236400.16045  23810277.988    23810283.427
  22336743.131   -12201455.44449  -9492915.75946  22336742.305    22336747.582
  23107221.301    -8465170.55349  -6579091.96346  23107220.684    23107224.674
  23865738.760     -534049.60849   -399849.57845  23865738.064    23865743.570
 03  4  2  2 12  0.0000000  0  8G14G31G25G 3G11G15G18G23
  20291778.761   -28397368.81549 -22078899.34048  20291778.144    20291780.475
  22749349.101   -10035451.20249  -7807794.78746  22749348.524    22749354.240
  23343341.454   -11943637.46449  -9288769.89646  23343341.161    23343348.107
  23089373.814   -11246124.44349  -8746196.29746  23089373.350    23089380.077
  23792092.632    -9770594.96549  -7310867.63845  23792092.128    23792097.610
  22354180.633   -12109820.67149  -9421512.08546  22354179.823    22354185.170
  23119989.953    -8398071.01849  -6526806.61146  23119989.305    23119993.263
  23877148.847     -474088.72249   -353126.84245  23877148.225    23877153.818
 03  4  2  2 12 30.0000000  0  8G14G31G25G 3G11G15G18G23
  20295819.445   -28376134.80549 -22062353.34648  20295818.817    20295821.163
  22757836.459    -9990850.11949  -7773040.71246  22757835.848    22757841.560
  23325032.520   -12039850.96949  -9363741.24546  23325032.187    23325039.093
  23103857.019   -11170014.52349  -8686889.94846  23103856.633    23103863.360
  23773935.884    -9866008.89449  -7385215.99145  23773935.368    23773940.702
  22371677.338   -12017875.49149  -9349866.53846  22371676.481    22371681.816
  23132776.346    -8330878.03449  -6474448.44546  23132775.692    23132779.630
  23888568.569     -414077.85449   -306365.13345  23888567.889    23888573.539
 03  4  2  2 13  0.0000000  0  8G14G31G25G 3G11G15G18G23
  20299946.787   -28354445.46149 -22045452.55548  20299946.160    20299948.500
  22766408.562    -9945803.80049  -7737939.71746  22766407.974    22766413.591
  23306745.643   -12135948.83749  -9438622.48746  23306745.257    23306751.998
  23118382.959   -11093680.60149  -8627409.05746  23118382.547    23118389.337
  23755808.589    -9961267.31649  -7459443.19945  23755808.116    23755813.341
  22389232.794   -11925621.45749  -9277980.33446  22389231.907    22389237.278
  23145580.624    -8263591.33949  -6422017.25846  23145579.978    23145583.859
  23899997.971     -354016.11649   -259563.79445  23899997.286    23900002.951
 03  4  2  2 13 30.0000000  0  8G14G31G25G 3G11G15G18G23
  20304160.006   -28332304.76949 -22028200.06248  20304159.393    20304161.734
  22775064.462    -9900316.88449  -7702495.38446  22775063.831    22775069.431
  23288480.842   -12231930.80749  -9513413.42946  23288480.341    23288487.030
  23132950.491   -11017127.98249  -8567757.76046  23132950.031    23132956.889
  23737711.011   -10056370.60049  -7533549.51645  23737710.585    23737715.709
  22406846.294   -11833062.18949  -9205856.27046  22406845.384    22406850.773
  23158402.288    -8196213.30349  -6369514.89546  23158401.612    23158405.442
  23911436.707     -293905.55549   -212724.42045  23911435.988    23911441.659
 03  4  2  2 14  0.0000000  0  8G14G31G25G 3G11G15G18G23
  20308458.997   -28309713.23149 -22010596.26248  20308458.387    20308460.749
  22783803.927    -9854390.72649  -7666708.79246  22783803.261    22783808.930
  23270238.748   -12327793.01149  -9588111.04046  23270238.199    23270244.826
  23147559.315   -10940358.81749  -8507937.72146  23147558.809    23147565.733
  23719643.546   -10151315.23949  -7607532.20345  23719643.123    23719648.313
  22424517.713   -11740198.20749  -9133494.77846  22424516.840    22424522.212
  23171241.402    -8128742.97849  -6316940.62246  23171240.744    23171244.574
  23922884.773     -233744.91649   -165845.99945  23922884.121    23922889.813
 03  4  2  2 14 30.0000000  0  8G14G31G25G 3G11G15G18G23
  20312843.991   -28286669.87249 -21992640.38848  20312843.381    20312845.741
  22792627.018    -9808025.03749  -7630579.71446  22792626.423    22792632.037
  23252020.440   -12423530.05849  -9662711.14246  23252019.902    23252026.404
  23162209.313   -10863373.13949  -8447948.96846  23162208.786    23162215.692
  23701607.078   -10246096.25649  -7681387.40245  23701606.729    23701611.944
  22442247.262   -11647028.65249  -9060895.17046  22442246.406    22442251.862
  23184098.548    -8061177.90549  -6264292.51146  23184097.903    23184101.805
  23934343.074     -173531.19049   -118926.22245  23934342.449    23934348.017
 03  4  2  2 15  0.0000000  0  8G14G31G25G 3G11G15G18G23
  20317314.327   -28263177.97649 -21974335.00748  20317313.716    20317316.098
  22801533.067    -9761223.77549  -7594111.24046  22801532.477    22801538.067
  23233826.196   -12519140.47949  -9737212.56846  23233825.697    23233832.105
  23176899.600   -10786175.45149  -8387795.01946  23176899.047    23176905.980
  23683602.011   -10340713.17549  -7755114.74645  23683601.694    23683606.724
  22460034.415   -11553556.64449  -8988059.89146  22460033.562    22460039.046
  23196973.431    -7993519.64349  -6211571.79546  23196972.800    23196976.784
  23945811.312     -113265.70649    -71966.11645  23945810.650    23945816.185
 03  4  2  2 15 30.0000000  0  8G14G31G25G 3G11G15G18G23
  20321869.871   -28239238.28749 -21955680.69548  20321869.263    20321871.650
  22810521.626    -9713988.36349  -7557304.46446  22810521.065    22810526.623
  23215656.657   -12614620.94949  -9811612.73746  23215656.206    23215662.562
  23191629.751   -10708767.90649  -8327477.54646  23191629.259    23191636.195
  23665628.747   -10435162.75749  -7828711.68346  23665628.417    23665633.506
  22477879.007   -11459782.94849  -8914989.52546  22477878.109    22477883.655
  23209866.339    -7925767.11049  -6158777.63146  23209865.724    23209869.710
  23957289.603      -52947.01549    -24964.53445  23957288.914    23957294.455
 03  4  2  2 16  0.0000000  0  8G14G31G25G 3G11G15G18G23
  20326509.849   -28214854.81049 -21936680.57448  20326509.241    20326511.644
  22819591.953    -9666323.72749  -7520163.22446  22819591.366    22819596.931
  23197511.861   -12709970.83349  -9885911.15446  23197511.547    23197517.882
  23206398.933   -10631155.74249  -8267000.62346  23206398.455    23206405.436
  23647687.289   -10529445.11349  -7902178.31446  23647686.957    23647692.075
  22495780.197   -11365711.46749  -8841687.12246  22495779.336    22495784.933
  23222776.566    -7857922.93349  -6105912.03346  23222775.997    23222779.995
  23968777.537        7422.55949     22076.68245  23968776.831    23968782.501
 03  4  2  2 16 30.0000000  0  8G14G31G25G 3G11G15G18G23
  20331234.267   -28190027.75549 -21917334.80748  20331233.660    20331236.064
  22828743.758    -9618230.89849  -7482688.32546  22828743.140    22828748.753
  23179392.733   -12805186.18049  -9960104.72946  23179392.471    23179398.782
  23221206.812   -10553340.55249  -8206365.50446  23221206.343    23221213.255
  23629778.316   -10623556.72949  -7975511.90746  23629778.025    23629783.030
  22513738.085   -11271342.46749  -8768152.88746  22513737.214    22513742.817
  23235704.670    -7789985.40949  -6052973.71646  23235704.147    23235708.051
  23980275.438       67844.80149     69158.94645  23980274.772    23980280.519
 03  4  2  2 17  0.0000000  0  8G14G31G25G 3G11G15G18G23
  20336042.848   -28164758.62249 -21897644.56648  20336042.241    20336044.623
  22837976.586    -9569711.89149  -7444881.36346  22837975.998    22837981.597
  23161299.918   -12900263.46149 -10034190.73546  23161299.666    23161306.016
  23236052.723   -10475325.00649  -8145574.26646  23236052.296    23236059.139
  23611902.342   -10717494.95949  -8048710.40046  23611902.061    23611907.097
  22531752.298   -11176676.95549  -8694387.60546  22531751.463    22531757.102
  23248650.486    -7721954.28049  -5999962.44846  23248650.024    23248653.881
  23991783.658      128320.35649    116282.74145  23991782.924    23991788.580
 03  4  2  2 17 30.0000000  0  8G14G31G25G 3G11G15G18G23
  20340935.498   -28139047.66749 -21877610.04648  20340934.864    20340937.236
  22847290.413    -9520767.82749  -7406743.17246  22847289.820    22847295.389
  23143234.148   -12995198.83649 -10108166.17146  23143233.893    23143240.227
  23250936.482   -10397110.88249  -8084628.30146  23250935.992    23250942.796
  23594060.106   -10811256.21949  -8121770.98246  23594059.813    23594064.837
  22549822.912   -11081715.48749  -8620391.71146  22549822.053    22549827.719
  23261614.425    -7653828.48749  -5946877.41146  23261613.949    23261617.800
  24003302.151      188850.60049    163449.16045  24003301.430    24003307.118
 03  4  2  2 18  0.0000000  0  8G14G31G25G 3G11G15G18G23
  20345911.297   -28112899.51949 -21857234.85848  20345910.669    20345913.021
  22856684.049    -9471404.25449  -7368278.09646  22856683.417    22856689.032
  23125195.446   -13089992.31949 -10182031.03746  23125195.101    23125201.448
  23265856.865   -10318703.93849  -8023532.07446  23265856.423    23265863.263
  23576251.463   -10904841.00749  -8194694.05545  23576250.982    23576256.119
  22567948.967   -10986462.68549  -8546168.80346  22567948.095    22567953.732
  23274595.863    -7585610.80449  -5893720.78846  23274595.393    23274599.176
  24014830.562      249432.99849    210656.20745  24014829.939    24014835.509
 03  4  2  2 18 30.0000000  0  8G14G31G25G 3G11G15G18G23
  20350969.835   -28086316.68549 -21836520.95048  20350969.197    20350971.562
  22866156.878    -9421624.24349  -7329488.51946  22866156.210    22866161.869
  23107183.907   -13184642.07849 -10255783.91546  23107183.580    23107189.974
  23280813.289   -10240107.93949  -7962288.53346  23280812.838    23280819.757
  23558476.553   -10998248.03549  -8267478.61945  23558476.057    23558481.224
  22586130.044   -10890921.18649  -8471720.92746  22586129.098    22586134.724
  23287594.527    -7517302.18549  -5840493.29446  23287594.063    23287597.903
  24026368.953      310067.17149    257903.62245  24026368.311    24026373.744
 03  4  2  2 19  0.0000000  0  8G14G31G25G 3G11G15G18G23
  20356111.632   -28059296.17649 -21815465.99748  20356111.018    20356113.376
  22875709.314    -9371425.58249  -7290372.71846  22875708.716    22875714.418
  23089201.211   -13279140.57949 -10329418.93746  23089200.869    23089207.269
  23295805.993   -10161321.10249  -7900896.28546  23295805.529    23295812.492
  23540736.872   -11091470.14349  -8340119.11245  23540736.397    23540741.530
  22604366.517   -10795087.74349  -8397045.56446  22604365.643    22604371.238
  23300611.514    -7448897.81649  -5787191.20246  23300611.033    23300614.823
  24037918.158      370758.40149    305195.48045  24037917.526    24037922.888
 03  4  2  2 19 30.0000000  0  8G14G31G25G 3G11G15G18G23
  20361335.292   -28031845.80449 -21794076.08748  20361334.651    20361336.988
  22885339.878    -9320816.83149  -7250937.37046  22885339.289    22885344.963
  23071246.766   -13373490.83749 -10402938.45246  23071246.479    23071252.832
  23310833.334   -10082352.30549  -7839362.26646  23310832.786    23310839.838
  23523031.610   -11184511.12449  -8412618.45245  23523031.174    23523036.281
  22622657.165   -10698969.92949  -8322148.61546  22622656.301    22622661.954
  23313645.529    -7380403.59749  -5733819.07946  23313645.109    23313648.856
  24049477.128      431500.97149    352527.33145  24049476.503    24049481.818
 03  4  2  2 20  0.0000000  0  8G14G31G25G 3G11G15G18G23
  20366641.971   -28003958.91349 -21772346.03648  20366641.368    20366643.675
  22895049.595    -9269792.04749  -7211177.83246  22895048.987    22895054.652
  23053322.757   -13467681.57449 -10476333.66846  23053322.477    23053328.783
  23325896.238   -10003196.34549  -7777682.39546  23325895.719    23325902.755
  23505362.893   -11277360.25849  -8484968.31446  23505362.497    23505367.557
  22641003.092   -10602561.30749  -8247025.05846  22641002.271    22641008.008
  23326698.349    -7311811.14549  -5680370.42846  23326697.863    23326701.591
  24061047.384      492303.51949    399905.92145  24061046.685    24061052.156
 03  4  2  2 20 30.0000000  0  8G14G31G25G 3G11G15G18G23
  20372029.729   -27975646.11849 -21750284.10848  20372029.118    20372031.432
  22904836.285    -9218362.73349  -7171103.08346  22904835.742    22904841.388
  23035427.875   -13561719.06149 -10549609.47346  23035427.646    23035433.887
  23340992.620    -9923864.94449  -7715865.81846  23340992.067    23340999.112
  23487729.444   -11370024.21849  -8557173.89846  23487729.064    23487734.014
  22659402.376   -10505872.34449  -8171683.05646  22659401.613    22659407.358
  23339767.999    -7243129.37249  -5626852.18946  23339767.514    23339771.338
  24072627.382      553157.57749    447324.65645  24072626.767    24072632.369
 03  4  2  2 21  0.0000000  0  8G14G31G25G 3G11G15G18G23
  20377499.523   -27946901.99549 -21727886.08048  20377498.921    20377501.226
  22914700.821    -9166524.35649  -7130709.57146  22914700.313    22914705.910
  23017564.004   -13655593.63849 -10622758.34046  23017563.793    23017569.958
  23356123.101    -9844354.09749  -7653909.43746  23356122.533    23356129.595
  23470132.911   -11462493.65649  -8629227.89046  23470132.635    23470137.558
  22677856.103   -10408897.68249  -8096118.43246  22677855.328    22677861.100
  23352856.139    -7174351.30949  -5573258.90146  23352855.645    23352859.348
  24084218.710      614070.40049    494789.17345  24084218.113    24084223.641
 03  4  2  2 21 30.0000000  0  8G14G31G25G 3G11G15G18G23
  20383049.717   -27917735.41149 -21705158.85948  20383049.129    20383051.453
  22924641.391    -9114286.41549  -7090004.71446  22924640.852    22924646.440
  22999730.464   -13749308.97649 -10695783.12346  22999730.258    22999736.325
  23371285.850    -9764673.68149  -7591820.88746  23371285.306    23371292.413
  23452572.806   -11554772.94549  -8701133.72646  23452572.392    23452577.333
  22696362.677   -10311645.95549  -8020337.90946  22696361.855    22696367.496
  23365961.252    -7105483.69749  -5519595.84046  23365960.732    23365964.416
  24095819.949      675035.58649    542294.48745  24095819.282    24095824.980
 03  4  2  2 22  0.0000000  0  8G14G31G25G 3G11G15G18G23
  20388680.921   -27888143.14249 -21682099.93548  20388680.310    20388682.634
  22934658.439    -9061646.39449  -7048986.54746  22934657.947    22934663.588
  22981928.627   -13842857.60649 -10768677.99646  22981928.452    22981934.447
  23386481.244    -9684821.52949  -7529598.53946  23386480.716    23386487.828
  23435050.102   -11646855.10249  -8772885.94446  23435049.653    23435054.533
  22714922.521   -10214113.82149  -7944338.87746  22714921.667    22714927.283
  23379084.283    -7036521.73449  -5465859.25146  23379083.707    23379087.363
  24107432.245      736058.32249    589844.67245  24107431.583    24107437.154
 03  4  2  2 22 30.0000000  0  8G14G31G25G 3G11G15G18G23
  20394392.864   -27858126.59049 -21658710.40448  20394392.276    20394394.617
  22944751.547    -9008606.72149  -7007656.95146  22944751.039    22944756.674
  22964159.157   -13936236.44749 -10841440.58546  22964158.944    22964164.895
  23401708.839    -9604800.43549  -7467244.55846  23401708.334    23401715.388
  23417565.360   -11738737.49549  -8844482.51546  23417564.928    23417569.749
  22733535.410   -10116302.64649  -7868122.42646  22733534.571    22733540.101
  23392225.297    -6967465.03749  -5412048.84745  23392224.740    23392228.436
  24119055.536      797139.27349    637440.17145  24119054.886    24119060.547
 03  4  2  2 23  0.0000000  0  8G14G31G25G 3G11G15G18G23
  20400184.549   -27827690.96849 -21634994.32548  20400183.986    20400186.321
  22954919.666    -8955173.32249  -6966020.58446  22954919.150    22954924.818
  22946421.791   -14029446.34249 -10914071.52446  22946421.573    22946427.437
  23416967.341    -9524616.67549  -7404763.82346  23416966.930    23416973.888
  23400118.526   -11830421.08049  -8915924.16746  23400118.065    23400122.902
  22752200.323   -10018217.81149  -7791692.73746  22752199.460    22752205.071
  23405383.688    -6898317.06949  -5358167.34345  23405383.171    23405386.894
  24130689.329      858275.32049    685078.64345  24130688.712    24130694.280
 03  4  2  2 23 30.0000000  0  8G14G31G25G 3G11G15G18G23
  20406056.150   -27796835.50749 -21610951.10148  20406055.582    20406057.896
  22965162.758    -8901346.18849  -6924077.40246  22965162.139    22965167.828
  22928717.728   -14122481.59649 -10986566.37246  22928717.460    22928723.239
  23432256.847    -9444270.53849  -7342156.55346  23432256.397    23432263.421
  23382710.358   -11921900.92249  -8987207.06446  23382709.927    23382714.638
  22770917.496    -9919858.30449  -7715049.01646  22770916.682    22770922.323
  23418560.036    -6829075.07349  -5304212.55845  23418559.468    23418563.124
  24142334.072      919469.60849    732762.47345  24142333.489    24142339.242
 03  4  2  2 24  0.0000000  0  8G14G31G25G 3G11G15G18G23
  20412006.831   -27765564.50649 -21586584.06948  20412006.252    20412008.538
  22975479.704    -8847130.26949  -6881831.26146  22975479.096    22975484.802
  22911046.937   -14215341.95149 -11058924.92746  22911046.593    22911052.372
  23447576.169    -9363767.26549  -7279426.84546  23447575.681    23447582.792
  23365341.018   -12013177.17749  -9058331.34046  23365340.611    23365345.205
  22789686.197    -9821228.14649  -7638194.39046  22789685.369    22789691.086
  23431753.907    -6759741.30249  -5250186.25945  23431753.245    23431756.847
  24153989.632      980720.04449    780490.10945  24153988.941    24153994.720
 03  4  2  2 24 30.0000000  0  8G14G31G25G 3G11G15G18G23
  20418036.923   -27733876.24849 -21561891.91148  20418036.338    20418038.610
  22985870.758    -8792524.86949  -6839281.63546  22985870.134    22985875.866
  22893410.578   -14308021.11549 -11131142.30946  22893410.212    22893415.945
  23462925.466    -9283106.80249  -7216574.64646  23462924.935    23462932.056
  23348011.512   -12104244.15449  -9129292.52546  23348011.069    23348015.640
  22808506.639    -9722325.86349  -7561127.72446  22808505.870    22808511.599
  23444965.755    -6690312.56349  -5196085.93345  23444965.129    23444968.644
  24165656.658     1042030.24949    828264.29645  24165655.875    24165661.702
 03  4  2  2 25  0.0000000  0  8G14G31G25G 3G11G15G18G23
  20424145.872   -27701773.41049 -21536876.70348  20424145.318    20424147.549
  22996335.332    -8737533.24449  -6796431.05846  22996334.759    22996340.436
  22875809.110   -14400516.54949 -11203216.51046  22875808.837    22875814.489
  23478303.921    -9202292.53549  -7153602.61046  23478303.488    23478310.584
  23330721.946   -12195100.55949  -9200089.63246  23330721.548    23330726.118
  22827378.537    -9623153.81249  -7483850.84446  22827377.725    22827383.459
  23458195.536    -6620789.32749  -5141912.01345  23458194.930    23458198.599
  24177334.907     1103400.07349    876084.93645  24177334.140    24177339.986
 03  4  2  2 25 30.0000000  0  8G14G31G25G 3G11G15G18G23
  20430332.730   -27669261.41849 -21511542.67048  20430332.125    20430334.376
  23006872.254    -8682161.94649  -6753284.64946  23006871.624    23006877.331
  22858242.340   -14492829.91749 -11275148.85046  22858242.069    22858247.709
  23493710.395    -9121331.33849  -7090516.06846  23493709.963    23493717.145
  23313472.558   -12285746.91349  -9270723.07446  23313472.029    23313476.604
  22846300.736    -9523717.70049  -7406368.19646  22846299.846    22846305.551
  23471442.631    -6551175.68349  -5087667.63245  23471442.038    23471445.691
  24189023.729     1164825.94049    923949.23745  24189023.067    24189028.904
 03  4  2  2 26  0.0000000  0  8G14G31G25G 3G11G15G18G23
  20436597.834   -27636337.89249 -21485887.96548  20436597.228    20436599.493
  23017481.623    -8626409.24649  -6709841.02246  23017480.990    23017486.773
  22840711.617   -14584954.15949 -11346933.82046  22840711.295    22840716.836
  23509145.061    -9040222.00349  -7027314.10946  23509144.587    23509151.820
  23296264.227   -12376177.14449  -9341188.10046  23296263.672    23296268.178
  22865273.498    -9424015.14449  -7328677.93646  22865272.592    22865278.317
  23484707.696    -6481467.05249  -5033349.24145  23484707.115    23484710.743
  24200724.409     1226312.60549    971860.96845  24200723.698    24200729.487
 03  4  2  2 26 30.0000000  0  8G14G31G25G 3G11G15G18G23
  20442940.421   -27603007.43649 -21459916.16448  20442939.797    20442942.086
  23028162.518    -8570280.60449  -6666104.46446  23028161.916    23028167.729
  22823216.941   -14676889.01249 -11418571.20946  22823216.566    22823222.058
  23524606.874    -8958969.97049  -6964000.94646  23524606.393    23524613.703
  23279096.855   -12466391.71349  -9411485.06346  23279096.277    23279100.804
  22884296.050    -9324050.40449  -7250783.37446  22884295.212    22884300.979
  23497990.319    -6411666.34649  -4978959.09645  23497989.760    23497993.436
  24212436.059     1287857.48449   1019818.05345  24212435.241    24212441.061
 03  4  2  2 27  0.0000000  0  8G14G31G25G 3G11G15G18G23
  20449360.753   -27569268.16149 -21433625.80848  20449360.143    20449362.444
  23038915.198    -8513774.91849  -6622074.11846  23038914.631    23038920.401
  22805759.465   -14768627.97749 -11490055.96246  22805759.112    22805764.535
  23540095.937    -8877574.52049  -6900576.04946  23540095.531    23540102.850
  23261971.696   -12556384.65149  -9481609.34646  23261971.173    23261975.661
  22903368.878    -9223821.54549  -7172683.01346  22903368.138    22903373.861
  23511291.200    -6341769.70949  -4924494.19045  23511290.603    23511294.324
  24224159.449     1349464.76149   1067823.69145  24224158.784    24224164.704
 03  4  2  2 27 30.0000000  0  8G14G31G25G 3G11G15G18G23
  20455857.354   -27535128.14949 -21407023.18648  20455856.755    20455859.074
  23049738.023    -8456901.04849  -6577756.86746  23049737.399    23049743.204
  22788338.554   -14860174.47649 -11561390.74446  22788338.282    22788343.662
  23555610.643    -8796044.70749  -6837046.44746  23555610.211    23555617.571
  23244888.099   -12646159.42749  -9551563.62546  23244887.549    23244891.980
  22922490.490    -9123336.73749  -7094383.21846  22922489.760    22922495.547
  23524609.218    -6271783.17849  -4869959.22645  23524608.622    23524612.351
  24235893.764     1411128.58749   1115873.44745  24235893.131    24235898.989
 03  4  2  2 28  0.0000000  0  8G14G31G25G 3G11G15G18G23
  20462431.077   -27500582.81249 -21380104.72348  20462430.494    20462432.814
  23060631.594    -8399655.25349  -6533149.79946  23060630.937    23060636.762
  22770956.098   -14951519.08249 -11632568.21246  22770955.875    22770961.208
  23571151.534    -8714376.97149  -6773409.36146  23571151.201    23571158.552
  23227847.655   -12735707.38349  -9621341.14746  23227847.106    23227851.499
  22941661.895    -9022591.15449  -7015880.21146  22941661.068    22941666.793
  23537945.552    -6201700.27649  -4815349.16945  23537944.910    23537948.723
  24247640.065     1472855.83649   1163972.61845  24247639.438    24247645.340
 03  4  2  2 28 30.0000000  0  8G14G31G25G 3G11G15G18G23
  20469080.626   -27465638.97249 -21352875.73748  20469080.061    20469082.381
  23071594.361    -8342045.36949  -6488259.04046  23071593.787    23071599.647
  22753611.634   -15042664.33249 -11703590.33546  22753611.373    22753616.718
  23586717.135    -8632579.55549  -6709671.22846  23586716.746    23586724.271
  23210849.789   -12825031.26449  -9690944.06946  23210849.254    23210853.675
  22960881.446    -8921591.75149  -6937179.41846  22960880.643    22960886.365
  23551299.160    -6131526.17849  -4760668.04645  23551298.565    23551302.493
  24259397.559     1534641.79049   1212117.53345  24259396.909    24259402.782
 03  4  2  2 29  0.0000000  0  8G14G31G25G 3G11G15G18G23
  20475806.229   -27430295.61649 -21325335.44448  20475805.645    20475807.975
  23082626.552    -8284070.80449  -6443084.09846  23082625.971    23082631.860
  22736306.220   -15133604.11849 -11774452.35646  22736305.953    22736311.257
  23602307.482    -8550652.17049  -6645831.82146  23602307.143    23602314.682
  23193895.611   -12914125.47949  -9760368.03146  23193895.131    23193899.510
  22980149.618    -8820336.97349  -6858279.63646  22980148.784    22980154.504
  23564670.698    -6061257.59849  -4705913.31345  23564670.138    23564674.179
  24271166.965     1596489.95049   1260310.92845  24271166.262    24271171.914
 03  4  2  2 29 30.0000000  0  8G14G31G25G 3G11G15G18G23
  20482607.343   -27394555.51549 -21297486.00448  20482606.786    20482609.086
  23093727.454    -8225735.37849  -6397627.97946  23093726.855    23093732.721
  22719040.243   -15224336.84049 -11845153.04346  22719039.936    22719045.244
  23617921.939    -8468598.76849  -6581894.23046  23617921.523    23617929.020
  23176985.360   -13002988.78649  -9829612.07346  23176984.938    23176989.361
  22999465.818    -8718829.94449  -6779183.29246  22999465.001    22999470.688
  23578060.138    -5990895.54849  -4651085.74745  23578059.549    23578063.648
  24282948.020     1658399.66249   1308552.27345  24282947.415    24282953.020
 03  4  2  2 30  0.0000000  0  8G14G31G25G 3G11G15G18G23
  20489483.633   -27358420.69149 -21269328.98148  20489483.036    20489485.317
  23104896.467    -8167042.12749  -6351893.03046  23104895.853    23104901.778
  22701814.115   -15314859.55049 -11915690.08046  22701813.872    22701819.171
  23633559.631    -8386422.56849  -6517860.94046  23633559.187    23633566.744
  23160119.604   -13091618.67649  -9898674.22746  23160119.114    23160123.493
  23018829.821    -8617072.62849  -6699891.92546  23018828.906    23018834.523
  23591467.385    -5920440.27149  -4596185.52345  23591466.767    23591470.844
  24294740.765     1720371.19149   1356841.77445  24294740.191    24294745.920
 03  4  2  2 30 30.0000000  0  8G14G31G25G 3G11G15G18G23
  20496434.709   -27321892.59049 -21240865.50748  20496434.104    20496436.365
  23116133.063    -8107993.32649  -6305881.03246  23116132.474    23116138.495
  22684628.562   -15405169.50949 -11986061.33046  22684628.329    22684633.622
  23649220.280    -8304125.96349  -6453733.84146  23649219.826    23649227.366
  23143298.703   -13180013.00049  -9967552.82646  23143298.158    23143302.539
  23038240.980    -8515066.49649  -6620406.67046  23038240.048    23038245.705
  23604892.435    -5849891.22649  -4541212.24945  23604891.834    23604895.860
  24306545.421     1782405.14149   1405179.91145  24306544.878    24306550.548
 03  4  2  2 31  0.0000000  0  8G14G31G25G 3G11G15G18G23
  20503460.168   -27284973.40149 -21212097.29548  20503459.570    20503461.832
  23127436.845    -8048591.84549  -6259594.22646  23127436.279    23127442.316
  22667484.053   -15495263.90349 -12056264.63046  22667483.798    22667489.085
  23664903.133    -8221712.17949  -6389515.41046  23664902.689    23664910.372
  23126523.106   -13268169.25049 -10036245.90146  23126522.532    23126526.924
  23057699.037    -8412813.45549  -6540729.02346  23057698.148    23057703.912
  23618335.328    -5779248.44849  -4486165.90045  23618334.787    23618338.804
  24318362.111     1844501.82449   1453566.97145  24318361.599    24318367.169
 03  4  2  2 31 30.0000000  0  8G14G31G25G 3G11G15G18G23
  20510559.793   -27247664.55349 -21183025.45048  20510559.195    20510561.457
  23138807.260    -7988839.88549  -6213034.32146  23138806.757    23138812.754
  22650381.227   -15585139.59649 -12126297.50146  22650380.908    22650386.153
  23680607.954    -8139183.36349  -6325207.35546  23680607.447    23680615.233
  23109793.230   -13356084.46849 -10104751.17146  23109792.743    23109797.084
  23077203.829    -8310314.89849  -6460860.05246  23077203.035    23077208.775
  23631796.139    -5708511.27649  -4431046.04745  23631795.588    23631799.742
  24330190.702     1906662.24249   1502003.65045  24330190.219    24330195.879
 03  4  2  2 32  0.0000000  0  8G14G31G25G 3G11G15G18G23
  20517732.934   -27209969.13749 -21153652.38648  20517732.350    20517734.636
  23150243.629    -7928741.72449  -6166204.65346  23150243.070    23150249.051
  22633320.377   -15674794.92849 -12196158.66846  22633319.949    22633325.201
  23696333.755    -8056544.18749  -6260813.32446  23696333.290    23696341.129
  23093109.490   -13443757.60649 -10173067.78946  23093109.023    23093113.405
  23096754.828    -8207574.10249  -6380802.33646  23096753.950    23096759.812
  23645274.646    -5637681.30049  -4375853.85145  23645274.117    23645278.271
  24342031.347     1968885.35749   1550489.18545  24342030.793    24342036.594
 03  4  2  2 32 30.0000000  0  8G14G31G25G 3G11G15G18G23
  20524979.349   -27171888.77949 -21123979.37048  20524978.763    20524981.068
  23161745.435    -7868299.61249  -6119106.95846  23161744.838    23161750.860
  22616301.857   -15764227.04049 -12265845.90946  22616301.481    22616306.728
  23712080.128    -7973796.97849  -6196335.08246  23712079.719    23712087.453
  23076472.324   -13531186.10349 -10241193.80846  23076471.861    23076476.172
  23116351.595    -8104592.46349  -6300556.94946  23116350.754    23116356.679
  23658770.934    -5566757.97749  -4320588.92045  23658770.444    23658774.484
  24353884.140     2031171.72749   1599024.02245  24353883.537    24353889.355
 03  4  2  2 33  0.0000000  0  8G14G31G25G 3G11G15G18G23
  20532298.782   -27133424.70049 -21094007.35048  20532298.216    20532300.527
  23173312.296    -7807515.53249  -6071742.80346  23173311.740    23173317.792
  22599326.527   -15853432.29249 -12335356.35946  22599326.193    22599331.416
  23727846.611    -7890943.72049  -6131774.21846  23727846.224    23727853.976
  23059882.310   -13618366.51549 -10309126.48346  23059881.916    23059886.193
  23135994.045    -8001370.85049  -6220124.57646  23135993.245    23135999.124
  23672285.071    -5495740.58949  -4265250.69445  23672284.568    23672288.656
  24365749.212     2093522.77349   1647609.23945  24365748.593    24365754.445
 03  4  2  2 33 30.0000000  0  8G14G31G25G 3G11G15G18G23
  20539690.561   -27094580.52349 -21063739.14848  20539689.989    20539692.311
  23184943.326    -7746394.23849  -6024115.88046  23184942.778    23184948.857
  22582394.481   -15942409.89649 -12404689.43746  22582394.194    22582399.426
  23743632.337    -7807989.64549  -6067134.79245  23743631.935    23743639.705
  23043339.684   -13705298.56249 -10376865.62446  23043339.188    23043343.444
  23155681.440    -7897913.29749  -6139508.34746  23155680.586    23155686.461
  23685816.863    -5424630.74249  -4209840.42645  23685816.350    23685820.299
  24377626.189     2155936.77849   1696243.52745  24377625.521    24377631.408
 03  4  2  2 34  0.0000000  0  8G14G31G25G 3G11G15G18G23
  20547154.934   -27055354.95449 -21033173.76848  20547154.361    20547156.683
  23196638.623    -7684935.01149  -5976225.63246  23196638.092    23196644.198
  22565507.089   -16031153.41749 -12473840.12446  22565506.755    22565511.956
  23759437.434    -7724933.99149  -6002416.22045  23759436.974    23759444.803
  23026845.326   -13791976.30649 -10444406.62846  23026844.857    23026849.099
  23175414.049    -7794218.05849  -6058706.91646  23175413.165    23175419.088
  23699366.934    -5353424.87849  -4154355.33345  23699366.360    23699370.423
  24389515.833     2218417.71749   1744929.96345  24389515.041    24389521.193
 03  4  2  2 34 30.0000000  0  8G14G31G25G 3G11G15G18G23
  20554691.398   -27015750.61949 -21002313.24348  20554690.824    20554693.144
  23208397.529    -7623141.65149  -5928075.03946  23208397.001    23208403.091
  22548664.574   -16119661.06349 -12542807.00646  22548664.264    22548669.455
  23775261.115    -7641780.42349  -5937621.34545  23775260.659    23775268.555
  23010399.665   -13878398.43449 -10511748.42346  23010399.252    23010403.437
  23195191.345    -7690288.03849  -5977722.52846  23195190.474    23195196.370
  23712935.004    -5282123.94149  -4098796.17345  23712934.418    23712938.555
  24401418.122     2280965.01249   1793668.08545  24401417.430    24401423.593
 03  4  2  2 35  0.0000000  0  8G14G31G25G 3G11G15G18G23
  20562298.703   -26975773.90349 -20971162.55348  20562298.127    20562300.458
  23220218.710    -7561021.24249  -5879669.58446  23220218.187    23220224.262
  22531866.694   -16207934.36849 -12611591.28346  22531866.363    22531871.515
  23791101.993    -7558536.33549  -5872755.94345  23791101.524    23791109.505
  22994002.394   -13964566.31549 -10578892.10746  22994001.924    22994006.182
  23215012.004    -7586129.44449  -5896560.03746  23215011.162    23215017.133
  23726520.460    -5210732.26149  -4043166.28145  23726519.802    23726523.918
  24413332.488     2343574.74649   1842454.87645  24413331.712    24413337.855
 03  4  2  2 35 30.0000000  0  8G14G31G25G 3G11G15G18G23
  20569977.435   -26935421.86449 -20939719.40148  20569976.861    20569979.186
  23232102.525    -7498571.77649  -5831007.71046  23232101.960    23232108.080
  22515114.759   -16295965.87249 -12680187.14546  22515114.421    22515119.595
  23806960.548    -7475199.83149  -5807818.52145  23806960.044    23806968.023
  22977654.652   -14050473.62149 -10645832.75046  22977654.231    22977658.384
  23234876.886    -7481739.37249  -5815217.15746  23234875.980    23234881.922
  23740124.071    -5139244.83449  -3987461.80345  23740123.435    23740127.494
  24425259.668     2406252.34649   1891294.55945  24425258.944    24425265.039
 03  4  2  2 36  0.0000000  0  8G14G31G25G 3G11G15G18G23
  20577727.010   -26894697.34349 -20907986.00848  20577726.456    20577728.773
  23244048.251    -7435796.86049  -5782092.25646  23244047.680    23244053.794
  22498409.190   -16383753.58049 -12748593.04446  22498408.916    22498414.027
  23822835.974    -7391774.37449  -5742811.79245  23822835.464    23822843.422
  22961356.902   -14136118.36849 -10712568.78846  22961356.534    22961360.667
  23254785.228    -7377120.51349  -5733696.01046  23254784.308    23254790.261
  23753745.751    -5067662.70049  -3931683.50245  23753745.104    23753749.167
  24437199.677     2468997.10549   1940186.57045  24437198.979    24437204.809
 03  4  2  2 36 30.0000000  0  8G14G31G25G 3G11G15G18G23
  20585546.406   -26853606.34349 -20875967.04248  20585545.813    20585548.147
  23256054.597    -7372703.57149  -5732928.71246  23256053.999    23256060.099
  22481749.853   -16471298.64249 -12816809.85746  22481749.579    22481754.638
  23838726.955    -7308267.20249  -5677741.38145  23838726.424    23838734.404
  22945108.829   -14221502.35449 -10779101.62846  22945108.352    22945112.526
  23274735.878    -7272278.73749  -5652001.16746  23274735.056    23274741.035
  23767384.623    -4995989.75749  -3875834.46945  23767383.992    23767388.063
  24449151.542     2531805.31249   1989127.99545  24449150.915    24449156.820
 03  4  2  2 37  0.0000000  0  8G14G31G25G 3G11G15G18G23
  20593436.220   -26812145.07849 -20843659.56348  20593435.601    20593437.941
  23268122.130    -7309288.76049  -5683514.62346  23268121.504    23268127.604
  22465138.331   -16558592.53749 -12884830.96046  22465138.078    22465143.055
  23854633.982    -7224675.51749  -5612605.13845  23854633.411    23854641.422
  22928911.975   -14306616.90249 -10845424.52046  22928911.485    22928915.655
  23294729.838    -7167210.24249  -5570129.65646  23294728.964    23294734.951
  23781041.988    -4924219.99449  -3819909.96845  23781041.287    23781045.403
  24461116.873     2594683.20949   2038123.75545  24461116.211    24461122.049
 03  4  2  2 37 30.0000000  0  8G14G31G25G 3G11G15G18G23
  20601395.574   -26770318.37849 -20811067.33048  20601394.971    20601397.294
  23280249.651    -7245558.29649  -5633854.57546  23280249.059    23280255.120
  22448574.473   -16645636.16249 -12952657.04946  22448574.146    22448579.062
  23870556.027    -7141004.92049  -5547407.39945  23870555.478    23870563.547
  22912766.188   -14391462.94849 -10911538.19146  22912765.733    22912769.937
  23314765.983    -7061920.09049  -5488085.42246  23314765.134    23314770.993
  23794717.160    -4852356.56749  -3763912.50445  23794716.401    23794720.569
  24473094.800     2657628.28349   2087171.84145  24473094.189    24473100.114
 03  4  2  2 38  0.0000000  0  8G14G31G25G 3G11G15G18G23
  20609424.460   -26728126.29349 -20778190.37248  20609423.863    20609426.193
  23292437.044    -7181513.21849  -5583949.36446  23292436.502    23292442.614
  22432059.152   -16732424.41049 -13020284.13346  22432058.799    22432063.696
  23886492.949    -7057256.14549  -5482148.73045  23886492.355    23886500.550
  22896672.276   -14476036.30449 -10977439.37146  22896671.814    22896675.983
  23334844.399    -6956408.14249  -5405868.37246  23334843.464    23334849.283
  23808410.453    -4780397.34249  -3707840.39745  23808409.741    23808413.939
  24485086.000     2720642.77549   2136274.02245  24485085.269    24485091.285
 03  4  2  2 38 30.0000000  0  8G14G31G25G 3G11G15G18G23
  20617521.537   -26685575.83049 -20745034.16148  20617520.937    20617523.243
  23304682.935    -7117161.27649  -5533805.04346  23304682.295    23304688.424
  22415592.011   -16818959.37849 -13087713.85546  22415591.609    22415596.528
  23902443.248    -6973437.12249  -5416835.32745  23902442.633    23902450.949
  22880629.764   -14560339.45749 -11043129.99746  22880629.350    22880633.523
  23354963.537    -6850681.35249  -5323483.89446  23354962.686    23354968.394
  23822121.293    -4708347.00549  -3651697.27545  23822120.520    23822124.606
  24497089.465     2783722.15049   2185426.74045  24497088.858    24497094.948
 03  4  2  2 39  0.0000000  0  8G14G31G25G 3G11G15G18G23
  20625687.368   -26642664.05149 -20711596.40448  20625686.744    20625689.065
  23316987.468    -7052500.41949  -5483420.01446  23316986.886    23316993.010
  22399174.360   -16905233.76249 -13154940.52346  22399174.044    22399178.921
  23918407.106    -6889546.40149  -5351466.07145  23918406.532    23918414.996
  22864640.161   -14644365.06049 -11108604.36646  22864639.749    22864643.833
  23375124.073    -6744736.77249  -5240929.72846  23375123.279    23375129.037
  23835850.286    -4636201.03649  -3595479.63145  23835849.575    23835853.404
  24509106.450     2846871.50449   2234634.02745  24509105.849    24509111.761
 03  4  2  2 39 30.0000000  0  8G14G31G25G 3G11G15G18G23
  20633921.696   -26599392.39849 -20677878.22748  20633921.064    20633923.404
  23329350.322    -6987533.08049  -5432796.15746  23329349.767    23329355.964
  22382806.961   -16991244.34149 -13221961.63246  22382806.666    22382811.534
  23934384.305    -6805586.03749  -5286042.55545  23934383.760    23934392.097
  22848703.946   -14728109.94149 -11173859.98546  22848703.532    22848707.570
  23395325.866    -6638575.91149  -5158207.01746  23395325.063    23395330.876
  23849597.425    -4563958.74649  -3539186.94345  23849596.827    23849600.637
  24521136.930     2910091.75749   2283896.54845  24521136.341    24521142.005
 03  4  2  2 40  0.0000000  0  8G14G31G25G 3G11G15G18G23
  20642223.141   -26555767.72449 -20643884.96748  20642222.547    20642224.886
  23341770.136    -6922266.95349  -5381939.46846  23341769.510    23341775.734
  22366489.411   -17076992.97749 -13288778.62546  22366489.122    22366493.974
  23950373.344    -6721563.76049  -5220570.79245  23950372.881    23950381.048
  22832820.665   -14811577.06249 -11238899.17946  22832820.188    22832824.154
  23415567.566    -6532205.28349  -5075320.86046  23415566.810    23415572.648
  23863362.019    -4491624.87149  -3482822.88045  23863361.558    23863365.364
  24533179.862     2973378.47649   2333210.84445  24533179.363    24533185.156
 03  4  2  2 40 30.0000000  0  8G14G31G25G 3G11G15G18G23
  20650591.738   -26511790.23849 -20609616.78648  20650591.163    20650593.513
  23354246.519    -6856703.14149  -5330850.82946  23354245.902    23354252.107
  22350222.570   -17162475.11149 -13355387.95647  22350222.334    22350227.152
  23966373.961    -6637480.50449  -5155051.50445  23966373.514    23966381.691
  22816990.979   -14894762.09949 -11303718.56746  22816990.516    22816994.443
  23435849.054    -6425625.05149  -4992271.39145  23435848.310    23435854.276
  23877144.592    -4419197.45149  -3426385.95345  23877143.947    23877147.945
  24545236.137     3036733.93249   2382578.74445  24545235.597    24545241.233
 03  4  2  2 41  0.0000000  0  8G14G31G25G 3G11G15G18G23
  20659027.641   -26467459.30049 -20575073.19248  20659027.053    20659029.416
  23366779.526    -6790841.96349  -5279530.47646  23366778.905    23366785.133
  22334007.377   -17247685.90649 -13421785.85647  22334007.159    22334011.953
  23982386.137    -6553336.89449  -5089485.20345  23982385.630    23982393.900
  22801215.949   -14977659.88449 -11368314.12046  22801215.438    22801219.358
  23456170.581    -6318834.76149  -4909058.24345  23456169.882    23456175.870
  23890945.436    -4346673.85249  -3369874.07445  23890944.753    23890948.687
  24557305.805     3100161.18049   2432002.52345  24557305.252    24557311.063
 03  4  2  2 41 30.0000000  0  8G14G31G25G 3G11G15G18G23
  20667530.265   -26422777.58449 -20540256.25848  20667529.677    20667532.043
  23379368.388    -6724687.18249  -5227981.33846  23379367.760    23379374.013
  22317844.312   -17332623.14749 -13487970.59747  22317844.048    22317848.814
  23998409.051    -6469136.38849  -5023874.54845  23998408.567    23998416.883
  22785495.781   -15060269.07849 -11432684.80946  22785495.350    22785499.188
  23476531.536    -6211837.20149  -4825683.58045  23476530.806    23476536.800
  23904764.228    -4274055.00749  -3313287.97645  23904763.637    23904767.591
  24569389.380     3163659.71449   2481481.89245  24569388.646    24569394.433
 03  4  2  2 42  0.0000000  0  8G14G31G25G 3G11G15G18G23
  20676099.157   -26377747.70549 -20505168.03248  20676098.565    20676100.953
  23392012.490    -6658242.01949  -5176205.92746  23392011.887    23392018.100
  22301733.729   -17417284.60049 -13553940.44347  22301733.451    22301738.182
  24014442.134    -6384882.34149  -4958222.18645  24014441.668    24014450.136
  22769830.932   -15142587.80349 -11496829.14746  22769830.465    22769834.337
  23496931.532    -6104634.69949  -4742149.21845  23496930.733    23496936.803
  23918601.146    -4201341.15249  -3256627.83645  23918600.617    23918604.429
  24581486.464     3227229.53549   2531016.83445  24581485.691    24581491.277
 03  4  2  2 42 30.0000000  0  8G14G31G25G 3G11G15G18G23
  20684733.291   -26332374.99749 -20469812.66548  20684732.668    20684735.059
  23404710.779    -6591512.71249  -5124209.10746  23404710.126    23404716.288
  22285675.499   -17501670.90449 -13619695.88447  22285675.208    22285679.843
  24030484.333    -6300580.79849  -4892532.82445  24030483.912    24030492.301
  22754221.259   -15224616.40249 -11560747.43446  22754220.871    22754224.677
  23517369.463    -5997232.54449  -4658459.28745  23517368.665    23517374.868
  23932455.796    -4128535.56849  -3199896.23545  23932455.106    23932458.914
  24593596.549     3290867.74849   2580605.03345  24593595.719    24593601.202
 03  4  2  2 43  0.0000000  0  8G14G31G25G 3G11G15G18G23
  20693433.371   -26286655.72649 -20434187.25548  20693432.765    20693435.148
  23417463.477    -6524496.79949  -5071988.95946  23417462.818    23417469.099
  22269671.125   -17585774.02849 -13685230.67347  22269670.808    22269675.395
  24046536.074    -6216229.10049  -4826804.36745  24046535.699    24046543.995
  22738668.308   -15306347.38149 -11624433.82246  22738667.938    22738671.677
  23537846.156    -5889627.24049  -4574611.05945  23537845.389    23537851.539
  23946328.833    -4055632.47249  -3143088.64245  23946328.252    23946331.955
  24605720.410     3354579.98249   2630250.93045  24605719.665    24605725.124
 03  4  2  2 43 30.0000000  0  8G14G31G25G 3G11G15G18G23
  20702198.102   -26240596.79049 -20398297.15948  20702197.487    20702199.863
  23430269.208    -6457201.95649  -5019551.45646  23430268.543    23430274.821
  22253720.206   -17669596.02549 -13750546.39647  22253719.900    22253724.458
  24062595.948    -6131834.81149  -4761042.72445  24062595.562    24062603.849
  22723171.550   -15387782.99649 -11687890.04346  22723171.146    22723174.880
  23558360.275    -5781825.65349  -4490609.88145  23558359.417    23558365.556
  23960219.451    -3982636.74649  -3086208.86745  23960218.826    23960222.753
  24617857.768     3418361.89249   2679951.10045  24617856.983    24617862.593
 03  4  2  2 44  0.0000000  0  8G14G31G25G 3G11G15G18G23
  20711027.730   -26194196.63949 -20362141.18548  20711027.124    20711029.481
  23443128.386    -6389627.22749  -4966895.87546  23443127.710    23443133.941
  22237823.996   -17753130.65549 -13815638.20647  22237823.705    22237828.217
  24078663.910    -6047397.27949  -4695247.39545  24078663.618    24078671.860
  22707732.154   -15468917.26049 -11751111.46646  22707731.754    22707735.410
  23578911.970    -5673825.90949  -4406454.28245  23578911.140    23578917.311
  23974128.234    -3909544.49849  -3029253.87645  23974127.647    23974131.693
  24630009.105     3482217.74449   2729708.89345  24630008.410    24630014.160
 03  4  2  2 44 30.0000000  0  8G14G31G25G 3G11G15G18G23
  20719921.469   -26147459.52149 -20325722.64548  20719920.897    20719923.237
  23456039.750    -6321778.03849  -4914026.42546  23456039.052    23456045.197
  22221982.542   -17836377.71749 -13880505.94147  22221982.262    22221986.704
  24094739.207    -5962921.65149  -4629422.37245  24094738.849    24094747.241
  22692350.041   -15549750.51049 -11814098.33746  22692349.633    22692353.251
  23599500.535    -5565632.30949  -4322147.62745  23599499.697    23599505.879
  23988055.219    -3836358.07549  -2972225.53345  23988054.575    23988058.644
  24642174.165     3546145.34049   2779522.60945  24642173.479    24642179.213
 03  4  2  2 45  0.0000000  0  8G14G31G25G 3G11G15G18G23
  20728878.629   -26100389.25549 -20289044.50148  20728878.066    20728880.398
  23469002.295    -6253659.34449  -4860946.97446  23469001.608    23469007.794
  22206195.902   -17919336.38249 -13945148.94947  22206195.681    22206200.064
  24110820.832    -5878412.66349  -4563571.35045  24110820.506    24110828.939
  22677025.307   -15630282.00549 -11876850.06846  22677024.932    22677028.533
  23620125.318    -5457248.82249  -4237693.01145  23620124.538    23620130.710
  24001999.746    -3763079.63549  -2915125.45845  24001998.993    24002003.078
  24654352.524     3610143.14249   2829391.05745  24654351.848    24654357.394
 03  4  2  2 45 30.0000000  0  8G14G31G25G 3G11G15G18G23
  20737899.972   -26052981.78049 -20252103.59948  20737899.411    20737901.734
  23482016.762    -6185267.77149  -4807654.88246  23482016.128    23482022.359
  22190465.950   -18001997.81149 -14009560.34947  22190465.680    22190469.988
  24126909.495    -5793866.86849  -4497691.67045  24126909.218    24126917.628
  22661759.796   -15710502.78649 -11939359.69546  22661759.341    22661762.958
  23640787.175    -5348671.26849  -4153087.18645  23640786.234    23640792.461
  24015962.728    -3689702.77249  -2857948.72945  24015962.135    24015966.355
  24666545.438     3674217.81849   2879319.36945  24666544.766    24666550.858
 03  4  2  2 46  0.0000000  0  8G14G31G25G 3G11G15G18G23
  20746984.338   -26005243.18549 -20214904.68048  20746983.772    20746986.079
  23495081.919    -6116610.58049  -4754155.84346  23495081.274    23495087.493
  22174792.235   -18084363.47049 -14073741.27547  22174791.931    22174796.238
  24143003.936    -5709291.27949  -4431788.75745  24143003.596    24143011.997
  22646552.940   -15790415.07049 -12001628.94246  22646552.508    22646556.071
  23661484.525    -5239905.95749  -4068335.04045  23661483.615    23661489.753
  24029943.801    -3616231.65449  -2800698.52145  24029943.216    24029947.327
  24678752.457     3738365.45449   2929304.55345  24678751.945    24678757.701
 03  4  2  2 46 30.0000000  0  8G14G31G25G 3G11G15G18G23
  20756131.337   -25957175.25549 -20177449.13748  20756130.790    20756133.087
  23508197.031    -6047690.54349  -4700451.97446  23508196.354    23508202.514
  22159175.298   -18166430.38049 -14137689.40947  22159175.043    22159179.325
  24159103.406    -5624688.75249  -4365864.85245  24159102.981    24159111.504
  22631405.275   -15870016.23649 -12063655.75046  22631404.805    22631408.389
  23682217.276    -5130954.73049  -3983438.01945  23682216.362    23682222.522
  24043942.918    -3542666.08549  -2743374.72645  24043942.225    24043946.338
  24690973.443     3802586.52949   2979346.93145  24690972.795    24690978.508
 03  4  2  2 47  0.0000000  0  8G14G31G25G 3G11G15G18G23
  20765340.789   -25908779.30849 -20139738.00048  20765340.214    20765342.509
  23521361.739    -5978509.63949  -4646544.84446  23521361.091    23521367.268
  22143615.821   -18248195.53849 -14201402.41547  22143615.544    22143619.840
  24175207.544    -5540060.95149  -4299921.25245  24175207.142    24175215.652
  22616317.377   -15949303.18949 -12125437.73046  22616316.949    22616320.550
  23702985.260    -5021818.69249  -3898397.00645  23702984.336    23702990.460
  24057960.137    -3469005.02349  -2685976.53645  24057959.491    24057963.663
  24703208.595     3866882.45649   3029447.65445  24703207.965    24703213.803
 03  4  2  2 47 30.0000000  0  8G14G31G25G 3G11G15G18G23
  20774612.127   -25860058.17249 -20101773.46748  20774611.546    20774613.856
  23534575.333    -5909071.57349  -4592437.32346  23534574.743    23534581.035
  22128114.188   -18329656.68449 -14264878.52947  22128113.896    22128118.228
  24191315.899    -5455411.56449  -4233960.84945  24191315.551    24191324.006
  22601289.645   -16028274.11849 -12186973.44246  22601289.203    22601292.830
  23723787.843    -4912500.58049  -3813214.11445  23723786.884    23723793.067
  24071995.450    -3395249.18249  -2628504.47545  24071994.834    24071998.897
  24715457.851     3931252.77749   3079606.32845  24715457.185    24715463.295
 03  4  2  2 48  0.0000000  0  8G14G31G25G 3G11G15G18G23
  20783944.880   -25811014.08149 -20063557.28148  20783944.315    20783946.616
  23547837.286    -5839379.71449  -4538132.05846  23547836.691    23547843.076
  22112670.863   -18410811.31949 -14328115.80647  22112670.577    22112674.906
  24207427.826    -5370743.78249  -4167986.09945  24207427.367    24207435.948
  22586322.514   -16106926.69649 -12248261.09346  22586322.085    22586325.698
  23744624.598    -4803002.81249  -3727891.22045  23744623.649    23744629.806
  24086048.698    -3321398.68949  -2570958.67245  24086048.196    24086052.231
  24727721.241     3995697.58549   3129823.04745  24727720.585    24727726.673
 03  4  2  2 48 30.0000000  0  8G14G31G25G 3G11G15G18G23
  20793338.832   -25761648.36449 -20025090.47648  20793338.262    20793340.595
  23561147.111    -5769436.39349  -4483630.84746  23561146.517    23561152.911
  22097286.523   -18491656.23449 -14391111.74547  22097286.217    22097290.518
  24223542.777    -5286059.74149  -4101998.68645  24223542.262    24223550.999
  22571416.427   -16185258.41249 -12309298.72746  22571416.024    22571419.619
  23765495.188    -4693326.91649  -3642429.53345  23765494.261    23765500.410
  24100120.178    -3247453.06249  -2513338.72345  24100119.604    24100123.769
  24739999.117     4060217.80649   3180098.55245  24739998.455    24740004.455
 03  4  2  2 49  0.0000000  0  8G14G31G25G 3G11G15G18G23
  20802794.006   -25711961.00849 -19986373.04448  20802793.436    20802795.787
  23574504.670    -5699242.43649  -4428934.33946  23574504.051    23574510.448
  22081961.973   -18572187.12749 -14453863.00047  22081961.636    22081965.889
  24239660.642    -5201359.97749  -4035999.02845  24239660.102    24239668.943
  22556572.255   -16263264.60649 -12370082.70846  22556571.900    22556575.468
  23786399.708    -4583472.54949  -3556828.76645  23786398.859    23786405.007
  24114210.072    -3173410.13549  -2455642.97345  24114209.630    24114213.704
  24752291.709     4124816.06149   3230434.80145  24752291.015    24752297.380
 03  4  2  2 49 30.0000000  0  8G14G31G25G 3G11G15G18G23
  20812309.131   -25661958.51349 -19947410.04348  20812308.569    20812310.931
  23587908.401    -5628805.24849  -4374048.29846  23587907.821    23587914.275
  22066696.737   -18652406.09649 -14516371.19047  22066696.414    22066700.625
  24255780.082    -5116651.87749  -3969992.86045  24255779.514    24255788.458
  22541789.777   -16340947.22049 -12430614.53646  22541789.334    22541792.843
  23807337.140    -4473446.25049  -3471094.02445  23807336.254    23807342.375
  24128317.698    -3099274.12049  -2397874.68845  24128317.184    24128321.385
  24764598.435     4189488.19549   3280828.65745  24764597.676    24764603.945
 03  4  2  2 50  0.0000000  0  8G14G31G25G 3G11G15G18G23
  20821884.227   -25611641.00749 -19908201.57948  20821883.660    20821886.029
  23601358.319    -5558126.12649  -4318973.75546  23601357.720    23601364.145
  22051491.737   -18732308.52049 -14578632.71947  22051491.410    22051495.621
  24271900.837    -5031936.44749  -3903980.99845  24271900.413    24271909.383
  22527069.538   -16418302.38849 -12490891.21046  22527069.085    22527072.578
  23828307.131    -4363248.38749  -3385225.59845  23828306.177    23828312.317
  24142443.460    -3025043.27049  -2340032.48645  24142442.885    24142447.145
  24776919.525     4254236.24049   3331281.68345  24776918.796    24776925.190
 03  4  2  2 50 30.0000000  0  7G14G31G25G 3G11G15G18
  20831518.586   -25561011.95149 -19868750.35648  20831518.030    20831520.389
  23614853.355    -5487209.42049  -4263714.07746  23614852.747    23614859.208
  22036347.224   -18811892.91649 -14640646.45347  22036346.935    22036351.125
  24288022.415    -4947217.98849  -3837966.78045  24288021.891    24288030.915
  22512411.797   -16495328.95949 -12550911.84746  22512411.362    22512414.810
  23849309.019    -4252882.39349  -3299226.16845  23849308.157    23849314.362
  24156586.876    -2950719.08649  -2282117.56545  24156586.343    24156590.544
 03  4  2  2 51  0.0000000  0  7G14G31G25G 3G11G15G18
  20841212.409   -25510070.58249 -19829055.76348  20841211.839    20841214.188
  23628393.546    -5416055.25549  -4208269.35746  23628392.924    23628399.530
  22021264.219   -18891154.19149 -14702408.39247  22021263.936    22021268.125
  24304144.709    -4862496.24349  -3771949.99945  24304144.141    24304153.056
  22497817.638   -16572021.71549 -12610672.34646  22497817.175    22497820.635
  23870343.076    -4142347.26549  -3213094.93745  23870342.365    23870348.537
  24170748.717    -2876298.68749  -2224127.66745  24170748.119    24170752.281
 03  4  2  2 51 30.0000000  0  7G14G31G25G 3G11G15G18
  20850965.602   -25458817.16849 -19789118.02348  20850965.027    20850967.337
  23641978.729    -5344665.05049  -4152640.70946  23641978.039    23641984.753
  22006243.488   -18970088.25049 -14763915.36147  22006243.195    22006247.386
  24320267.132    -4777772.44849  -3705931.63345  24320266.639    24320275.644
  22483287.694   -16648376.80649 -12670169.73946  22483287.234    22483290.732
  23891409.270    -4031643.50649  -3126832.31845  23891408.493    23891414.821
  24184929.053    -2801780.26249  -2166061.37145  24184928.513    24184932.731
 03  4  2  2 52  0.0000000  0  7G14G31G25G 3G11G15G18
  20860776.672   -25407259.80949 -19748943.43948  20860776.085    20860778.361
  23655607.201    -5273047.60949  -4096835.00246  23655606.524    23655613.200
  21991284.405   -19048698.11349 -14825169.71847  21991284.151    21991288.305
  24336388.254    -4693055.36049  -3639918.48345  24336387.760    24336396.869
  22468821.345   -16724397.75849 -12729406.76446  22468820.899    22468824.320
  23912506.023    -3920779.15749  -3040444.55345  23912505.337    23912511.722
  24199127.132    -2727169.65749  -2107923.26045  24199126.484    24199130.715
 03  4  2  2 52 30.0000000  0  7G14G31G25G 3G11G15G18
  20870646.219   -25355394.95149 -19708529.25448  20870645.633    20870647.891
  23669279.322    -5201200.52649  -4040850.35946  23669278.699    23669285.386
  21976388.573   -19126976.14949 -14886165.50147  21976388.253    21976392.411
  24352508.748    -4608342.30949  -3573908.48445  24352508.278    24352517.418
  22454420.031   -16800076.86749 -12788377.42146  22454419.589    22454422.939
  23933633.994    -3809751.05849  -2953929.21845  23933633.320    23933639.752
  24213343.499    -2652461.57149  -2049709.19845  24213342.982    24213347.130
 03  4  2  2 53  0.0000000  0  7G14G31G25G 3G11G15G18
  20880573.703   -25303225.84249 -19667877.99048  20880573.100    20880575.338
  23682994.281    -5129128.15749  -3984690.15746  23682993.684    23683000.297
  21961555.975   -19204921.12549 -14946901.76447  21961555.721    21961559.878
  24368627.871    -4523637.11949  -3507904.61945  24368627.439    24368636.401
  22440083.968   -16875413.05249 -12847080.85946  22440083.533    22440086.866
  23954792.574    -3698562.25149  -2867288.65945  23954791.972    23954798.406
  24227578.314    -2577657.06249  -1991419.99745  24227577.827    24227581.979
 03  4  2  2 53 30.0000000  0  7G14G31G25G 3G11G15G18
  20890558.304   -25250756.34649 -19626992.66048  20890557.708    20890559.943
  23696751.200    -5056835.02949  -3928357.93546  23696750.631    23696757.312
  21946786.979   -19282532.20949 -15007377.84747  21946786.756    21946790.873
  24384744.547    -4438944.24949  -3441910.34745  24384744.122    24384752.981
  22425813.292   -16950405.47249 -12905516.43846  22425812.863    22425816.166
  23975980.907    -3587216.60649  -2780525.86745  23975980.274    23975986.833
  24241831.104    -2502757.93049  -1933057.08445  24241830.520    24241834.766
 03  4  2  2 54  0.0000000  0  7G14G31G25G 3G11G15G18
  20900600.018   -25197986.79849 -19585873.52748  20900599.416    20900601.650
  23710549.907    -4984322.65149  -3871854.86746  23710549.318    23710556.068
  21932082.399   -19359805.08449 -15067590.40247  21932082.166    21932086.260
  24400858.561    -4354264.84649  -3375926.56545  24400858.167    24400867.048
  22411608.764   -17025050.36049 -12963681.21246  22411608.356    22411611.599
  23997199.145    -3475714.59449  -2693641.23145  23997198.445    23997205.047
  24256102.425    -2427762.23949  -1874618.91345  24256101.800    24256106.146
 03  4  2  2 54 30.0000000  0  7G14G31G25G 3G11G15G18
  20910698.010   -25144921.38349 -19544523.84148  20910697.435    20910699.660
  23724389.472    -4911596.08849  -3815184.90346  23724388.847    23724395.585
  21917442.202   -19436739.67649 -15127539.34847  21917441.961    21917446.016
  24416969.254    -4269603.80449  -3309957.08045  24416968.744    24416977.739
  22397470.447   -17099347.34549 -13021574.88946  22397470.015    22397473.329
  24018446.203    -3364060.46949  -2606638.08145  24018445.536    24018452.249
  24270391.652    -2352672.24349  -1816107.25645  24270390.878    24270395.337
 03  4  2  2 55  0.0000000  0  7G14G31G25G 3G11G15G18
  20920852.264   -25091560.43949 -19502943.87548  20920851.656    20920853.903
  23738269.442    -4838656.73949  -3758349.11046  23738268.769    23738275.585
  21902867.180   -19513331.63149 -15187221.30647  21902866.931    21902870.938
  24433076.077    -4184962.32149  -3244002.84545  24433075.603    24433084.802
  22383399.041   -17173292.65849 -13079194.54546  22383398.625    22383401.892
  24039722.249    -3252254.45349  -2519516.55945  24039721.487    24039728.296
  24284699.022    -2277486.31249  -1757520.84445  24284698.324    24284702.745
 03  4  2  2 55 30.0000000  0  7G14G31G25G 3G11G15G18
  20931061.980   -25037907.90649 -19461136.70248  20931061.388    20931063.634
  23752188.900    -4765509.47749  -3701351.33646  23752188.323    23752195.036
  21888357.494   -19589579.98849 -15246635.52747  21888357.276    21888361.258
  24449178.385    -4100344.94949  -3178067.41645  24449177.806    24449187.177
  22369394.666   -17246885.81549 -13136539.79746  22369394.271    22369397.513
  24061026.382    -3140300.46549  -2432279.74045  24061025.659    24061032.508
  24299024.405    -2202206.18849  -1698861.03445  24299023.756    24299028.119
 03  4  2  2 56  0.0000000  0  7G14G31G25G 3G11G15G18
  20941327.581   -24983961.70149 -19419100.69548  20941326.981    20941329.207
  23766148.192    -4692153.42749  -3644190.84946  23766147.598    23766154.266
  21873914.349   -19665478.87449 -15305777.43647  21873914.125    21873918.094
  24465276.367    -4015750.47449  -3112149.81645  24465275.811    24465284.963
  22355458.454   -17320120.76849 -13193605.92646  22355458.049    22355461.268
  24082359.002    -3028196.78849  -2344926.29245  24082358.271    24082365.137
  24313368.053    -2126828.01749  -1640124.86745  24313367.576    24313372.102
 03  4  2  2 56 30.0000000  0  7G14G31G25G 3G11G15G18
  20951648.081   -24929726.85749 -19376839.77448  20951647.516    20951649.755
  23780146.093    -4618594.39749  -3586872.19146  23780145.497    23780152.196
  21859537.579   -19741028.83149 -15364647.45447  21859537.377    21859541.309
  24481368.967    -3931184.31449  -3046254.28145  24481368.471    24481377.489
  22341590.351   -17392997.77449 -13250393.15046  22341589.959    22341593.158
  24103719.205    -2915948.48649  -2257460.13645  24103718.483    24103725.380
  24327730.095    -2051354.56349  -1581314.37545  24327729.842    24327734.244
 03  4  2  2 57  0.0000000  0  7G14G31G25G 3G11G15G18
  20962023.488   -24875203.79149 -19334354.26348  20962022.904    20962025.166
  23794182.253    -4544833.90649  -3529396.56246  23794181.651    23794188.405
  21845228.119   -19816225.50349 -15423242.18047  21845227.874    21845231.791
  24497455.824    -3846647.84149  -2980381.88145  24497455.334    24497464.451
  22327791.090   -17465513.04149 -13306898.49246  22327790.692    22327793.841
  24125106.766    -2803556.16649  -2169881.77345  24125106.047    24125112.991
  24342110.709    -1975784.24649  -1522428.47445  24342110.547    24342114.871
 03  4  2  2 57 30.0000000  0  7G14G31G25G 3G11G15G18
  20972452.420   -24820399.11649 -19291649.31548  20972451.864    20972454.137
  23808255.461    -4470879.48249  -3471769.81946  23808254.818    23808261.573
  21830985.416   -19891071.07849 -15481563.32647  21830985.154    21830989.060
  24513535.636    -3762148.23649  -2914538.21345  24513535.223    24513544.433
  22314060.262   -17537668.80049 -13363123.70247  22314059.878    22314063.001
  24146520.437    -2691026.43849  -2082196.33345  24146519.713    24146526.709
  24356508.946    -1900121.53349  -1463470.53845  24356508.580    24356513.224
 03  4  2  2 58  0.0000000  0  7G14G31G25G 3G11G15G18
  20982935.615   -24765309.49649 -19248722.33048  20982935.056    20982937.333
  23822365.819    -4396728.88249  -3413990.20746  23822365.250    23822371.985
  21816810.975   -19965558.06149 -15539605.05147  21816810.716    21816814.603
  24529609.043    -3677682.58649  -2848721.01545  24529608.565    24529618.095
  22300399.265   -17609457.44849 -13419062.84647  22300398.855    22300402.041
  24167960.821    -2578356.19749  -1994401.39145  24167960.139    24167967.243
  24370925.658    -1824361.30949  -1404436.59545  24370925.210    24370929.932
 03  4  2  2 58 30.0000000  0  7G14G31G25G 3G11G15G18
  20993472.328   -24709938.80149 -19205576.32548  20993471.752    20993474.054
  23836512.700    -4322387.02149  -3356061.55145  23836512.146    23836518.830
  21802704.871   -20039685.88849 -15597366.91147  21802704.602    21802708.458
  24545675.169    -3593255.65649  -2782933.98045  24545674.692    24545684.140
  22286808.172   -17680878.76049 -13474715.75247  22286807.774    22286810.942
  24189427.452    -2465549.23549  -1906499.92445  24189426.679    24189433.772
  24385360.613    -1748505.23149  -1345327.98845  24385360.177    24385365.036
 03  4  2  2 59  0.0000000  0  7G14G31G25G 3G11G15G18
  21004062.024   -24654289.53149 -19162213.25448  21004061.441    21004063.754
  23850695.303    -4247857.16249  -3297986.40845  23850694.728    23850701.471
  21788667.670   -20113451.89249 -15654846.84347  21788667.330    21788671.160
  24561733.242    -3508870.54249  -2717179.52945  24561732.766    24561742.291
  22273287.516   -17751930.48449 -13530080.68247  22273287.094    22273290.183
  24210919.551    -2352607.87949  -1818493.74345  24210918.760    24210925.854
  24399813.612    -1672553.73649  -1286145.05045  24399813.270    24399817.694
 03  4  2  2 59 30.0000000  0  7G14G31G25G 3G11G15G18
  21014704.439   -24598363.06749 -19118634.18748  21014703.863    21014706.175
  23864913.212    -4173141.87949  -3239766.79245  23864912.574    23864919.407
  21774699.717   -20186853.51749 -15712042.83847  21774699.400    21774703.240
  24577782.892    -3424529.43449  -2651459.37545  24577782.365    24577792.135
  22259837.574   -17822610.09049 -13585155.64347  22259837.175    22259840.275
  24232436.872    -2239533.86849  -1730384.19145  24232436.114    24232443.100
  24414285.055    -1596506.27549  -1226887.29845  24414284.402    24414288.915
 03  4  2  3  0  0.0000000  0  7G14G31G25G 3G11G15G18
  21025399.236   -24542161.59549 -19074840.82348  21025398.669    21025400.973
  23879165.714    -4098244.38949  -3181405.19845  23879165.088    23879171.997
  21760801.459   -20259888.85549 -15768953.41647  21760801.151    21760805.014
  24593823.709    -3340235.07949  -2585775.66245  24593823.290    24593832.852
  22246458.876   -17892915.43449 -13639938.97747  22246458.467    22246461.522
  24253979.048    -2126329.56449  -1642173.10245  24253978.300    24253985.286
  24428774.854    -1520362.90349  -1167554.83445  24428774.301    24428778.615
 03  4  2  3  0 30.0000000  0  7G14G31G25G 3G11G15G18
  21036145.555   -24485689.35549 -19030836.46848  21036144.980    21036147.261
  23893452.015    -4023169.97749  -3122905.74045  23893451.417    23893458.225
  21746972.911   -20332557.88349 -15825578.55247  21746972.634    21746976.495
  24609854.689    -3255992.62149  -2520132.39345  24609854.322    24609863.820
  22233151.352   -17962846.51649 -13694430.66747  22233150.960    22233154.036
  24275545.173    -2012999.19449  -1553863.79945  24275544.460    24275551.352
  24443282.217    -1444126.04449  -1108149.48745  24443281.728    24443286.085
 03  4  2  3  1  0.0000000  0  7G14G31G25G 3G11G15G18
  21046943.950   -24428943.49849 -18986618.91148  21046943.364    21046945.636
  23907772.269    -3947916.85549  -3064267.01945  23907771.654    23907778.571
  21733215.515   -20404853.27649 -15881912.55647  21733215.238    21733219.066
  24625876.126    -3171799.84849  -2454527.83545  24625875.791    24625885.290
  22219916.414   -18032396.40149 -13748625.32747  22219915.992    22219919.072
  24297135.730    -1899540.08649  -1465454.16245  24297135.203    24297142.142
  24457808.450    -1367790.73149  -1048667.45345  24457807.971    24457812.316
 03  4  2  3  1 30.0000000  0  7G14G31G25G 3G11G15G18
  21057793.253   -24371930.06949 -18942192.85548  21057792.683    21057794.929
  23922125.127    -3872492.04349  -3005494.52745  23922124.538    23922131.502
  21719528.954   -20476776.36249 -15937956.44547  21719528.683    21719532.499
  24641886.832    -3087663.33449  -2388967.12545  24641886.577    24641896.182
  22206753.673   -18101566.74649 -13802524.24047  22206753.275    22206756.353
  24318749.572    -1785958.44449  -1376949.06445  24318748.951    24318756.020
  24472352.486    -1291360.97649   -989111.82445  24472352.053    24472356.437
 03  4  2  3  2  0.0000000  0  7G14G31G25G 3G11G15G18
  21068693.487   -24314648.90349 -18897558.16848  21068692.917    21068695.139
  23936510.463    -3796896.43149  -2946588.94645  23936509.959    23936516.852
  21705914.023   -20548323.00349 -15993706.99947  21705913.769    21705917.591
  24657886.840    -3003583.58449  -2323450.64845  24657886.619    24657896.321
  22193664.074   -18170353.01449 -13856123.87747  22193663.656    22193666.675
  24340386.943    -1672254.01749  -1288348.26145  24340386.251    24340393.106
  24486915.113    -1214834.74949   -929481.01745  24486914.562    24486918.755
 03  4  2  3  2 30.0000000  0  7G14G31G25G 3G11G15G18
  21079643.829   -24257104.41049 -18852718.29548  21079643.247    21079645.459
  23950927.427    -3721135.28449  -2887554.37745  23950926.908    23950933.861
  21692370.760   -20619492.99949 -16049164.06747  21692370.494    21692374.297
  24673875.142    -2919565.37849  -2257982.13145  24673874.871    24673884.720
  22180647.412   -18238755.48949 -13909424.44247  22180647.018    22180650.100
  24362046.916    -1558431.41949  -1199655.37945  24362046.195    24362052.938
  24501495.514    -1138214.13049   -869776.64945  24501494.968    24501499.314
 03  4  2  3  3  0.0000000  0  7G14G31G25G 3G11G15G18
  21090644.738   -24199294.22549 -18807671.39047  21090644.151    21090646.351
  23965376.092    -3645207.24749  -2828389.76445  23965375.645    23965382.456
  21678900.505   -20690279.50049 -16104322.30747  21678900.250    21678904.021
  24689852.033    -2835606.85449  -2192560.11945  24689851.661    24689861.660
  22167705.146   -18306767.39249 -13962420.68347  22167704.767    22167707.779
  24383729.574    -1444488.38449  -1110868.64045  24383728.855    24383735.540
  24516094.696    -1061494.78449   -809995.38445  24516094.271    24516098.460
 03  4  2  3  3 30.0000000  0  7G14G31G25G 3G11G15G18
  21101694.677   -24141226.09149 -18762423.48447  21101694.131    21101696.334
  23979854.876    -3569121.30049  -2769102.09245  23979854.333    23979861.155
  21665502.462   -20760686.39549 -16159184.75147  21665502.185    21665505.966
  24705815.800    -2751716.79149  -2127191.47445  24705815.580    24705825.560
  22154836.472   -18374392.48449 -14015115.50147  22154836.076    22154839.083
  24405433.721    -1330432.90749  -1021994.28945  24405432.950    24405439.367
  24530711.580     -984682.83049   -750141.93545  24530710.992    24530715.132
 03  4  2  3  4  0.0000000  0  7G14G31G25G 3G11G15G18
  21112794.494   -24082895.92549 -18716971.39947  21112793.937    21112796.167
  23994364.275    -3492874.37549  -2709688.99345  23994363.637    23994370.554
  21652178.254   -20830705.10549 -16213744.71747  21652178.039    21652181.773
  24721767.453    -2667891.79849  -2061873.51545  24721767.157    24721777.227
  22142043.032   -18441622.34549 -14067502.36047  22142042.643    22142045.610
  24427160.022    -1216261.31549   -933029.46745  24427159.070    24427165.474
  24545347.254     -907771.94249   -690211.41145  24545346.621    24545350.811
 03  4  2  3  4 30.0000000  0  7G14G31G25G 3G11G15G18
  21123942.451   -24024312.95749 -18671322.32547  21123941.899    21123944.137
  24008902.407    -3416476.72249  -2650158.44445  24008901.684    24008908.534
  21638927.014   -20900340.72249 -16268006.16047  21638926.773    21638930.467
  24737704.763    -2584141.58349  -1996613.82645  24737704.383    24737714.547
  22129323.817   -18508462.05949 -14119585.19747  22129323.409    22129326.401
  24448906.523    -1101982.84449   -843981.35645  24448905.585    24448911.963
  24560000.346     -830769.55749   -630209.58145  24559999.716    24560003.857
 03  4  2  3  5  0.0000000  0  7G14G31G25G 3G11G15G18
  21135139.553   -23965471.92549 -18625472.15947  21135138.988    21135141.231
  24023469.982    -3339923.98949  -2590507.06645  24023469.209    24023476.052
  21625750.512   -20969583.62849 -16321961.60447  21625750.265    21625753.931
  24753628.680    -2500461.36049  -1931408.68745  24753628.200    24753638.492
  22116680.580   -18574902.23549 -14171356.70547  22116680.211    22116683.201
  24470674.502     -987591.95249   -754845.67145  24470673.475    24470679.928
  24574672.325     -753668.03449   -570130.51645  24574671.739    24574675.851
 03  4  2  3  5 30.0000000  0  7G14G31G25G 3G11G15G18
  21146384.446   -23906379.61049 -18579426.19147  21146383.863    21146386.101
  24038065.360    -3263224.13649  -2530741.04445  24038064.695    24038071.696
  21612648.194   -21038436.62249 -16375613.21647  21612647.925    21612651.554
  24769537.792    -2416858.75149  -1866264.02045  24769537.325    24769547.717
  22104112.949   -18640945.65049 -14222819.05347  22104112.561    22104115.540
  24492462.445     -873095.98849   -665628.08345  24492461.492    24492467.822
  24589362.282     -676472.58149   -509978.25145  24589361.569    24589365.619
 03  4  2  3  6  0.0000000  0  7G14G31G25G 3G11G15G18
  21157677.786   -23847032.80549 -18533181.92047  21157677.195    21157679.434
  24052689.349    -3186374.83449  -2470858.57545  24052688.750    24052695.835
  21599621.494   -21106892.18149 -16428955.13647  21599621.204    21599624.806
  24785432.651    -2333331.15549  -1801177.81445  24785432.222    24785442.648
  22091622.169   -18706584.76249 -14273966.36147  22091621.808    22091624.746
  24514270.866     -758491.58649   -576326.01545  24514269.954    24514276.329
  24604071.053     -599177.74849   -449748.55445  24604070.327    24604074.453
 03  4  2  3  6 30.0000000  0  5G14G31G25G11G15
  21169016.481   -23787447.57349 -18486751.86847  21169015.905    21169018.142
  24067338.513    -3109393.46649  -2410873.19245  24067337.889    24067345.055
  21586668.179   -21174962.04049 -16481996.52547  21586667.901    21586671.469
  22079206.121   -18771831.48649 -14324807.91847  22079205.744    22079208.652
  24536096.793     -643795.46049   -486952.47545  24536095.974    24536102.428
 03  4  2  3  7  0.0000000  0  5G14G31G25G11G15
  21180402.561   -23727613.28649 -18440127.74047  21180401.973    21180404.216
  24082014.564    -3032270.16749  -2350777.20945  24082014.128    24082021.234
  21573791.090   -21242631.23849 -16534725.69847  21573790.825    21573794.375
  22066867.496   -18836670.89949 -14375332.08347  22066867.146    22066870.073
  24557942.417     -528996.71849   -397498.97445  24557941.461    24557948.041
 03  4  2  3  7 30.0000000  0  5G14G31G25G11G15
  21191835.712   -23667531.64949 -18393310.88147  21191835.128    21191837.350
  24096717.188    -2955007.72349  -2290572.81745  24096716.770    24096723.833
  21560990.685   -21309897.58249 -16587140.96547  21560990.407    21560993.940
  22054606.815   -18901100.81649 -14425537.16647  22054606.494    22054609.387
  24579807.001     -414097.40549   -307967.10245  24579806.184    24579812.676
 03  4  2  3  8  0.0000000  0  5G14G31G25G11G15
  21203315.674   -23607204.00549 -18346302.32347  21203315.080    21203317.303
  24111445.741    -2877608.76349  -2230262.02845  24111445.304    24111452.533
  21548267.450   -21376758.47249 -16639240.29347  21548267.155    21548270.690
  22042424.614   -18965118.44349 -14475420.97647  22042424.258    22042427.197
  24601690.343     -299099.21649   -218358.19745  24601689.655    24601696.214
 03  4  2  3  8 30.0000000  0  5G14G31G25G11G15
  21214842.329   -23546631.06349 -18299102.62847  21214841.731    21214843.966
  24126200.093    -2800074.75349  -2169846.03045  24126199.589    24126206.909
  21535622.006   -21443210.10749 -16691020.72947  21535621.769    21535625.280
  22030321.604   -19028720.26749 -14524980.80147  22030321.246    22030324.133
  24623592.526     -184002.88449   -128672.82145  24623591.742    24623598.383
 03  4  2  3  9  0.0000000  0  5G14G31G25G11G15
  21226413.200   -23485825.61249 -18251721.75347  21226412.610    21226414.874
  24140977.513    -2722419.82149  -2109335.79845  24140976.939    24140984.403
  21523052.809   -21509261.57949 -16742489.34047  21523052.561    21523056.046
  22018296.012   -19091915.03649 -14574223.42647  22018295.651    22018298.506
  24645510.822      -68821.40449    -38921.09545  24645510.048    24645516.737
 03  4  2  3  9 30.0000000  0  5G14G31G25G11G15
  21238029.796   -23424779.84649 -18204153.62747  21238029.208    21238031.486
  24155779.245    -2644637.18349  -2048726.05245  24155778.632    24155786.056
  21510562.062   -21574900.83349 -16793636.74547  21510561.778    21510565.212
  22006350.151   -19154691.14749 -14623139.82847  22006349.751    22006352.609
  24667446.723       46452.79049     50902.87245  24667445.883    24667452.898
 03  4  2  3 10  0.0000000  0  4G14G31G25G11
  21249690.404   -23363502.88849 -18156405.34747  21249689.826    21249692.118
  24170603.276    -2566736.77849  -1988024.54845  24170602.720    24170610.020
  21498148.886   -21640132.16149 -16844466.28847  21498148.592    21498151.995
  21994482.946   -19217053.28249 -14671733.64847  21994482.557    21994485.414
 03  4  2  3 10 30.0000000  0  4G14G31G25G11
  21261393.247   -23302004.04149 -18108484.17047  21261392.684    21261394.968
  24185447.673    -2488729.13749  -1927239.47545  24185447.113    24185454.522
  21485812.234   -21704961.55949 -16894982.63847  21485811.942    21485815.299
  21982693.608   -19279006.83149 -14720009.09447  21982693.188    21982695.972
 03  4  2  3 11  0.0000000  0  4G14G31G25G11
  21273142.275   -23240262.54549 -18060373.91647  21273141.690    21273143.968
  24200316.314    -2410594.58749  -1866355.52445  24200315.740    24200323.098
  21473556.780   -21769364.32349 -16945166.54447  21473556.466    21473559.806
  21970986.699   -19340526.86649 -14767946.74047  21970986.263    21970989.043
 03  4  2  3 11 30.0000000  0  4G14G31G25G11
  21284935.405   -23178289.17049 -18012082.97447  21284934.836    21284937.095
  24215206.839    -2332344.89449  -1805381.83545  24215206.232    24215213.611
  21461381.156   -21833347.13149 -16995023.21347  21461380.885    21461384.227
  21959360.993   -19401620.19349 -14815551.88347  21959360.571    21959363.306
 03  4  2  3 12  0.0000000  0  4G14G31G25G11
  21296772.317   -23116085.79949 -17963612.82047  21296771.752    21296774.014
  24230118.744    -2253983.08149  -1744320.79145  24230118.128    24230125.511
  21449285.914   -21896907.48649 -17044550.70147  21449285.639    21449288.995
  21947816.810   -19462284.85449 -14862823.00847  21947816.433    21947819.163
 03  4  2  3 12 30.0000000  0  4G14G31G25G11
  21308652.507   -23053655.05249 -17914965.48647  21308651.937    21308654.191
  24245051.225    -2175512.90649  -1683175.30645  24245050.581    24245057.960
  21437271.325   -21960044.31049 -17093748.16047  21437271.066    21437274.381
  21936354.569   -19522519.45849 -14909759.01347  21936354.138    21936356.823
 03  4  2  3 13  0.0000000  0  4G14G31G25G11
  21320575.153   -22991001.23949 -17866144.33647  21320574.573    21320576.814
  24260003.327    -2096939.58049  -1621949.46145  24260002.699    24260010.100
  21425337.306   -22022757.77549 -17142615.73247  21425337.048    21425340.327
  21924973.993   -19582324.23749 -14956360.08247  21924973.567    21924976.326
 03  4  2  3 13 30.0000000  0  4G14G31G25G11
  21332540.238   -22928124.29649 -17817149.31747  21332539.660    21332541.892
  24274974.887    -2018264.13449  -1560644.01745  24274974.244    24274981.651
  21413484.593   -22085043.87949 -17191150.29847  21413484.353    21413487.621
  21913676.030   -19641695.23349 -15002623.14647  21913675.608    21913678.329
 03  4  2  3 14  0.0000000  0  4G14G31G25G11
  21344547.197   -22865027.31249 -17767982.83547  21344546.638    21344548.852
  24289964.963    -1939490.90349  -1499262.39645  24289964.397    24289971.884
  21401713.321   -22146902.22749 -17239351.53847  21401713.032    21401716.322
  21902460.727   -19700631.67349 -15048547.59047  21902460.352    21902463.021
 03  4  2  3 14 30.0000000  0  4G14G31G25G11
  21356595.773   -22801711.85049 -17718646.11147  21356595.167    21356597.393
  24304973.077    -1860622.49249  -1437806.59445  24304972.528    24304980.211
  21390023.823   -22208330.39849 -17287217.58147  21390023.565    21390026.837
  21891328.602   -19759131.28049 -15094131.64847  21891328.229    21891330.852
 03  4  2  3 15  0.0000000  0  4G14G31G25G11
  21368685.777   -22738178.35049 -17669139.48847  21368685.187    21368687.404
  24319999.241    -1781660.24949  -1376277.68745  24319998.605    24320006.286
  21378416.980   -22269324.56549 -17334745.44547  21378416.720    21378419.972
  21880280.332   -19817190.05349 -15139372.20147  21880279.947    21880282.582
 03  4  2  3 15 30.0000000  0  4G14G31G25G11
  21380815.734   -22674434.80549 -17619469.19347  21380815.120    21380817.352
  24335041.431    -1702613.49349  -1314682.92045  24335040.792    24335048.418
  21366891.970   -22329888.87549 -17381938.35147  21366891.709    21366894.926
  21869315.043   -19874812.67949 -15184272.89047  21869314.659    21869317.319
 03  4  2  3 16  0.0000000  0  4G14G31G25G11
  21392986.289   -22610477.80249 -17569632.56447  21392985.694    21392987.943
  24350100.160    -1623479.69849  -1253020.33545  24350099.596    24350107.226
  21355450.048   -22390016.28149 -17428790.81447  21355449.790    21355453.005
  21858434.244   -19931991.47649 -15228827.74047  21858433.851    21858436.502
 03  4  2  3 16 30.0000000  0  4G14G31G25G11
  21405196.975   -22546310.12449 -17519631.77547  21405196.381    21405198.644
  24365174.718    -1544263.00049  -1191293.13945  24365174.171    24365181.781
  21344091.461   -22449705.82049 -17475302.08747  21344091.203    21344094.387
  21847638.112   -19988725.58849 -15273036.08347  21847637.685    21847640.319
 03  4  2  3 17  0.0000000  0  4G14G31G25G11
  21417447.544   -22481933.00249 -17469467.78547  21417446.950    21417449.188
  24380264.527    -1464965.40649  -1129502.90745  24380263.934    24380271.662
  21332816.806   -22508954.43449 -17521469.77947  21332816.509    21332819.646
  21836927.008   -20045012.52549 -15316895.98047  21836926.620    21836929.192
 03  4  2  3 17 30.0000000  0  4G14G31G25G11
  21429737.986   -22417346.33849 -17419140.51347  21429737.391    21429739.636
  24395369.487    -1385587.92649  -1067650.43845  24395368.987    24395376.770
  21321626.809   -22567758.23849 -17567290.87047  21321626.505    21321629.582
  21826301.804   -20100848.04049 -15360404.12247  21826301.426    21826304.006
 03  4  2  3 18  0.0000000  0  4G14G31G25G11
  21442066.276   -22352560.86049 -17368658.32147  21442065.687    21442067.904
  24410487.686    -1306142.51649  -1005745.00245  24410487.091    24410494.924
  21310519.964   -22626124.86649 -17612771.30347  21310519.654    21310522.708
  21815761.192   -20156239.13749 -15403565.96347  21815760.833    21815763.423
 03  4  2  3 18 30.0000000  0  4G14G31G25G11
  21454433.257   -22287572.16549 -17318017.78047  21454432.655    21454434.850
  24425619.280    -1226626.04649   -943784.23145  24425618.645    24425626.256
  21299497.884   -22684046.01549 -17657904.61347  21299497.605    21299500.645
  21805306.665   -20211177.82249 -15446375.27847  21805306.281    21805308.870
 03  4  2  3 19  0.0000000  0  4G14G31G25G11
  21466838.959   -22222380.21949 -17267218.85547  21466838.327    21466840.477
  24440764.186    -1147039.29449   -881768.67245  24440763.592    24440771.356
  21288561.385   -22741517.63449 -17702687.63347  21288561.066    21288564.122
  21794939.079   -20265659.80149 -15488828.72147  21794938.668    21794941.253
 03  4  2  3 19 30.0000000  0  4G14G31G25G11
  21479282.280   -22156990.28949 -17216265.66047  21479281.663    21479283.807
  24455921.205    -1067388.77949   -819703.43945  24455920.359    24455928.469
  21277710.058   -22798541.41449 -17747121.69447  21277709.748    21277712.804
  21784657.998   -20319687.06349 -15530927.84147  21784657.606    21784660.147
 03  4  2  3 20  0.0000000  0  4G14G31G25G11
  21491763.388   -22091401.50249 -17165157.51047  21491762.792    21491764.965
  24471090.314     -987674.61749   -757588.59445  24471089.648    24471097.618
  21266944.922   -22855112.64249 -17791203.11347  21266944.581    21266947.620
  21774464.382   -20373254.78549 -15572668.87747  21774463.992    21774466.521
 03  4  2  3 20 30.0000000  0  4G14G31G25G11
  21504281.384   -22025618.80049 -17113898.25747  21504280.776    21504282.991
  24486270.325     -907902.80949   -695428.85645  24486269.808    24486277.894
  21256265.568   -22911232.76749 -17834933.02347  21256265.234    21256268.259
  21764357.925   -20426364.22449 -15614052.81347  21764357.549    21764360.071
 03  4  2  3 21  0.0000000  0  4G14G31G25G11
  21516836.592   -21959640.47749 -17062486.57047  21516836.004    21516838.274
  24501461.679     -828072.99349   -633223.91745  24501461.041    24501469.063
  21245673.064   -22966896.44549 -17878307.26347  21245672.747    21245675.727
  21754339.708   -20479010.00949 -15655075.45647  21754339.374    21754341.882
 03  4  2  3 21 30.0000000  0  4G14G31G25G11
  21529428.059   -21893471.64349 -17010926.43147  21529427.468    21529429.767
  24516662.903     -748191.21849   -570978.48145  24516662.188    24516670.187
  21235167.215   -23022104.88149 -17921326.76747  21235166.900    21235169.860
  21744409.541   -20531193.48649 -15695737.86647  21744409.179    21744411.654
 03  4  2  3 22  0.0000000  0  4G14G31G25G11
  21542055.711   -21827112.77249 -16959218.20447  21542055.145    21542057.430
  24531873.483     -668259.02749   -508693.75545  24531872.878    24531880.820
  21224748.522   -23076855.19449 -17963989.28547  21224748.193    21224751.181
  21734567.969   -20582911.42449 -15736037.52347  21734567.562    21734569.985
 03  4  2  3 22 30.0000000  0  4G14G31G25G11
  21554719.472   -21760564.42249 -16907362.33947  21554718.869    21554721.137
  24547093.372     -588278.25549   -446371.17845  24547092.711    24547100.711
  21214417.494   -23131144.67549 -18006292.72347  21214417.185    21214420.183
  21724815.424   -20634161.08449 -15775972.28647  21724815.043    21724817.464
 03  4  2  3 23  0.0000000  0  4G14G31G25G11
  21567418.327   -21693831.48749 -16855362.63547  21567417.728    21567419.945
  24562321.453     -508254.72349   -384015.30745  24562320.879    24562328.759
  21204174.046   -23184974.25949 -18048237.79747  21204173.736    21204176.708
  21715151.897   -20684943.34749 -15815542.84547  21715151.464    21715153.850
 03  4  2  3 23 30.0000000  0  4G14G31G25G11
  21580152.342   -21626913.88149 -16803219.04047  21580151.732    21580153.871
  24577557.556     -428189.60749   -321627.00645  24577556.951    24577564.730
  21194018.722   -23238340.71949 -18089821.99847  21194018.406    21194021.359
  21705577.900   -20735254.80449 -15854746.53747  21705577.461    21705579.860
 03  4  2  3 24  0.0000000  0  4G14G31G25G11
  21592921.359   -21559812.17449 -16750931.98147  21592920.772    21592922.871
  24592800.958     -348084.56149   -259207.58445  24592800.329    24592808.289
  21183952.022   -23291241.22649 -18131043.11647  21183951.725    21183954.659
  21696094.125   -20785092.16849 -15893580.80847  21696093.737    21696096.119
 03  4  2  3 24 30.0000000  0  5G14G31G25G20G11
  21605724.755   -21492530.01649 -16698504.32047  21605724.158    21605726.237
  24608051.030     -267944.20749   -196760.67645  24608050.490    24608058.683
  21173974.056   -23343675.52049 -18171900.95147  21173973.753    21173976.682
  24731688.589    -6197705.89859  -4347700.27145  24731687.599    24731694.289
  21686700.603   -20834455.41949 -15932045.64247  21686700.190    21686702.575
 03  4  2  3 25  0.0000000  0  5G14G31G25G20G11
  21618561.247   -21425073.68549 -16645940.93747  21618560.662    21618562.727
  24623306.905     -187776.05649   -134292.10545  24623306.359    24623314.234
  21164084.198   -23395646.67749 -18212397.90647  21164083.930    21164086.863
  24715379.487    -6283408.98449  -4414481.67745  24715378.729    24715385.603
  21677396.749   -20883347.51749 -15970143.34647  21677396.301    21677398.694
 03  4  2  3 25 30.0000000  0  5G14G31G25G20G11
  21631432.187   -21357436.31849 -16593236.48547  21631431.612    21631433.716
  24638569.095     -107574.41849    -71797.44545  24638568.294    24638576.114
  21154284.447   -23447144.46149 -18252526.00148  21154284.174    21154287.100
  24699064.841    -6369141.37849  -4481285.94845  24699064.164    24699071.021
  21668184.454   -20931758.12749 -16007865.86347  21668184.028    21668186.385
 03  4  2  3 26  0.0000000  0  5G14G31G25G20G11
  21644336.382   -21289624.33749 -16540395.96447  21644335.798    21644337.951
  24653835.779      -27346.82649     -9282.53845  24653834.995    24653842.999
  21144574.262   -23498171.63049 -18292287.37848  21144573.996    21144576.912
  24682744.104    -6454907.28649  -4548116.33245  24682743.394    24682750.152
  21659063.252   -20979690.04649 -16045215.37347  21659062.863    21659065.222
 03  4  2  3 26 30.0000000  0  5G14G31G25G20G11
  21657274.140   -21221635.86049 -16487417.92247  21657273.562    21657275.736
  24669107.593       52907.50949     53253.17445  24669106.962    24669114.964
  21134954.607   -23548723.09549 -18331678.08548  21134954.326    21134957.235
  24666417.574    -6540702.30349  -4614969.40745  24666416.895    24666423.823
  21650034.224   -21027137.92949 -16082187.70847  21650033.784    21650036.137
 03  4  2  3 27  0.0000000  0  5G14G31G25G20G11
  21670244.593   -21153475.60149 -16434306.01547  21670244.002    21670246.211
  24684383.722      133182.64449    115805.11545  24684383.147    24684391.061
  21125425.158   -23598800.40349 -18370699.31348  21125424.893    21125427.806
  24650085.252    -6626529.10849  -4681847.29145  24650084.562    24650091.309
  21641097.030   -21074103.17349 -16118783.95747  21641096.531    21641098.916
 03  4  2  3 27 30.0000000  0  5G14G31G25G20G11
  21683247.422   -21085145.09249 -16381061.45247  21683246.841    21683249.064
  24699663.186      213476.02049    178371.27045  24699662.500    24699670.550
  21115986.335   -23648401.46949 -18409349.44848  21115986.047    21115988.970
  24633746.824    -6712386.87749  -4748749.27645  24633746.363    24633752.835
  21632252.035   -21120583.82449 -16155002.61347  21632251.554    21632253.898
 03  4  2  3 28  0.0000000  0  5G14G31G25G20G11
  21696282.295   -21016646.48949 -16327685.91147  21696281.697    21696283.925
  24714945.410      293784.33649    240949.05145  24714944.640    24714952.829
  21106638.339   -23697525.41549 -18447627.80148  21106638.049    21106640.944
  24617402.731    -6798275.47849  -4815675.27445  24617402.148    24617408.679
  21623499.548   -21166578.37049 -16190842.48447  21623499.083    21623501.373
 03  4  2  3 28 30.0000000  0  5G14G31G25G20G11
  21709349.559   -20947977.42349 -16274177.53847  21709348.941    21709351.166
  24730230.851      374108.78549    303539.41545  24730230.057    24730238.200
  21097382.270   -23746166.49749 -18485529.89648  21097381.966    21097384.818
  24601053.537    -6884190.47949  -4882621.88745  24601052.916    24601059.304
  21614840.556   -21212081.47049 -16226299.41547  21614840.078    21614842.363
 03  4  2  3 29  0.0000000  0  5G14G31G25G20G11
  21722447.377   -20879147.80049 -16220544.05447  21722446.773    21722449.001
  24745517.302      454438.52149    366133.89045  24745516.525    24745524.572
  21088216.815   -23794331.09449 -18523060.69948  21088216.492    21088219.353
  24584697.869    -6970139.14349  -4949594.70745  24584697.228    24584703.613
  21606273.933   -21257099.18549 -16261378.11347  21606273.458    21606275.740
 03  4  2  3 29 30.0000000  0  5G14G31G25G20G11
  21735576.765   -20810152.20449 -16166781.24447  21735576.174    21735578.384
  24760805.303      534777.62049    428735.64845  24760804.582    24760812.629
  21079143.555   -23842010.90949 -18560213.75648  21079143.283    21079146.156
  24568337.182    -7056114.10249  -5016588.04945  24568336.765    24568342.985
  21597801.200   -21301623.15249 -16296072.07747  21597800.794    21597803.105
 03  4  2  3 30  0.0000000  0  5G14G31G25G20G11
  21748736.874   -20740995.36649 -16112892.78547  21748736.293    21748738.483
  24776094.052      615120.36249    491340.27045  24776093.467    24776101.592
  21070162.395   -23889207.09649 -18596989.95348  21070162.110    21070164.977
  24551971.325    -7142117.37149  -5083603.42545  24551970.745    24551976.992
  21589422.267   -21345654.63049 -16330382.28247  21589421.844    21589424.139
 03  4  2  3 30 30.0000000  0  5G14G31G25G20G11
  21761927.390   -20671678.68549 -16058879.78047  21761926.821    21761929.020
  24791382.946      695464.18149    553945.73445  24791382.383    24791390.723
  21061273.480   -23935918.24749 -18633388.20348  21061273.224    21061276.075
  24535600.077    -7228148.19249  -5150640.29345  24535599.528    24535605.699
  21581137.537   -21389191.27749 -16364306.90847  21581137.070    21581139.372
 03  4  2  3 31  0.0000000  0  5G14G31G25G20G11
  21775148.412   -20602202.03349 -16004742.12547  21775147.799    21775149.960
  24806671.949      775807.96249    616551.15145  24806671.239    24806679.765
  21052477.559   -23982141.19749 -18669406.04048  21052477.283    21052480.100
  24519224.085    -7314204.25749  -5217696.80145  24519223.545    24519229.611
  21572947.454   -21432230.26949 -16397843.75547  21572947.009    21572949.259
 03  4  2  3 31 30.0000000  0  5G14G31G25G20G11
  21788398.946   -20532569.73049 -15950483.17447  21788398.386    21788400.539
  24821959.968      856146.27549    679152.30945  24821959.225    24821967.798
  21043774.328   -24027876.89849 -18705044.19748  21043774.029    21043776.825
  24502842.829    -7400287.84749  -5284774.74845  24502842.216    24502848.373
  21564851.875   -21474772.72449 -16430993.68347  21564851.434    21564853.657
 03  4  2  3 32  0.0000000  0  5G14G31G25G20G11
  21801678.819   -20462783.50649 -15896104.29447  21801678.232    21801680.356
  24837246.424      936476.21049    741746.93945  24837245.772    24837254.105
  21035163.968   -24073124.27849 -18740301.84948  21035163.689    21035166.477
  24486456.438    -7486398.32749  -5351873.65745  24486455.780    24486461.988
  21556851.036   -21516817.23649 -16463755.60847  21556850.603    21556852.839
 03  4  2  3 32 30.0000000  0  5G14G31G25G20G11
  21814987.889   -20392843.88849 -15841605.87747  21814987.309    21814989.414
  24852530.972     1016796.35349    804333.94645  24852530.212    24852538.561
  21026647.071   -24117880.61449 -18775176.86448  21026646.805    21026649.609
  24470065.323    -7572533.41849  -5418991.73845  24470064.737    24470070.800
  21548945.596   -21558360.39949 -16496126.86747  21548945.166    21548947.403
 03  4  2  3 33  0.0000000  0  5G14G31G25G20G11
  21828326.107   -20322751.18949 -15786988.18947  21828325.535    21828327.613
  24867813.185     1097105.09149    866912.05645  24867812.492    24867821.001
  21018224.236   -24162142.82849 -18809666.85648  21018223.956    21018226.742
  24453669.848    -7658691.66649  -5486127.85345  24453669.237    24453675.281
  21541136.106   -21599399.62149 -16528105.44647  21541135.652    21541137.910
 03  4  2  3 33 30.0000000  0  5G14G31G25G20G11
  21841693.015   -20252507.80549 -15732253.08147  21841692.441    21841694.493
  24883092.709     1177398.59849    929478.29545  24883091.874    24883100.432
  21009895.498   -24205910.82749 -18843771.74348  21009895.152    21009897.932
  24437269.889    -7744873.14649  -5553282.07245  24437269.351    24437275.322
  21533422.543   -21639934.46049 -16559691.00047  21533422.072    21533424.344
 03  4  2  3 34  0.0000000  0  5G14G31G25G20G11
  21855087.896   -20182117.41449 -15677403.41347  21855087.298    21855089.348
  24898368.336     1257672.19149    992029.02845  24898367.379    24898376.085
  21001660.649   -24249184.94449 -18877491.78648  21001660.323    21001663.109
  24420865.390    -7831079.27549  -5620455.48745  24420864.678    24420870.677
  21525804.832   -21679965.42849 -16590883.92347  21525804.376    21525806.645
 03  4  2  3 34 30.0000000  0  5G14G31G25G20G11
  21868510.617   -20111580.68949 -15622439.72447  21868509.996    21868512.038
  24913639.697     1337924.26749   1054562.96545  24913638.897    24913647.725
  20993520.136   -24291963.20049 -18910825.44648  20993519.839    20993522.627
  24404456.361    -7917308.29549  -5687646.75645  24404455.658    24404461.659
  21518283.564   -21719489.75449 -16621682.06747  21518283.123    21518285.372
 03  4  2  3 35  0.0000000  0  5G14G31G25G20G11
  21881960.764   -20040899.54949 -15567363.50647  21881960.174    21881962.202
  24928906.531     1418151.71749   1117077.73345  24928905.936    24928914.608
  20985474.204   -24334244.49649 -18943771.86548  20985473.919    20985476.713
  24388043.011    -8003559.90049  -5754855.61745  24388042.280    24388048.387
  21510858.916   -21758506.45849 -16652084.66647  21510858.513    21510860.709
 03  4  2  3 35 30.0000000  0  4G14G25G20G11
  21895439.432   -19970068.53449 -15512170.49847  21895438.813    21895440.854
  20977524.476   -24376020.56849 -18976324.60648  20977524.192    20977526.961
  24371626.969    -8089826.39249  -5822076.09445  24371626.225    24371632.202
  21503532.479   -21797007.07449 -16682085.11747  21503532.045    21503534.248
 03  4  2  3 36  0.0000000  0  4G14G25G20G11
  21908944.724   -19899097.52349 -15456868.40447  21908944.104    21908946.189
  20969669.501   -24417298.47049 -19008489.15548  20969669.210    20969671.977
  24355206.709    -8176115.23949  -5889313.99045  24355205.952    24355211.737
  21496302.965   -21834998.13249 -16711688.49647  21496302.529    21496304.771
 03  4  2  3 36 30.0000000  0  4G14G25G20G11
  21922476.525   -19827987.25749 -15401457.80547  21922475.916    21922478.006
  20961909.760   -24458075.84149 -19040263.69048  20961909.492    20961912.233
  24338782.252    -8262424.89449  -5956568.14345  24338781.573    24338787.381
  21489170.910   -21872477.25149 -16740892.97547  21489170.507    21489172.742
 03  4  2  3 37  0.0000000  0  4G14G25G20G11
  21936034.395   -19756739.96149 -15345940.42647  21936033.800    21936035.939
  20954245.412   -24498352.03149 -19071647.68748  20954245.148    20954247.860
  24322354.040    -8348755.40349  -6023838.51845  24322353.256    24322359.106
  21482136.411   -21909444.02249 -16769698.22747  21482135.957    21482138.163
 03  4  2  3 37 30.0000000  0  4G14G25G20G11
  21949618.587   -19685354.53349 -15290315.41447  21949617.966    21949620.123
  20946677.112   -24538123.45049 -19102638.35848  20946676.867    20946679.558
  24305922.469    -8435103.60949  -6091122.73445  24305921.670    24305927.250
  21475200.050   -21945894.71749 -16798101.34047  21475199.599    21475201.746
 03  4  2  3 38  0.0000000  0  4G14G25G20G11
  21963228.127   -19613835.69849 -15234586.44647  21963227.514    21963229.704
  20939204.566   -24577391.79949 -19133237.03048  20939204.331    20939206.988
  24289487.169    -8521471.70249  -6158422.40845  24289486.289    24289491.881
  21468361.627   -21981830.40049 -16826103.14147  21468361.183    21468363.385
 03  4  2  3 38 30.0000000  0  4G14G25G20G11
  21976862.888   -19542184.44449 -15178754.29547  21976862.265    21976864.452
  20931828.018   -24616155.58449 -19163442.53448  20931827.777    20931830.437
  24273048.191    -8607858.44949  -6225736.62645  24273047.300    24273052.867
  21461621.539   -22017249.70049 -16853702.57147  21461621.119    21461623.301
 03  4  2  3 39  0.0000000  0  4G14G25G20G11
  21990523.108   -19470399.52349 -15122817.99047  21990522.508    21990524.694
  20924548.271   -24654410.87649 -19193251.80748  20924548.007    20924550.666
  24256606.502    -8694260.00549  -6293062.38545  24256605.522    24256610.975
  21454980.591   -22052148.20849 -16880896.18547  21454980.166    21454982.317
 03  4  2  3 39 30.0000000  0  4G14G25G20G11
  22004207.919   -19398485.16149 -15066780.82547  22004207.344    22004209.528
  20917365.003   -24692159.16649 -19222666.01348  20917364.720    20917367.345
  24240161.359    -8780678.72449  -6360401.53745  24240160.447    24240165.718
  21448438.333   -22086527.61649 -16907685.31047  21448437.926    21448440.085
 03  4  2  3 40  0.0000000  0  4G14G25G20G11
  22017917.656   -19326440.45149 -15010642.09547  22017917.053    22017919.202
  20910278.889   -24729396.67349 -19251682.20648  20910278.615    20910281.226
  24223713.645    -8867111.02149  -6427751.22245  24223712.754    24223718.106
  21441995.733   -22120383.61149 -16934066.57947  21441995.306    21441997.457
 03  4  2  3 40 30.0000000  0  4G14G25G20G11
  22031651.333   -19254269.62949 -14954405.08947  22031650.746    22031652.839
  20903289.652   -24766125.10249 -19280301.71848  20903289.404    20903291.997
  24207262.992    -8953559.35449  -6495113.40545  24207262.111    24207267.489
  21435652.326   -22153718.19049 -16960041.55147  21435651.897    21435654.030
 03  4  2  3 41  0.0000000  0  4G14G25G20G11
  22045409.301   -19181971.13749 -14898068.60747  22045408.721    22045410.775
  20896398.077   -24802340.47249 -19308521.44348  20896397.815    20896400.394
  24190810.059    -9040019.58149  -6562484.88445  24190809.202    24190814.558
  21429409.094   -22186526.77149 -16985606.65347  21429408.649    21429410.792
 03  4  2  3 41 30.0000000  0  4G14G25G20G11
  22059190.762   -19109549.01949 -14841635.79247  22059190.190    22059192.255
  20889603.861   -24838044.25449 -19336342.52748  20889603.608    20889606.146
  24174354.509    -9126493.39849  -6629866.93645  24174353.683    24174358.983
  21423265.637   -22218810.58649 -17010762.84347  21423265.222    21423267.373
 03  4  2  3 42  0.0000000  0  4G14G25G20G11
  22072995.910   -19037002.84149 -14785106.30847  22072995.293    22072997.357
  20882907.551   -24873233.51549 -19363762.68648  20882907.264    20882909.790
  24157896.908    -9212978.25849  -6697257.60745  24157896.167    24157901.438
  21417222.625   -22250566.64049 -17035507.79647  21417222.226    21417224.359
 03  4  2  3 42 30.0000000  0  4G14G25G20G11
  22086823.769   -18964336.76149 -14728483.38647  22086823.190    22086825.235
  20876308.922   -24907909.42549 -19390782.83448  20876308.632    20876311.141
  24141436.850    -9299475.78749  -6764658.14245  24141436.102    24141441.245
  21411279.831   -22281796.05549 -17059842.37947  21411279.420    21411281.558
 03  4  2  3 43  0.0000000  0  4G14G25G20G11
  22100674.262   -18891551.91949 -14671767.92447  22100673.672    22100675.682
  20869808.173   -24942070.95249 -19417402.15948  20869807.893    20869810.366
  24124974.584    -9385984.99349  -6832067.80045  24124973.828    24124979.001
  21405437.482   -22312497.78049 -17083765.77647  21405437.094    21405439.189
 03  4  2  3 43 30.0000000  0  4G14G25G20G11
  22114547.574   -18818647.38449 -14614959.20347  22114546.978    22114548.969
  20863405.932   -24975714.82149 -19443618.12048  20863405.665    20863408.113
  24108510.710    -9472502.91349  -6899484.27245  24108510.026    24108515.103
  21399696.250   -22342668.06049 -17107275.06047  21399695.869    21399697.939
 03  4  2  3 44  0.0000000  0  4G14G25G20G11
  22128443.164   -18745625.39349 -14558058.95847  22128442.598    22128444.588
  20857102.228   -25008841.03549 -19469430.71248  20857101.939    20857104.382
  24092045.192    -9559029.27249  -6966907.34245  24092044.515    24092049.511
  21394056.271   -22372306.65049 -17130370.03447  21394055.833    21394057.900
 03  4  2  3 44 30.0000000  0  4G14G25G20G11
  22142360.671   -18672488.40849 -14501069.10747  22142360.083    22142362.134
  20850897.020   -25041449.31149 -19494839.71748  20850896.735    20850899.157
  24075578.099    -9645564.14849  -7034337.03045  24075577.345    24075582.391
  21388517.478   -22401412.93649 -17153050.22847  21388517.058    21388519.175
 03  4  2  3 45  0.0000000  0  4G14G25G20G11
  22156299.704   -18599238.18849 -14443991.01547  22156299.123    22156301.211
  20844790.537   -25073539.04049 -19519844.65848  20844790.262    20844792.662
  24059109.417    -9732107.09449  -7101773.02445  24059108.686    24059113.819
  21383080.066   -22429986.54049 -17175315.34047  21383079.652    21383081.769
 03  4  2  3 45 30.0000000  0  4G14G25G20G11
  22170260.212   -18525875.29749 -14386825.13347  22170259.649    22170261.753
  20838782.950   -25105108.78849 -19544444.41748  20838782.701    20838785.087
  24042639.480    -9818656.37949  -7169213.97445  24042638.798    24042643.989
  21377744.528   -22458025.01949 -17197163.47447  21377744.106    21377746.197
 03  4  2  3 46  0.0000000  0  4G14G25G20G11
  22184241.987   -18452400.52749 -14329572.06247  22184241.419    22184243.525
  20832874.641   -25136157.12549 -19568637.88348  20832874.371    20832876.756
  24026168.776    -9905210.59349  -7236658.76945  24026168.030    24026173.244
  21372510.992   -22485527.24649 -17218593.75047  21372510.579    21372512.667
 03  4  2  3 46 30.0000000  0  4G14G25G20G11
  22198244.725   -18378815.69249 -14272233.24447  22198244.155    22198246.237
  20827065.676   -25166683.20049 -19592424.39848  20827065.433    20827067.819
  24009697.112    -9991769.27149  -7304107.01645  24009696.353    24009701.689
  21367379.598   -22512492.69249 -17239605.75347  21367379.191    21367381.307
 03  4  2  3 47  0.0000000  0  4G14G25G20G11
  22212267.979   -18305122.94749 -14214810.32747  22212267.447    22212269.500
  20821356.139   -25196686.90749 -19615803.87548  20821355.885    20821358.249
  23993224.611   -10078332.13749  -7371558.53245  23993223.866    23993229.271
  21362350.512   -22538920.67849 -17260198.95247  21362350.093    21362352.222
 03  4  2  3 47 30.0000000  0  4G14G25G20G11
  22226310.947   -18231326.43649 -14157306.55847  22226310.406    22226312.447
  20815745.646   -25226170.29249 -19638777.90648  20815745.369    20815747.719
  23976751.101   -10164901.05749  -7439014.75745  23976750.301    23976755.714
  21357423.307   -22564813.08049 -17280374.81747  21357422.934    21357425.043
 03  4  2  3 48  0.0000000  0  4G14G25G20G11
  22240374.048   -18157424.07649 -14099720.30647  22240373.520    22240375.608
  20810234.840   -25255129.29249 -19661343.32648  20810234.604    20810236.957
  23960277.292   -10251471.54749  -7506472.19245  23960276.486    23960281.815
  21352598.914   -22590165.24549 -17300129.72247  21352598.554    21352600.613
 03  4  2  3 48 30.0000000  0  4G14G25G20G11
  22254457.100   -18083417.18449 -14042052.60247  22254456.570    22254458.635
  20804824.111   -25283562.76249 -19683499.24448  20804823.880    20804826.230
  23943803.274   -10338042.90249  -7573930.27345  23943802.391    23943807.734
  21347877.503   -22614976.50649 -17319463.13947  21347877.122    21347879.168
 03  4  2  3 49  0.0000000  0  4G14G25G20G11
  22268559.558   -18009308.33049 -13984305.44647  22268558.998    22268561.109
  20799513.227   -25311471.53649 -19705246.30248  20799512.967    20799515.332
  23927329.003   -10424615.20949  -7641389.09745  23927328.216    23927333.544
  21343259.079   -22639246.41849 -17338374.72347  21343258.670    21343260.738
 03  4  2  3 49 30.0000000  0  4G14G25G20G11
  22282681.329   -17935098.13349 -13926479.32347  22282680.741    22282682.856
  20794302.554   -25338853.80649 -19726583.10748  20794302.274    20794304.638
  23910854.831   -10511186.79749  -7708847.36045  23910854.100    23910859.376
  21338743.875   -22662973.65849 -17356863.45247  21338743.515    21338745.554
 03  4  2  3 50  0.0000000  0  4G14G25G20G11
  22296821.905   -17860788.61149 -13868575.81147  22296821.342    22296823.510
  20789191.938   -25365709.96349 -19747509.94848  20789191.682    20789194.035
  23894380.908   -10597757.69349  -7776305.05945  23894380.205    23894385.340
  21334331.954   -22686158.38749 -17374929.44047  21334331.590    21334333.652
 03  4  2  3 50 30.0000000  0  4G14G25G20G11
  22310981.259   -17786380.69949 -13810595.62647  22310980.709    22310982.876
  20784181.704   -25392038.48449 -19768025.64948  20784181.481    20784183.819
  23877907.466   -10684326.13249  -7843760.87045  23877906.729    23877911.639
  21330023.580   -22708799.01249 -17392571.46047  21330023.172    21330025.213
 03  4  2  3 51  0.0000000  0  4G14G25G20G11
  22325158.939   -17711876.81049 -13752540.65347  22325158.355    22325160.508
  20779271.861   -25417839.87449 -19788130.59348  20779271.600    20779273.956
  23861434.508   -10770892.24249  -7911214.86445  23861433.703    23861438.487
  21325818.713   -22730895.57649 -17409789.53447  21325818.303    21325820.304
 03  4  2  3 51 30.0000000  0  4G14G25G20G11
  22339354.609   -17637278.16449 -13694411.84346  22339353.997    22339356.092
  20774462.405   -25443113.52149 -19807824.31248  20774462.159    20774464.518
  23844962.064   -10857455.27449  -7978666.43445  23844961.187    23844966.017
  21321717.609   -22752447.03749 -17426582.84947  21321717.193    21321719.206
 03  4  2  3 52  0.0000000  0  4G14G25G20G11
  22353568.655   -17562583.16649 -13636207.95546  22353568.017    22353570.112
  20769754.073   -25467855.92949 -19827104.07948  20769753.819    20769756.159
  23828490.876   -10944011.02049  -8046112.35845  23828490.199    23828494.787
  21317720.896   -22773449.72949 -17442948.55847  21317720.489    21317722.507
 03  4  2  3 52 30.0000000  0  5G14G25G20G11G 1
  22367799.065   -17487801.79249 -13577936.76146  22367798.485    22367800.499
  20765145.359   -25492074.95249 -19845976.01148  20765145.079    20765147.384
  23812019.693   -11030567.45649  -8113558.80245  23812018.932    23812023.545
  21313827.118   -22793911.61049 -17458892.85647  21313826.715    21313828.761
  24613561.858    -5437201.83959  -3492200.39345  24613561.157    24613569.845
 03  4  2  3 53  0.0000000  0  5G14G25G20G11G 1
  22382047.592   -17412925.31449 -13519591.46246  22382047.021    22382049.033
  20760638.087   -25515760.44449 -19864432.20748  20760637.840    20760640.133
  23795550.302   -11117113.73049  -8180997.33645  23795549.574    23795554.200
  21310038.191   -22813822.23649 -17474407.60947  21310037.808    21310039.830
  24598099.047    -5518457.58649  -3555516.26245  24598098.491    24598107.025
 03  4  2  3 53 30.0000000  0  5G14G25G20G11G 1
  22396313.528   -17337957.09149 -13461174.65146  22396312.975    22396314.945
  20756232.232   -25538913.19149 -19882473.27548  20756231.990    20756234.283
  23779082.850   -11203650.59449  -8248428.54845  23779082.134    23779086.613
  21306354.044   -22833182.51949 -17489493.52747  21306353.648    21306355.631
  24582665.200    -5599560.86049  -3618713.29545  24582664.636    24582673.266
 03  4  2  3 54  0.0000000  0  5G14G25G20G11G 1
  22410596.715   -17262898.38149 -13402687.34246  22410596.148    22410598.135
  20751927.753   -25561533.28249 -19900099.28848  20751927.510    20751929.782
  23762617.215   -11290177.19949  -8315851.76845  23762616.553    23762621.019
  21302774.719   -22851991.79649 -17504150.08447  21302774.336    21302776.300
  24567260.738    -5680511.34749  -3681791.30545  24567260.180    24567268.609
 03  4  2  3 54 30.0000000  0  5G14G25G20G11G 1
  22424896.244   -17187753.55949 -13344132.93346  22424895.678    22424897.663
  20747724.214   -25583623.07649 -19917312.08148  20747723.930    20747726.188
  23746153.329   -11376695.48749  -8383268.52045  23746152.551    23746156.995
  21299299.849   -22870252.46249 -17518379.15747  21299299.452    21299301.393
  24551884.766    -5761311.53849  -3744752.19845  24551884.245    24551892.713
 03  4  2  3 55  0.0000000  0  5G14G25G20G11G 1
  22439212.620   -17112520.29549 -13285509.60146  22439212.087    22439214.117
  20743622.332   -25605178.26349 -19934108.29848  20743622.069    20743624.331
  23729691.854   -11463200.78449  -8450675.13245  23729691.037    23729695.477
  21295930.243   -22887959.68149 -17532176.96947  21295929.845    21295931.811
  24536538.149    -5841957.45549  -3807592.87445  24536537.609    24536545.902
 03  4  2  3 55 30.0000000  0  5G14G25G20G11G 1
  22453544.941   -17037203.76649 -13226821.38746  22453544.355    22453546.431
  20739621.455   -25626202.81449 -19950491.03248  20739621.219    20739623.464
  23713232.219   -11549696.05049  -8518073.94445  23713231.442    23713235.886
  21292665.158   -22905117.69049 -17545546.83147  21292664.785    21292666.698
  24521219.880    -5922452.76049  -3870316.19645  24521219.464    24521227.902
 03  4  2  3 56  0.0000000  0  5G14G25G20G11G 1
  22467893.372   -16961802.25949 -13168066.95646  22467892.812    22467894.899
  20735722.316   -25646693.02649 -19966457.40248  20735722.048    20735724.282
  23696775.309   -11636177.39749  -8585461.92045  23696774.525    23696779.056
  21289505.391   -22921722.18449 -17558485.39247  21289505.052    21289506.916
  24505931.302    -6002794.02549  -3932919.49345  24505930.897    24505939.148
